<?xml version="1.0" encoding="UTF-8" standalone="no" ?>
<gpx xmlns="http://www.topografix.com/GPX/1/1" xmlns:xsi="http://www.w3.org/2001/XMLSchema-instance" xsi:schemaLocation="http://www.topografix.com/GPX/1/1 http://www.topografix.com/GPX/1/1/gpx.xsd" version="1.1" creator="VisuGPX - https://www.visugpx.com">
  <metadata>
    <name>Liausson-Mourèze-Salagou</name>
    <desc><![CDATA[Attention le sentier qui descend sur Roques c\'est pas mal détérioré sur le bas. Pour monter à la Sure prendre le sentier que l\'on a utilisé pour redescendre.]]></desc>
  </metadata>
  <wpt lat="43.64828" lon="3.33101">
    <ele>139</ele>
    <name><![CDATA[Repas]]></name>
  </wpt>
  <trk>
    <name><![CDATA[Liausson-Mourèze-Salagou_2026-05-12]]></name>
    <trkseg>
      <trkpt lat="43.63562" lon="3.3692">
        <ele>235</ele>
        <time>2026-05-12T07:20:00.000Z</time>
      </trkpt>
      <trkpt lat="43.63561" lon="3.3692">
        <ele>233</ele>
        <time>2026-05-12T07:20:09.000Z</time>
      </trkpt>
      <trkpt lat="43.63561" lon="3.3692">
        <ele>236</ele>
        <time>2026-05-12T07:20:11.000Z</time>
      </trkpt>
      <trkpt lat="43.63561" lon="3.36922">
        <ele>233</ele>
        <time>2026-05-12T07:20:19.000Z</time>
      </trkpt>
      <trkpt lat="43.6356" lon="3.36921">
        <ele>234</ele>
        <time>2026-05-12T07:20:24.000Z</time>
      </trkpt>
      <trkpt lat="43.63561" lon="3.3692">
        <ele>235</ele>
        <time>2026-05-12T07:20:42.000Z</time>
      </trkpt>
      <trkpt lat="43.63561" lon="3.3692">
        <ele>233</ele>
        <time>2026-05-12T07:21:08.000Z</time>
      </trkpt>
      <trkpt lat="43.6356" lon="3.3692">
        <ele>234</ele>
        <time>2026-05-12T07:21:27.000Z</time>
      </trkpt>
      <trkpt lat="43.6356" lon="3.3692">
        <ele>233</ele>
        <time>2026-05-12T07:21:29.000Z</time>
      </trkpt>
      <trkpt lat="43.6356" lon="3.36921">
        <ele>233</ele>
        <time>2026-05-12T07:21:43.000Z</time>
      </trkpt>
      <trkpt lat="43.63561" lon="3.36918">
        <ele>234</ele>
        <time>2026-05-12T07:22:01.000Z</time>
      </trkpt>
      <trkpt lat="43.63563" lon="3.36918">
        <ele>233</ele>
        <time>2026-05-12T07:22:07.000Z</time>
      </trkpt>
      <trkpt lat="43.63564" lon="3.3692">
        <ele>235</ele>
        <time>2026-05-12T07:22:09.000Z</time>
      </trkpt>
      <trkpt lat="43.63566" lon="3.36924">
        <ele>233</ele>
        <time>2026-05-12T07:22:12.000Z</time>
      </trkpt>
      <trkpt lat="43.63571" lon="3.36932">
        <ele>233</ele>
        <time>2026-05-12T07:22:20.000Z</time>
      </trkpt>
      <trkpt lat="43.63576" lon="3.36942">
        <ele>233</ele>
        <time>2026-05-12T07:22:27.000Z</time>
      </trkpt>
      <trkpt lat="43.63569" lon="3.36966">
        <ele>235</ele>
        <time>2026-05-12T07:22:45.000Z</time>
      </trkpt>
      <trkpt lat="43.63563" lon="3.36981">
        <ele>236</ele>
        <time>2026-05-12T07:22:58.000Z</time>
      </trkpt>
      <trkpt lat="43.63558" lon="3.37003">
        <ele>238</ele>
        <time>2026-05-12T07:23:13.000Z</time>
      </trkpt>
      <trkpt lat="43.6355" lon="3.37031">
        <ele>238</ele>
        <time>2026-05-12T07:23:30.000Z</time>
      </trkpt>
      <trkpt lat="43.6354" lon="3.37054">
        <ele>238</ele>
        <time>2026-05-12T07:23:46.000Z</time>
      </trkpt>
      <trkpt lat="43.63527" lon="3.37074">
        <ele>240</ele>
        <time>2026-05-12T07:24:02.000Z</time>
      </trkpt>
      <trkpt lat="43.63521" lon="3.37078">
        <ele>240</ele>
        <time>2026-05-12T07:24:08.000Z</time>
      </trkpt>
      <trkpt lat="43.6352" lon="3.37079">
        <ele>240</ele>
        <time>2026-05-12T07:24:13.000Z</time>
      </trkpt>
      <trkpt lat="43.63523" lon="3.37077">
        <ele>239</ele>
        <time>2026-05-12T07:24:15.000Z</time>
      </trkpt>
      <trkpt lat="43.63536" lon="3.37062">
        <ele>239</ele>
        <time>2026-05-12T07:24:29.000Z</time>
      </trkpt>
      <trkpt lat="43.63546" lon="3.37039">
        <ele>238</ele>
        <time>2026-05-12T07:24:46.000Z</time>
      </trkpt>
      <trkpt lat="43.63547" lon="3.37038">
        <ele>238</ele>
        <time>2026-05-12T07:24:47.000Z</time>
      </trkpt>
      <trkpt lat="43.63546" lon="3.3705">
        <ele>237</ele>
        <time>2026-05-12T07:24:55.000Z</time>
      </trkpt>
      <trkpt lat="43.63545" lon="3.37054">
        <ele>236</ele>
        <time>2026-05-12T07:24:57.000Z</time>
      </trkpt>
      <trkpt lat="43.63537" lon="3.37078">
        <ele>235</ele>
        <time>2026-05-12T07:25:12.000Z</time>
      </trkpt>
      <trkpt lat="43.63532" lon="3.37092">
        <ele>234</ele>
        <time>2026-05-12T07:25:22.000Z</time>
      </trkpt>
      <trkpt lat="43.63529" lon="3.37092">
        <ele>234</ele>
        <time>2026-05-12T07:25:24.000Z</time>
      </trkpt>
      <trkpt lat="43.63524" lon="3.3709">
        <ele>234</ele>
        <time>2026-05-12T07:25:31.000Z</time>
      </trkpt>
      <trkpt lat="43.6352" lon="3.37089">
        <ele>235</ele>
        <time>2026-05-12T07:25:35.000Z</time>
      </trkpt>
      <trkpt lat="43.63504" lon="3.3708">
        <ele>238</ele>
        <time>2026-05-12T07:25:50.000Z</time>
      </trkpt>
      <trkpt lat="43.63486" lon="3.37084">
        <ele>238</ele>
        <time>2026-05-12T07:26:06.000Z</time>
      </trkpt>
      <trkpt lat="43.63468" lon="3.3709">
        <ele>238</ele>
        <time>2026-05-12T07:26:20.000Z</time>
      </trkpt>
      <trkpt lat="43.63466" lon="3.37091">
        <ele>238</ele>
        <time>2026-05-12T07:26:23.000Z</time>
      </trkpt>
      <trkpt lat="43.63452" lon="3.37104">
        <ele>239</ele>
        <time>2026-05-12T07:26:37.000Z</time>
      </trkpt>
      <trkpt lat="43.63438" lon="3.37126">
        <ele>239</ele>
        <time>2026-05-12T07:26:54.000Z</time>
      </trkpt>
      <trkpt lat="43.63435" lon="3.3713">
        <ele>237</ele>
        <time>2026-05-12T07:26:57.000Z</time>
      </trkpt>
      <trkpt lat="43.63434" lon="3.37131">
        <ele>239</ele>
        <time>2026-05-12T07:26:58.000Z</time>
      </trkpt>
      <trkpt lat="43.63433" lon="3.37135">
        <ele>238</ele>
        <time>2026-05-12T07:27:01.000Z</time>
      </trkpt>
      <trkpt lat="43.63439" lon="3.37152">
        <ele>238</ele>
        <time>2026-05-12T07:27:11.000Z</time>
      </trkpt>
      <trkpt lat="43.6344" lon="3.37159">
        <ele>239</ele>
        <time>2026-05-12T07:27:16.000Z</time>
      </trkpt>
      <trkpt lat="43.63432" lon="3.37175">
        <ele>240</ele>
        <time>2026-05-12T07:27:29.000Z</time>
      </trkpt>
      <trkpt lat="43.63429" lon="3.37189">
        <ele>240</ele>
        <time>2026-05-12T07:27:41.000Z</time>
      </trkpt>
      <trkpt lat="43.63425" lon="3.37201">
        <ele>241</ele>
        <time>2026-05-12T07:27:52.000Z</time>
      </trkpt>
      <trkpt lat="43.63416" lon="3.37217">
        <ele>243</ele>
        <time>2026-05-12T07:28:06.000Z</time>
      </trkpt>
      <trkpt lat="43.63409" lon="3.37231">
        <ele>246</ele>
        <time>2026-05-12T07:28:19.000Z</time>
      </trkpt>
      <trkpt lat="43.63402" lon="3.37248">
        <ele>249</ele>
        <time>2026-05-12T07:28:35.000Z</time>
      </trkpt>
      <trkpt lat="43.63395" lon="3.37258">
        <ele>252</ele>
        <time>2026-05-12T07:28:48.000Z</time>
      </trkpt>
      <trkpt lat="43.63386" lon="3.3727">
        <ele>253</ele>
        <time>2026-05-12T07:29:01.000Z</time>
      </trkpt>
      <trkpt lat="43.63371" lon="3.37278">
        <ele>254</ele>
        <time>2026-05-12T07:29:16.000Z</time>
      </trkpt>
      <trkpt lat="43.63359" lon="3.37287">
        <ele>256</ele>
        <time>2026-05-12T07:29:29.000Z</time>
      </trkpt>
      <trkpt lat="43.63351" lon="3.37301">
        <ele>259</ele>
        <time>2026-05-12T07:29:44.000Z</time>
      </trkpt>
      <trkpt lat="43.63343" lon="3.37312">
        <ele>260</ele>
        <time>2026-05-12T07:29:55.000Z</time>
      </trkpt>
      <trkpt lat="43.63332" lon="3.37326">
        <ele>261</ele>
        <time>2026-05-12T07:30:08.000Z</time>
      </trkpt>
      <trkpt lat="43.63323" lon="3.37341">
        <ele>262</ele>
        <time>2026-05-12T07:30:23.000Z</time>
      </trkpt>
      <trkpt lat="43.63317" lon="3.3735">
        <ele>262</ele>
        <time>2026-05-12T07:30:32.000Z</time>
      </trkpt>
      <trkpt lat="43.63313" lon="3.37355">
        <ele>264</ele>
        <time>2026-05-12T07:30:38.000Z</time>
      </trkpt>
      <trkpt lat="43.63306" lon="3.37366">
        <ele>264</ele>
        <time>2026-05-12T07:30:49.000Z</time>
      </trkpt>
      <trkpt lat="43.63303" lon="3.37368">
        <ele>265</ele>
        <time>2026-05-12T07:30:52.000Z</time>
      </trkpt>
      <trkpt lat="43.63301" lon="3.37371">
        <ele>265</ele>
        <time>2026-05-12T07:30:55.000Z</time>
      </trkpt>
      <trkpt lat="43.63286" lon="3.37383">
        <ele>265</ele>
        <time>2026-05-12T07:31:11.000Z</time>
      </trkpt>
      <trkpt lat="43.63281" lon="3.37388">
        <ele>263</ele>
        <time>2026-05-12T07:31:18.000Z</time>
      </trkpt>
      <trkpt lat="43.63271" lon="3.37397">
        <ele>262</ele>
        <time>2026-05-12T07:31:32.000Z</time>
      </trkpt>
      <trkpt lat="43.63257" lon="3.37408">
        <ele>261</ele>
        <time>2026-05-12T07:31:47.000Z</time>
      </trkpt>
      <trkpt lat="43.63249" lon="3.37402">
        <ele>261</ele>
        <time>2026-05-12T07:31:59.000Z</time>
      </trkpt>
      <trkpt lat="43.63229" lon="3.37406">
        <ele>260</ele>
        <time>2026-05-12T07:32:16.000Z</time>
      </trkpt>
      <trkpt lat="43.6321" lon="3.37396">
        <ele>260</ele>
        <time>2026-05-12T07:32:33.000Z</time>
      </trkpt>
      <trkpt lat="43.63205" lon="3.37396">
        <ele>260</ele>
        <time>2026-05-12T07:32:38.000Z</time>
      </trkpt>
      <trkpt lat="43.63201" lon="3.37399">
        <ele>261</ele>
        <time>2026-05-12T07:32:49.000Z</time>
      </trkpt>
      <trkpt lat="43.63189" lon="3.37417">
        <ele>260</ele>
        <time>2026-05-12T07:33:03.000Z</time>
      </trkpt>
      <trkpt lat="43.63179" lon="3.37432">
        <ele>260</ele>
        <time>2026-05-12T07:33:15.000Z</time>
      </trkpt>
      <trkpt lat="43.63168" lon="3.37449">
        <ele>260</ele>
        <time>2026-05-12T07:33:30.000Z</time>
      </trkpt>
      <trkpt lat="43.63158" lon="3.37471">
        <ele>260</ele>
        <time>2026-05-12T07:33:44.000Z</time>
      </trkpt>
      <trkpt lat="43.63151" lon="3.37486">
        <ele>260</ele>
        <time>2026-05-12T07:33:55.000Z</time>
      </trkpt>
      <trkpt lat="43.63147" lon="3.37505">
        <ele>260</ele>
        <time>2026-05-12T07:34:11.000Z</time>
      </trkpt>
      <trkpt lat="43.63138" lon="3.37532">
        <ele>262</ele>
        <time>2026-05-12T07:34:25.000Z</time>
      </trkpt>
      <trkpt lat="43.63136" lon="3.37543">
        <ele>263</ele>
        <time>2026-05-12T07:34:33.000Z</time>
      </trkpt>
      <trkpt lat="43.6313" lon="3.37558">
        <ele>265</ele>
        <time>2026-05-12T07:34:47.000Z</time>
      </trkpt>
      <trkpt lat="43.63121" lon="3.37571">
        <ele>267</ele>
        <time>2026-05-12T07:35:03.000Z</time>
      </trkpt>
      <trkpt lat="43.63111" lon="3.37585">
        <ele>270</ele>
        <time>2026-05-12T07:35:17.000Z</time>
      </trkpt>
      <trkpt lat="43.63102" lon="3.37594">
        <ele>272</ele>
        <time>2026-05-12T07:35:32.000Z</time>
      </trkpt>
      <trkpt lat="43.63093" lon="3.37599">
        <ele>275</ele>
        <time>2026-05-12T07:35:47.000Z</time>
      </trkpt>
      <trkpt lat="43.63084" lon="3.37605">
        <ele>277</ele>
        <time>2026-05-12T07:36:00.000Z</time>
      </trkpt>
      <trkpt lat="43.63075" lon="3.37607">
        <ele>278</ele>
        <time>2026-05-12T07:36:13.000Z</time>
      </trkpt>
      <trkpt lat="43.63067" lon="3.37599">
        <ele>281</ele>
        <time>2026-05-12T07:36:26.000Z</time>
      </trkpt>
      <trkpt lat="43.63064" lon="3.37594">
        <ele>285</ele>
        <time>2026-05-12T07:36:39.000Z</time>
      </trkpt>
      <trkpt lat="43.63058" lon="3.37584">
        <ele>288</ele>
        <time>2026-05-12T07:36:54.000Z</time>
      </trkpt>
      <trkpt lat="43.63053" lon="3.37578">
        <ele>290</ele>
        <time>2026-05-12T07:37:07.000Z</time>
      </trkpt>
      <trkpt lat="43.63048" lon="3.37568">
        <ele>293</ele>
        <time>2026-05-12T07:37:22.000Z</time>
      </trkpt>
      <trkpt lat="43.63042" lon="3.37558">
        <ele>295</ele>
        <time>2026-05-12T07:37:38.000Z</time>
      </trkpt>
      <trkpt lat="43.6304" lon="3.37547">
        <ele>297</ele>
        <time>2026-05-12T07:37:50.000Z</time>
      </trkpt>
      <trkpt lat="43.63033" lon="3.37539">
        <ele>300</ele>
        <time>2026-05-12T07:38:05.000Z</time>
      </trkpt>
      <trkpt lat="43.63023" lon="3.37535">
        <ele>302</ele>
        <time>2026-05-12T07:38:20.000Z</time>
      </trkpt>
      <trkpt lat="43.63015" lon="3.37529">
        <ele>304</ele>
        <time>2026-05-12T07:38:33.000Z</time>
      </trkpt>
      <trkpt lat="43.63004" lon="3.37526">
        <ele>306</ele>
        <time>2026-05-12T07:38:46.000Z</time>
      </trkpt>
      <trkpt lat="43.62995" lon="3.37523">
        <ele>309</ele>
        <time>2026-05-12T07:38:58.000Z</time>
      </trkpt>
      <trkpt lat="43.62991" lon="3.37515">
        <ele>310</ele>
        <time>2026-05-12T07:39:09.000Z</time>
      </trkpt>
      <trkpt lat="43.62984" lon="3.37507">
        <ele>313</ele>
        <time>2026-05-12T07:39:24.000Z</time>
      </trkpt>
      <trkpt lat="43.62976" lon="3.3751">
        <ele>316</ele>
        <time>2026-05-12T07:39:39.000Z</time>
      </trkpt>
      <trkpt lat="43.62968" lon="3.37511">
        <ele>318</ele>
        <time>2026-05-12T07:39:53.000Z</time>
      </trkpt>
      <trkpt lat="43.6296" lon="3.37509">
        <ele>321</ele>
        <time>2026-05-12T07:40:06.000Z</time>
      </trkpt>
      <trkpt lat="43.62957" lon="3.37496">
        <ele>324</ele>
        <time>2026-05-12T07:40:20.000Z</time>
      </trkpt>
      <trkpt lat="43.62952" lon="3.37487">
        <ele>326</ele>
        <time>2026-05-12T07:40:33.000Z</time>
      </trkpt>
      <trkpt lat="43.62945" lon="3.37474">
        <ele>328</ele>
        <time>2026-05-12T07:40:48.000Z</time>
      </trkpt>
      <trkpt lat="43.6294" lon="3.37464">
        <ele>331</ele>
        <time>2026-05-12T07:40:58.000Z</time>
      </trkpt>
      <trkpt lat="43.62939" lon="3.37454">
        <ele>334</ele>
        <time>2026-05-12T07:41:10.000Z</time>
      </trkpt>
      <trkpt lat="43.62939" lon="3.37442">
        <ele>336</ele>
        <time>2026-05-12T07:41:22.000Z</time>
      </trkpt>
      <trkpt lat="43.62947" lon="3.3743">
        <ele>336</ele>
        <time>2026-05-12T07:41:34.000Z</time>
      </trkpt>
      <trkpt lat="43.62954" lon="3.37423">
        <ele>339</ele>
        <time>2026-05-12T07:41:47.000Z</time>
      </trkpt>
      <trkpt lat="43.62957" lon="3.37413">
        <ele>342</ele>
        <time>2026-05-12T07:42:01.000Z</time>
      </trkpt>
      <trkpt lat="43.62959" lon="3.374">
        <ele>345</ele>
        <time>2026-05-12T07:42:15.000Z</time>
      </trkpt>
      <trkpt lat="43.62953" lon="3.37399">
        <ele>348</ele>
        <time>2026-05-12T07:42:29.000Z</time>
      </trkpt>
      <trkpt lat="43.62941" lon="3.37401">
        <ele>350</ele>
        <time>2026-05-12T07:42:44.000Z</time>
      </trkpt>
      <trkpt lat="43.62933" lon="3.37399">
        <ele>353</ele>
        <time>2026-05-12T07:43:01.000Z</time>
      </trkpt>
      <trkpt lat="43.62923" lon="3.37405">
        <ele>357</ele>
        <time>2026-05-12T07:43:17.000Z</time>
      </trkpt>
      <trkpt lat="43.6292" lon="3.37401">
        <ele>358</ele>
        <time>2026-05-12T07:43:24.000Z</time>
      </trkpt>
      <trkpt lat="43.62915" lon="3.37401">
        <ele>360</ele>
        <time>2026-05-12T07:43:37.000Z</time>
      </trkpt>
      <trkpt lat="43.62912" lon="3.37394">
        <ele>363</ele>
        <time>2026-05-12T07:43:52.000Z</time>
      </trkpt>
      <trkpt lat="43.62917" lon="3.37387">
        <ele>365</ele>
        <time>2026-05-12T07:44:04.000Z</time>
      </trkpt>
      <trkpt lat="43.62923" lon="3.3738">
        <ele>367</ele>
        <time>2026-05-12T07:44:16.000Z</time>
      </trkpt>
      <trkpt lat="43.62926" lon="3.37369">
        <ele>370</ele>
        <time>2026-05-12T07:44:30.000Z</time>
      </trkpt>
      <trkpt lat="43.62927" lon="3.37358">
        <ele>373</ele>
        <time>2026-05-12T07:44:43.000Z</time>
      </trkpt>
      <trkpt lat="43.62928" lon="3.37347">
        <ele>375</ele>
        <time>2026-05-12T07:44:56.000Z</time>
      </trkpt>
      <trkpt lat="43.62926" lon="3.37338">
        <ele>377</ele>
        <time>2026-05-12T07:45:07.000Z</time>
      </trkpt>
      <trkpt lat="43.62926" lon="3.3733">
        <ele>380</ele>
        <time>2026-05-12T07:45:17.000Z</time>
      </trkpt>
      <trkpt lat="43.62925" lon="3.37317">
        <ele>383</ele>
        <time>2026-05-12T07:45:30.000Z</time>
      </trkpt>
      <trkpt lat="43.62927" lon="3.37307">
        <ele>387</ele>
        <time>2026-05-12T07:45:43.000Z</time>
      </trkpt>
      <trkpt lat="43.62915" lon="3.37317">
        <ele>390</ele>
        <time>2026-05-12T07:45:59.000Z</time>
      </trkpt>
      <trkpt lat="43.62903" lon="3.37323">
        <ele>393</ele>
        <time>2026-05-12T07:46:14.000Z</time>
      </trkpt>
      <trkpt lat="43.62895" lon="3.37334">
        <ele>395</ele>
        <time>2026-05-12T07:46:30.000Z</time>
      </trkpt>
      <trkpt lat="43.62886" lon="3.37339">
        <ele>396</ele>
        <time>2026-05-12T07:46:43.000Z</time>
      </trkpt>
      <trkpt lat="43.62876" lon="3.37337">
        <ele>400</ele>
        <time>2026-05-12T07:46:57.000Z</time>
      </trkpt>
      <trkpt lat="43.62868" lon="3.37334">
        <ele>403</ele>
        <time>2026-05-12T07:47:10.000Z</time>
      </trkpt>
      <trkpt lat="43.62861" lon="3.37337">
        <ele>406</ele>
        <time>2026-05-12T07:47:22.000Z</time>
      </trkpt>
      <trkpt lat="43.62851" lon="3.37343">
        <ele>409</ele>
        <time>2026-05-12T07:47:38.000Z</time>
      </trkpt>
      <trkpt lat="43.62843" lon="3.37344">
        <ele>412</ele>
        <time>2026-05-12T07:47:50.000Z</time>
      </trkpt>
      <trkpt lat="43.62834" lon="3.37351">
        <ele>414</ele>
        <time>2026-05-12T07:48:04.000Z</time>
      </trkpt>
      <trkpt lat="43.62829" lon="3.3736">
        <ele>417</ele>
        <time>2026-05-12T07:48:15.000Z</time>
      </trkpt>
      <trkpt lat="43.62822" lon="3.37369">
        <ele>420</ele>
        <time>2026-05-12T07:48:28.000Z</time>
      </trkpt>
      <trkpt lat="43.62817" lon="3.37379">
        <ele>421</ele>
        <time>2026-05-12T07:48:40.000Z</time>
      </trkpt>
      <trkpt lat="43.62813" lon="3.37391">
        <ele>424</ele>
        <time>2026-05-12T07:48:52.000Z</time>
      </trkpt>
      <trkpt lat="43.62809" lon="3.37391">
        <ele>427</ele>
        <time>2026-05-12T07:49:03.000Z</time>
      </trkpt>
      <trkpt lat="43.62802" lon="3.37384">
        <ele>430</ele>
        <time>2026-05-12T07:49:17.000Z</time>
      </trkpt>
      <trkpt lat="43.628" lon="3.37378">
        <ele>432</ele>
        <time>2026-05-12T07:49:30.000Z</time>
      </trkpt>
      <trkpt lat="43.628" lon="3.37378">
        <ele>430</ele>
        <time>2026-05-12T07:49:40.000Z</time>
      </trkpt>
      <trkpt lat="43.628" lon="3.37377">
        <ele>430</ele>
        <time>2026-05-12T07:50:21.000Z</time>
      </trkpt>
      <trkpt lat="43.628" lon="3.37377">
        <ele>431</ele>
        <time>2026-05-12T07:50:46.000Z</time>
      </trkpt>
      <trkpt lat="43.628" lon="3.37377">
        <ele>430</ele>
        <time>2026-05-12T07:50:54.000Z</time>
      </trkpt>
      <trkpt lat="43.628" lon="3.37377">
        <ele>430</ele>
        <time>2026-05-12T07:51:29.000Z</time>
      </trkpt>
      <trkpt lat="43.62799" lon="3.37377">
        <ele>430</ele>
        <time>2026-05-12T07:52:03.000Z</time>
      </trkpt>
      <trkpt lat="43.628" lon="3.37377">
        <ele>430</ele>
        <time>2026-05-12T07:52:16.000Z</time>
      </trkpt>
      <trkpt lat="43.628" lon="3.37378">
        <ele>432</ele>
        <time>2026-05-12T07:52:19.000Z</time>
      </trkpt>
      <trkpt lat="43.62797" lon="3.37372">
        <ele>430</ele>
        <time>2026-05-12T07:52:37.000Z</time>
      </trkpt>
      <trkpt lat="43.62796" lon="3.37367">
        <ele>430</ele>
        <time>2026-05-12T07:52:51.000Z</time>
      </trkpt>
      <trkpt lat="43.62796" lon="3.37364">
        <ele>431</ele>
        <time>2026-05-12T07:53:19.000Z</time>
      </trkpt>
      <trkpt lat="43.62795" lon="3.37364">
        <ele>431</ele>
        <time>2026-05-12T07:53:58.000Z</time>
      </trkpt>
      <trkpt lat="43.62796" lon="3.37366">
        <ele>431</ele>
        <time>2026-05-12T07:54:28.000Z</time>
      </trkpt>
      <trkpt lat="43.62795" lon="3.37367">
        <ele>430</ele>
        <time>2026-05-12T07:54:52.000Z</time>
      </trkpt>
      <trkpt lat="43.62794" lon="3.37365">
        <ele>430</ele>
        <time>2026-05-12T07:55:10.000Z</time>
      </trkpt>
      <trkpt lat="43.62796" lon="3.37358">
        <ele>431</ele>
        <time>2026-05-12T07:55:21.000Z</time>
      </trkpt>
      <trkpt lat="43.62796" lon="3.3734">
        <ele>431</ele>
        <time>2026-05-12T07:55:36.000Z</time>
      </trkpt>
      <trkpt lat="43.62802" lon="3.37326">
        <ele>434</ele>
        <time>2026-05-12T07:55:50.000Z</time>
      </trkpt>
      <trkpt lat="43.62806" lon="3.37317">
        <ele>436</ele>
        <time>2026-05-12T07:56:03.000Z</time>
      </trkpt>
      <trkpt lat="43.62811" lon="3.37303">
        <ele>440</ele>
        <time>2026-05-12T07:56:18.000Z</time>
      </trkpt>
      <trkpt lat="43.62813" lon="3.37289">
        <ele>440</ele>
        <time>2026-05-12T07:56:33.000Z</time>
      </trkpt>
      <trkpt lat="43.62817" lon="3.37277">
        <ele>441</ele>
        <time>2026-05-12T07:56:45.000Z</time>
      </trkpt>
      <trkpt lat="43.62822" lon="3.37267">
        <ele>443</ele>
        <time>2026-05-12T07:56:58.000Z</time>
      </trkpt>
      <trkpt lat="43.62826" lon="3.37252">
        <ele>446</ele>
        <time>2026-05-12T07:57:11.000Z</time>
      </trkpt>
      <trkpt lat="43.62829" lon="3.37248">
        <ele>446</ele>
        <time>2026-05-12T07:57:29.000Z</time>
      </trkpt>
      <trkpt lat="43.6283" lon="3.37242">
        <ele>444</ele>
        <time>2026-05-12T07:57:38.000Z</time>
      </trkpt>
      <trkpt lat="43.6283" lon="3.37241">
        <ele>446</ele>
        <time>2026-05-12T07:57:41.000Z</time>
      </trkpt>
      <trkpt lat="43.62832" lon="3.37235">
        <ele>442</ele>
        <time>2026-05-12T07:57:53.000Z</time>
      </trkpt>
      <trkpt lat="43.62831" lon="3.37234">
        <ele>445</ele>
        <time>2026-05-12T07:58:14.000Z</time>
      </trkpt>
      <trkpt lat="43.62832" lon="3.37232">
        <ele>447</ele>
        <time>2026-05-12T07:58:31.000Z</time>
      </trkpt>
      <trkpt lat="43.62835" lon="3.37226">
        <ele>447</ele>
        <time>2026-05-12T07:58:47.000Z</time>
      </trkpt>
      <trkpt lat="43.62835" lon="3.37223">
        <ele>447</ele>
        <time>2026-05-12T07:59:02.000Z</time>
      </trkpt>
      <trkpt lat="43.62838" lon="3.37218">
        <ele>450</ele>
        <time>2026-05-12T07:59:20.000Z</time>
      </trkpt>
      <trkpt lat="43.62842" lon="3.37212">
        <ele>451</ele>
        <time>2026-05-12T07:59:36.000Z</time>
      </trkpt>
      <trkpt lat="43.62847" lon="3.37199">
        <ele>452</ele>
        <time>2026-05-12T07:59:49.000Z</time>
      </trkpt>
      <trkpt lat="43.62851" lon="3.37182">
        <ele>455</ele>
        <time>2026-05-12T08:00:03.000Z</time>
      </trkpt>
      <trkpt lat="43.62855" lon="3.37169">
        <ele>457</ele>
        <time>2026-05-12T08:00:18.000Z</time>
      </trkpt>
      <trkpt lat="43.62857" lon="3.37159">
        <ele>456</ele>
        <time>2026-05-12T08:00:27.000Z</time>
      </trkpt>
      <trkpt lat="43.62858" lon="3.37153">
        <ele>456</ele>
        <time>2026-05-12T08:00:32.000Z</time>
      </trkpt>
      <trkpt lat="43.62859" lon="3.3715">
        <ele>457</ele>
        <time>2026-05-12T08:00:34.000Z</time>
      </trkpt>
      <trkpt lat="43.62861" lon="3.37139">
        <ele>460</ele>
        <time>2026-05-12T08:00:47.000Z</time>
      </trkpt>
      <trkpt lat="43.62863" lon="3.37125">
        <ele>459</ele>
        <time>2026-05-12T08:01:00.000Z</time>
      </trkpt>
      <trkpt lat="43.6287" lon="3.37111">
        <ele>458</ele>
        <time>2026-05-12T08:01:14.000Z</time>
      </trkpt>
      <trkpt lat="43.62875" lon="3.37102">
        <ele>460</ele>
        <time>2026-05-12T08:01:27.000Z</time>
      </trkpt>
      <trkpt lat="43.62875" lon="3.37102">
        <ele>459</ele>
        <time>2026-05-12T08:01:36.000Z</time>
      </trkpt>
      <trkpt lat="43.62875" lon="3.37103">
        <ele>459</ele>
        <time>2026-05-12T08:02:01.000Z</time>
      </trkpt>
      <trkpt lat="43.62875" lon="3.37103">
        <ele>461</ele>
        <time>2026-05-12T08:02:22.000Z</time>
      </trkpt>
      <trkpt lat="43.62875" lon="3.37103">
        <ele>460</ele>
        <time>2026-05-12T08:02:46.000Z</time>
      </trkpt>
      <trkpt lat="43.62876" lon="3.37104">
        <ele>460</ele>
        <time>2026-05-12T08:03:15.000Z</time>
      </trkpt>
      <trkpt lat="43.62875" lon="3.37101">
        <ele>460</ele>
        <time>2026-05-12T08:03:39.000Z</time>
      </trkpt>
      <trkpt lat="43.62878" lon="3.3709">
        <ele>463</ele>
        <time>2026-05-12T08:03:50.000Z</time>
      </trkpt>
      <trkpt lat="43.62878" lon="3.37089">
        <ele>463</ele>
        <time>2026-05-12T08:03:51.000Z</time>
      </trkpt>
      <trkpt lat="43.62879" lon="3.37074">
        <ele>463</ele>
        <time>2026-05-12T08:04:05.000Z</time>
      </trkpt>
      <trkpt lat="43.62883" lon="3.37062">
        <ele>464</ele>
        <time>2026-05-12T08:04:19.000Z</time>
      </trkpt>
      <trkpt lat="43.62885" lon="3.37048">
        <ele>466</ele>
        <time>2026-05-12T08:04:34.000Z</time>
      </trkpt>
      <trkpt lat="43.62886" lon="3.3705">
        <ele>466</ele>
        <time>2026-05-12T08:04:48.000Z</time>
      </trkpt>
      <trkpt lat="43.62886" lon="3.37046">
        <ele>467</ele>
        <time>2026-05-12T08:05:10.000Z</time>
      </trkpt>
      <trkpt lat="43.62885" lon="3.37033">
        <ele>468</ele>
        <time>2026-05-12T08:05:23.000Z</time>
      </trkpt>
      <trkpt lat="43.62886" lon="3.37019">
        <ele>469</ele>
        <time>2026-05-12T08:05:37.000Z</time>
      </trkpt>
      <trkpt lat="43.62885" lon="3.37005">
        <ele>471</ele>
        <time>2026-05-12T08:05:52.000Z</time>
      </trkpt>
      <trkpt lat="43.62884" lon="3.36992">
        <ele>474</ele>
        <time>2026-05-12T08:06:06.000Z</time>
      </trkpt>
      <trkpt lat="43.62882" lon="3.3698">
        <ele>476</ele>
        <time>2026-05-12T08:06:21.000Z</time>
      </trkpt>
      <trkpt lat="43.62878" lon="3.3697">
        <ele>479</ele>
        <time>2026-05-12T08:06:37.000Z</time>
      </trkpt>
      <trkpt lat="43.62871" lon="3.36955">
        <ele>478</ele>
        <time>2026-05-12T08:06:56.000Z</time>
      </trkpt>
      <trkpt lat="43.6287" lon="3.36954">
        <ele>478</ele>
        <time>2026-05-12T08:06:57.000Z</time>
      </trkpt>
      <trkpt lat="43.62867" lon="3.36949">
        <ele>477</ele>
        <time>2026-05-12T08:07:10.000Z</time>
      </trkpt>
      <trkpt lat="43.62865" lon="3.36947">
        <ele>477</ele>
        <time>2026-05-12T08:07:39.000Z</time>
      </trkpt>
      <trkpt lat="43.62867" lon="3.36948">
        <ele>477</ele>
        <time>2026-05-12T08:07:59.000Z</time>
      </trkpt>
      <trkpt lat="43.62872" lon="3.36939">
        <ele>477</ele>
        <time>2026-05-12T08:08:11.000Z</time>
      </trkpt>
      <trkpt lat="43.62879" lon="3.36928">
        <ele>477</ele>
        <time>2026-05-12T08:08:25.000Z</time>
      </trkpt>
      <trkpt lat="43.62881" lon="3.36922">
        <ele>479</ele>
        <time>2026-05-12T08:08:29.000Z</time>
      </trkpt>
      <trkpt lat="43.62882" lon="3.36911">
        <ele>478</ele>
        <time>2026-05-12T08:08:41.000Z</time>
      </trkpt>
      <trkpt lat="43.62884" lon="3.36896">
        <ele>478</ele>
        <time>2026-05-12T08:08:54.000Z</time>
      </trkpt>
      <trkpt lat="43.62887" lon="3.36875">
        <ele>480</ele>
        <time>2026-05-12T08:09:11.000Z</time>
      </trkpt>
      <trkpt lat="43.62885" lon="3.36861">
        <ele>481</ele>
        <time>2026-05-12T08:09:27.000Z</time>
      </trkpt>
      <trkpt lat="43.62884" lon="3.36855">
        <ele>485</ele>
        <time>2026-05-12T08:09:36.000Z</time>
      </trkpt>
      <trkpt lat="43.62884" lon="3.36855">
        <ele>485</ele>
        <time>2026-05-12T08:09:37.000Z</time>
      </trkpt>
      <trkpt lat="43.62884" lon="3.36846">
        <ele>487</ele>
        <time>2026-05-12T08:09:50.000Z</time>
      </trkpt>
      <trkpt lat="43.62883" lon="3.36836">
        <ele>487</ele>
        <time>2026-05-12T08:10:06.000Z</time>
      </trkpt>
      <trkpt lat="43.62882" lon="3.36835">
        <ele>486</ele>
        <time>2026-05-12T08:10:09.000Z</time>
      </trkpt>
      <trkpt lat="43.62878" lon="3.36839">
        <ele>483</ele>
        <time>2026-05-12T08:10:24.000Z</time>
      </trkpt>
      <trkpt lat="43.62874" lon="3.36845">
        <ele>479</ele>
        <time>2026-05-12T08:10:37.000Z</time>
      </trkpt>
      <trkpt lat="43.62871" lon="3.36852">
        <ele>477</ele>
        <time>2026-05-12T08:10:51.000Z</time>
      </trkpt>
      <trkpt lat="43.62869" lon="3.36857">
        <ele>475</ele>
        <time>2026-05-12T08:11:03.000Z</time>
      </trkpt>
      <trkpt lat="43.62866" lon="3.36864">
        <ele>473</ele>
        <time>2026-05-12T08:11:19.000Z</time>
      </trkpt>
      <trkpt lat="43.62863" lon="3.36865">
        <ele>470</ele>
        <time>2026-05-12T08:11:36.000Z</time>
      </trkpt>
      <trkpt lat="43.62859" lon="3.36866">
        <ele>467</ele>
        <time>2026-05-12T08:11:53.000Z</time>
      </trkpt>
      <trkpt lat="43.62856" lon="3.36872">
        <ele>464</ele>
        <time>2026-05-12T08:12:07.000Z</time>
      </trkpt>
      <trkpt lat="43.62853" lon="3.36874">
        <ele>461</ele>
        <time>2026-05-12T08:12:22.000Z</time>
      </trkpt>
      <trkpt lat="43.62846" lon="3.36874">
        <ele>457</ele>
        <time>2026-05-12T08:12:35.000Z</time>
      </trkpt>
      <trkpt lat="43.62839" lon="3.36882">
        <ele>454</ele>
        <time>2026-05-12T08:12:49.000Z</time>
      </trkpt>
      <trkpt lat="43.62831" lon="3.36889">
        <ele>451</ele>
        <time>2026-05-12T08:13:00.000Z</time>
      </trkpt>
      <trkpt lat="43.62822" lon="3.36899">
        <ele>448</ele>
        <time>2026-05-12T08:13:12.000Z</time>
      </trkpt>
      <trkpt lat="43.62817" lon="3.36916">
        <ele>446</ele>
        <time>2026-05-12T08:13:25.000Z</time>
      </trkpt>
      <trkpt lat="43.62814" lon="3.36927">
        <ele>442</ele>
        <time>2026-05-12T08:13:34.000Z</time>
      </trkpt>
      <trkpt lat="43.62817" lon="3.3694">
        <ele>439</ele>
        <time>2026-05-12T08:13:50.000Z</time>
      </trkpt>
      <trkpt lat="43.62813" lon="3.36944">
        <ele>436</ele>
        <time>2026-05-12T08:14:02.000Z</time>
      </trkpt>
      <trkpt lat="43.62811" lon="3.36955">
        <ele>433</ele>
        <time>2026-05-12T08:14:12.000Z</time>
      </trkpt>
      <trkpt lat="43.62809" lon="3.36966">
        <ele>430</ele>
        <time>2026-05-12T08:14:22.000Z</time>
      </trkpt>
      <trkpt lat="43.62808" lon="3.3697">
        <ele>429</ele>
        <time>2026-05-12T08:14:25.000Z</time>
      </trkpt>
      <trkpt lat="43.62805" lon="3.36983">
        <ele>425</ele>
        <time>2026-05-12T08:14:37.000Z</time>
      </trkpt>
      <trkpt lat="43.62803" lon="3.36992">
        <ele>422</ele>
        <time>2026-05-12T08:14:53.000Z</time>
      </trkpt>
      <trkpt lat="43.62799" lon="3.36993">
        <ele>420</ele>
        <time>2026-05-12T08:15:10.000Z</time>
      </trkpt>
      <trkpt lat="43.62795" lon="3.36998">
        <ele>416</ele>
        <time>2026-05-12T08:15:23.000Z</time>
      </trkpt>
      <trkpt lat="43.6279" lon="3.36992">
        <ele>413</ele>
        <time>2026-05-12T08:15:37.000Z</time>
      </trkpt>
      <trkpt lat="43.62784" lon="3.3699">
        <ele>410</ele>
        <time>2026-05-12T08:15:50.000Z</time>
      </trkpt>
      <trkpt lat="43.62783" lon="3.36989">
        <ele>410</ele>
        <time>2026-05-12T08:15:51.000Z</time>
      </trkpt>
      <trkpt lat="43.62781" lon="3.36986">
        <ele>409</ele>
        <time>2026-05-12T08:15:56.000Z</time>
      </trkpt>
      <trkpt lat="43.62775" lon="3.36981">
        <ele>406</ele>
        <time>2026-05-12T08:16:07.000Z</time>
      </trkpt>
      <trkpt lat="43.62768" lon="3.36975">
        <ele>402</ele>
        <time>2026-05-12T08:16:19.000Z</time>
      </trkpt>
      <trkpt lat="43.62762" lon="3.3697">
        <ele>399</ele>
        <time>2026-05-12T08:16:31.000Z</time>
      </trkpt>
      <trkpt lat="43.62756" lon="3.3696">
        <ele>396</ele>
        <time>2026-05-12T08:16:45.000Z</time>
      </trkpt>
      <trkpt lat="43.62751" lon="3.36955">
        <ele>393</ele>
        <time>2026-05-12T08:16:58.000Z</time>
      </trkpt>
      <trkpt lat="43.62743" lon="3.36954">
        <ele>390</ele>
        <time>2026-05-12T08:17:13.000Z</time>
      </trkpt>
      <trkpt lat="43.62737" lon="3.36955">
        <ele>387</ele>
        <time>2026-05-12T08:17:28.000Z</time>
      </trkpt>
      <trkpt lat="43.62732" lon="3.3695">
        <ele>383</ele>
        <time>2026-05-12T08:17:42.000Z</time>
      </trkpt>
      <trkpt lat="43.62727" lon="3.36958">
        <ele>381</ele>
        <time>2026-05-12T08:17:56.000Z</time>
      </trkpt>
      <trkpt lat="43.62722" lon="3.36955">
        <ele>377</ele>
        <time>2026-05-12T08:18:09.000Z</time>
      </trkpt>
      <trkpt lat="43.62718" lon="3.36946">
        <ele>375</ele>
        <time>2026-05-12T08:18:21.000Z</time>
      </trkpt>
      <trkpt lat="43.62711" lon="3.36935">
        <ele>372</ele>
        <time>2026-05-12T08:18:36.000Z</time>
      </trkpt>
      <trkpt lat="43.62708" lon="3.36924">
        <ele>370</ele>
        <time>2026-05-12T08:18:48.000Z</time>
      </trkpt>
      <trkpt lat="43.62706" lon="3.36916">
        <ele>366</ele>
        <time>2026-05-12T08:18:59.000Z</time>
      </trkpt>
      <trkpt lat="43.62704" lon="3.36903">
        <ele>364</ele>
        <time>2026-05-12T08:19:13.000Z</time>
      </trkpt>
      <trkpt lat="43.62701" lon="3.36896">
        <ele>361</ele>
        <time>2026-05-12T08:19:25.000Z</time>
      </trkpt>
      <trkpt lat="43.62693" lon="3.369">
        <ele>359</ele>
        <time>2026-05-12T08:19:36.000Z</time>
      </trkpt>
      <trkpt lat="43.62687" lon="3.36902">
        <ele>357</ele>
        <time>2026-05-12T08:19:47.000Z</time>
      </trkpt>
      <trkpt lat="43.62682" lon="3.36905">
        <ele>355</ele>
        <time>2026-05-12T08:19:57.000Z</time>
      </trkpt>
      <trkpt lat="43.62675" lon="3.36909">
        <ele>352</ele>
        <time>2026-05-12T08:20:11.000Z</time>
      </trkpt>
      <trkpt lat="43.62674" lon="3.36902">
        <ele>350</ele>
        <time>2026-05-12T08:20:24.000Z</time>
      </trkpt>
      <trkpt lat="43.62676" lon="3.36888">
        <ele>348</ele>
        <time>2026-05-12T08:20:37.000Z</time>
      </trkpt>
      <trkpt lat="43.62676" lon="3.36874">
        <ele>346</ele>
        <time>2026-05-12T08:20:51.000Z</time>
      </trkpt>
      <trkpt lat="43.62674" lon="3.36861">
        <ele>344</ele>
        <time>2026-05-12T08:21:03.000Z</time>
      </trkpt>
      <trkpt lat="43.62671" lon="3.36845">
        <ele>342</ele>
        <time>2026-05-12T08:21:16.000Z</time>
      </trkpt>
      <trkpt lat="43.6267" lon="3.3683">
        <ele>339</ele>
        <time>2026-05-12T08:21:29.000Z</time>
      </trkpt>
      <trkpt lat="43.62671" lon="3.36808">
        <ele>338</ele>
        <time>2026-05-12T08:21:45.000Z</time>
      </trkpt>
      <trkpt lat="43.62666" lon="3.36795">
        <ele>336</ele>
        <time>2026-05-12T08:21:58.000Z</time>
      </trkpt>
      <trkpt lat="43.6266" lon="3.36774">
        <ele>335</ele>
        <time>2026-05-12T08:22:14.000Z</time>
      </trkpt>
      <trkpt lat="43.62658" lon="3.36764">
        <ele>335</ele>
        <time>2026-05-12T08:22:28.000Z</time>
      </trkpt>
      <trkpt lat="43.62653" lon="3.3674">
        <ele>335</ele>
        <time>2026-05-12T08:22:43.000Z</time>
      </trkpt>
      <trkpt lat="43.6265" lon="3.36728">
        <ele>334</ele>
        <time>2026-05-12T08:22:51.000Z</time>
      </trkpt>
      <trkpt lat="43.6265" lon="3.36724">
        <ele>334</ele>
        <time>2026-05-12T08:22:55.000Z</time>
      </trkpt>
      <trkpt lat="43.62645" lon="3.36711">
        <ele>332</ele>
        <time>2026-05-12T08:23:08.000Z</time>
      </trkpt>
      <trkpt lat="43.6264" lon="3.367">
        <ele>332</ele>
        <time>2026-05-12T08:23:20.000Z</time>
      </trkpt>
      <trkpt lat="43.62637" lon="3.36687">
        <ele>330</ele>
        <time>2026-05-12T08:23:32.000Z</time>
      </trkpt>
      <trkpt lat="43.62635" lon="3.36672">
        <ele>330</ele>
        <time>2026-05-12T08:23:44.000Z</time>
      </trkpt>
      <trkpt lat="43.62633" lon="3.36643">
        <ele>330</ele>
        <time>2026-05-12T08:24:01.000Z</time>
      </trkpt>
      <trkpt lat="43.62631" lon="3.36635">
        <ele>329</ele>
        <time>2026-05-12T08:24:07.000Z</time>
      </trkpt>
      <trkpt lat="43.62628" lon="3.36609">
        <ele>328</ele>
        <time>2026-05-12T08:24:23.000Z</time>
      </trkpt>
      <trkpt lat="43.62624" lon="3.36595">
        <ele>327</ele>
        <time>2026-05-12T08:24:32.000Z</time>
      </trkpt>
      <trkpt lat="43.62621" lon="3.36585">
        <ele>327</ele>
        <time>2026-05-12T08:24:39.000Z</time>
      </trkpt>
      <trkpt lat="43.62617" lon="3.36575">
        <ele>327</ele>
        <time>2026-05-12T08:24:46.000Z</time>
      </trkpt>
      <trkpt lat="43.62613" lon="3.36562">
        <ele>328</ele>
        <time>2026-05-12T08:24:54.000Z</time>
      </trkpt>
      <trkpt lat="43.62612" lon="3.36557">
        <ele>329</ele>
        <time>2026-05-12T08:24:57.000Z</time>
      </trkpt>
      <trkpt lat="43.62611" lon="3.36538">
        <ele>330</ele>
        <time>2026-05-12T08:25:10.000Z</time>
      </trkpt>
      <trkpt lat="43.62611" lon="3.36517">
        <ele>329</ele>
        <time>2026-05-12T08:25:23.000Z</time>
      </trkpt>
      <trkpt lat="43.62609" lon="3.36506">
        <ele>330</ele>
        <time>2026-05-12T08:25:30.000Z</time>
      </trkpt>
      <trkpt lat="43.62606" lon="3.36489">
        <ele>330</ele>
        <time>2026-05-12T08:25:43.000Z</time>
      </trkpt>
      <trkpt lat="43.62601" lon="3.36469">
        <ele>328</ele>
        <time>2026-05-12T08:25:57.000Z</time>
      </trkpt>
      <trkpt lat="43.626" lon="3.36452">
        <ele>327</ele>
        <time>2026-05-12T08:26:08.000Z</time>
      </trkpt>
      <trkpt lat="43.62607" lon="3.36435">
        <ele>324</ele>
        <time>2026-05-12T08:26:22.000Z</time>
      </trkpt>
      <trkpt lat="43.62616" lon="3.36424">
        <ele>323</ele>
        <time>2026-05-12T08:26:33.000Z</time>
      </trkpt>
      <trkpt lat="43.62631" lon="3.36405">
        <ele>323</ele>
        <time>2026-05-12T08:26:48.000Z</time>
      </trkpt>
      <trkpt lat="43.62643" lon="3.36391">
        <ele>323</ele>
        <time>2026-05-12T08:27:01.000Z</time>
      </trkpt>
      <trkpt lat="43.62652" lon="3.36376">
        <ele>322</ele>
        <time>2026-05-12T08:27:15.000Z</time>
      </trkpt>
      <trkpt lat="43.62655" lon="3.36359">
        <ele>320</ele>
        <time>2026-05-12T08:27:27.000Z</time>
      </trkpt>
      <trkpt lat="43.62663" lon="3.36337">
        <ele>318</ele>
        <time>2026-05-12T08:27:42.000Z</time>
      </trkpt>
      <trkpt lat="43.62665" lon="3.36332">
        <ele>317</ele>
        <time>2026-05-12T08:27:46.000Z</time>
      </trkpt>
      <trkpt lat="43.62672" lon="3.36323">
        <ele>317</ele>
        <time>2026-05-12T08:27:59.000Z</time>
      </trkpt>
      <trkpt lat="43.62673" lon="3.36307">
        <ele>316</ele>
        <time>2026-05-12T08:28:07.000Z</time>
      </trkpt>
      <trkpt lat="43.62659" lon="3.36286">
        <ele>314</ele>
        <time>2026-05-12T08:28:24.000Z</time>
      </trkpt>
      <trkpt lat="43.62642" lon="3.36268">
        <ele>312</ele>
        <time>2026-05-12T08:28:42.000Z</time>
      </trkpt>
      <trkpt lat="43.62632" lon="3.36256">
        <ele>310</ele>
        <time>2026-05-12T08:28:56.000Z</time>
      </trkpt>
      <trkpt lat="43.62623" lon="3.36244">
        <ele>309</ele>
        <time>2026-05-12T08:29:09.000Z</time>
      </trkpt>
      <trkpt lat="43.62616" lon="3.36235">
        <ele>306</ele>
        <time>2026-05-12T08:29:23.000Z</time>
      </trkpt>
      <trkpt lat="43.62615" lon="3.36231">
        <ele>305</ele>
        <time>2026-05-12T08:29:32.000Z</time>
      </trkpt>
      <trkpt lat="43.62612" lon="3.36211">
        <ele>303</ele>
        <time>2026-05-12T08:29:47.000Z</time>
      </trkpt>
      <trkpt lat="43.62611" lon="3.36192">
        <ele>301</ele>
        <time>2026-05-12T08:30:02.000Z</time>
      </trkpt>
      <trkpt lat="43.62611" lon="3.36175">
        <ele>298</ele>
        <time>2026-05-12T08:30:16.000Z</time>
      </trkpt>
      <trkpt lat="43.62613" lon="3.36154">
        <ele>298</ele>
        <time>2026-05-12T08:30:31.000Z</time>
      </trkpt>
      <trkpt lat="43.62613" lon="3.36152">
        <ele>297</ele>
        <time>2026-05-12T08:30:33.000Z</time>
      </trkpt>
      <trkpt lat="43.62615" lon="3.36143">
        <ele>296</ele>
        <time>2026-05-12T08:30:40.000Z</time>
      </trkpt>
      <trkpt lat="43.62617" lon="3.36125">
        <ele>294</ele>
        <time>2026-05-12T08:30:54.000Z</time>
      </trkpt>
      <trkpt lat="43.62617" lon="3.36117">
        <ele>295</ele>
        <time>2026-05-12T08:30:58.000Z</time>
      </trkpt>
      <trkpt lat="43.62616" lon="3.361">
        <ele>295</ele>
        <time>2026-05-12T08:31:07.000Z</time>
      </trkpt>
      <trkpt lat="43.62614" lon="3.36088">
        <ele>294</ele>
        <time>2026-05-12T08:31:16.000Z</time>
      </trkpt>
      <trkpt lat="43.62609" lon="3.36073">
        <ele>292</ele>
        <time>2026-05-12T08:31:30.000Z</time>
      </trkpt>
      <trkpt lat="43.62604" lon="3.36064">
        <ele>291</ele>
        <time>2026-05-12T08:31:37.000Z</time>
      </trkpt>
      <trkpt lat="43.62594" lon="3.36043">
        <ele>289</ele>
        <time>2026-05-12T08:31:53.000Z</time>
      </trkpt>
      <trkpt lat="43.62588" lon="3.36026">
        <ele>288</ele>
        <time>2026-05-12T08:32:07.000Z</time>
      </trkpt>
      <trkpt lat="43.62582" lon="3.36012">
        <ele>286</ele>
        <time>2026-05-12T08:32:21.000Z</time>
      </trkpt>
      <trkpt lat="43.62578" lon="3.36002">
        <ele>284</ele>
        <time>2026-05-12T08:32:32.000Z</time>
      </trkpt>
      <trkpt lat="43.62577" lon="3.35999">
        <ele>284</ele>
        <time>2026-05-12T08:32:35.000Z</time>
      </trkpt>
      <trkpt lat="43.62573" lon="3.35993">
        <ele>283</ele>
        <time>2026-05-12T08:32:40.000Z</time>
      </trkpt>
      <trkpt lat="43.62568" lon="3.35988">
        <ele>282</ele>
        <time>2026-05-12T08:32:44.000Z</time>
      </trkpt>
      <trkpt lat="43.62557" lon="3.35983">
        <ele>281</ele>
        <time>2026-05-12T08:32:58.000Z</time>
      </trkpt>
      <trkpt lat="43.62548" lon="3.3598">
        <ele>280</ele>
        <time>2026-05-12T08:33:10.000Z</time>
      </trkpt>
      <trkpt lat="43.62539" lon="3.35974">
        <ele>279</ele>
        <time>2026-05-12T08:33:22.000Z</time>
      </trkpt>
      <trkpt lat="43.62527" lon="3.35965">
        <ele>277</ele>
        <time>2026-05-12T08:33:38.000Z</time>
      </trkpt>
      <trkpt lat="43.62517" lon="3.35957">
        <ele>276</ele>
        <time>2026-05-12T08:33:51.000Z</time>
      </trkpt>
      <trkpt lat="43.62516" lon="3.35956">
        <ele>276</ele>
        <time>2026-05-12T08:33:52.000Z</time>
      </trkpt>
      <trkpt lat="43.62505" lon="3.35958">
        <ele>273</ele>
        <time>2026-05-12T08:34:06.000Z</time>
      </trkpt>
      <trkpt lat="43.62502" lon="3.35957">
        <ele>272</ele>
        <time>2026-05-12T08:34:09.000Z</time>
      </trkpt>
      <trkpt lat="43.6249" lon="3.35954">
        <ele>271</ele>
        <time>2026-05-12T08:34:24.000Z</time>
      </trkpt>
      <trkpt lat="43.62482" lon="3.35954">
        <ele>269</ele>
        <time>2026-05-12T08:34:35.000Z</time>
      </trkpt>
      <trkpt lat="43.62471" lon="3.3595">
        <ele>268</ele>
        <time>2026-05-12T08:34:49.000Z</time>
      </trkpt>
      <trkpt lat="43.62467" lon="3.3595">
        <ele>266</ele>
        <time>2026-05-12T08:35:01.000Z</time>
      </trkpt>
      <trkpt lat="43.62457" lon="3.35946">
        <ele>265</ele>
        <time>2026-05-12T08:35:13.000Z</time>
      </trkpt>
      <trkpt lat="43.62453" lon="3.35943">
        <ele>264</ele>
        <time>2026-05-12T08:35:18.000Z</time>
      </trkpt>
      <trkpt lat="43.62452" lon="3.35942">
        <ele>264</ele>
        <time>2026-05-12T08:35:20.000Z</time>
      </trkpt>
      <trkpt lat="43.62442" lon="3.35935">
        <ele>263</ele>
        <time>2026-05-12T08:35:33.000Z</time>
      </trkpt>
      <trkpt lat="43.62433" lon="3.35926">
        <ele>261</ele>
        <time>2026-05-12T08:35:47.000Z</time>
      </trkpt>
      <trkpt lat="43.62421" lon="3.35913">
        <ele>259</ele>
        <time>2026-05-12T08:36:03.000Z</time>
      </trkpt>
      <trkpt lat="43.6242" lon="3.35912">
        <ele>259</ele>
        <time>2026-05-12T08:36:04.000Z</time>
      </trkpt>
      <trkpt lat="43.6241" lon="3.3589">
        <ele>258</ele>
        <time>2026-05-12T08:36:19.000Z</time>
      </trkpt>
      <trkpt lat="43.62409" lon="3.35886">
        <ele>258</ele>
        <time>2026-05-12T08:36:22.000Z</time>
      </trkpt>
      <trkpt lat="43.62396" lon="3.35875">
        <ele>260</ele>
        <time>2026-05-12T08:36:37.000Z</time>
      </trkpt>
      <trkpt lat="43.6239" lon="3.35867">
        <ele>261</ele>
        <time>2026-05-12T08:36:48.000Z</time>
      </trkpt>
      <trkpt lat="43.62387" lon="3.35866">
        <ele>262</ele>
        <time>2026-05-12T08:37:03.000Z</time>
      </trkpt>
      <trkpt lat="43.62386" lon="3.35857">
        <ele>261</ele>
        <time>2026-05-12T08:37:16.000Z</time>
      </trkpt>
      <trkpt lat="43.62378" lon="3.35849">
        <ele>261</ele>
        <time>2026-05-12T08:37:27.000Z</time>
      </trkpt>
      <trkpt lat="43.62372" lon="3.3584">
        <ele>261</ele>
        <time>2026-05-12T08:37:35.000Z</time>
      </trkpt>
      <trkpt lat="43.62363" lon="3.3582">
        <ele>260</ele>
        <time>2026-05-12T08:37:52.000Z</time>
      </trkpt>
      <trkpt lat="43.62359" lon="3.35814">
        <ele>262</ele>
        <time>2026-05-12T08:37:58.000Z</time>
      </trkpt>
      <trkpt lat="43.62357" lon="3.35811">
        <ele>262</ele>
        <time>2026-05-12T08:38:01.000Z</time>
      </trkpt>
      <trkpt lat="43.62346" lon="3.35804">
        <ele>262</ele>
        <time>2026-05-12T08:38:14.000Z</time>
      </trkpt>
      <trkpt lat="43.62337" lon="3.35805">
        <ele>263</ele>
        <time>2026-05-12T08:38:25.000Z</time>
      </trkpt>
      <trkpt lat="43.62334" lon="3.35802">
        <ele>263</ele>
        <time>2026-05-12T08:38:39.000Z</time>
      </trkpt>
      <trkpt lat="43.62335" lon="3.35804">
        <ele>263</ele>
        <time>2026-05-12T08:38:52.000Z</time>
      </trkpt>
      <trkpt lat="43.6234" lon="3.35801">
        <ele>263</ele>
        <time>2026-05-12T08:39:06.000Z</time>
      </trkpt>
      <trkpt lat="43.62339" lon="3.35798">
        <ele>262</ele>
        <time>2026-05-12T08:39:09.000Z</time>
      </trkpt>
      <trkpt lat="43.62335" lon="3.35787">
        <ele>260</ele>
        <time>2026-05-12T08:39:24.000Z</time>
      </trkpt>
      <trkpt lat="43.62328" lon="3.3579">
        <ele>258</ele>
        <time>2026-05-12T08:39:36.000Z</time>
      </trkpt>
      <trkpt lat="43.62321" lon="3.35782">
        <ele>255</ele>
        <time>2026-05-12T08:39:50.000Z</time>
      </trkpt>
      <trkpt lat="43.62317" lon="3.35776">
        <ele>252</ele>
        <time>2026-05-12T08:40:02.000Z</time>
      </trkpt>
      <trkpt lat="43.62314" lon="3.35767">
        <ele>250</ele>
        <time>2026-05-12T08:40:15.000Z</time>
      </trkpt>
      <trkpt lat="43.62308" lon="3.35763">
        <ele>247</ele>
        <time>2026-05-12T08:40:24.000Z</time>
      </trkpt>
      <trkpt lat="43.62304" lon="3.35765">
        <ele>247</ele>
        <time>2026-05-12T08:40:29.000Z</time>
      </trkpt>
      <trkpt lat="43.62291" lon="3.35763">
        <ele>248</ele>
        <time>2026-05-12T08:40:43.000Z</time>
      </trkpt>
      <trkpt lat="43.6229" lon="3.35763">
        <ele>248</ele>
        <time>2026-05-12T08:40:44.000Z</time>
      </trkpt>
      <trkpt lat="43.62279" lon="3.35758">
        <ele>250</ele>
        <time>2026-05-12T08:40:57.000Z</time>
      </trkpt>
      <trkpt lat="43.62277" lon="3.35752">
        <ele>250</ele>
        <time>2026-05-12T08:41:11.000Z</time>
      </trkpt>
      <trkpt lat="43.62278" lon="3.35758">
        <ele>252</ele>
        <time>2026-05-12T08:41:34.000Z</time>
      </trkpt>
      <trkpt lat="43.62279" lon="3.35759">
        <ele>252</ele>
        <time>2026-05-12T08:41:53.000Z</time>
      </trkpt>
      <trkpt lat="43.62275" lon="3.35759">
        <ele>250</ele>
        <time>2026-05-12T08:41:57.000Z</time>
      </trkpt>
      <trkpt lat="43.6227" lon="3.35755">
        <ele>247</ele>
        <time>2026-05-12T08:42:06.000Z</time>
      </trkpt>
      <trkpt lat="43.62267" lon="3.35751">
        <ele>246</ele>
        <time>2026-05-12T08:42:12.000Z</time>
      </trkpt>
      <trkpt lat="43.62264" lon="3.35742">
        <ele>243</ele>
        <time>2026-05-12T08:42:24.000Z</time>
      </trkpt>
      <trkpt lat="43.62263" lon="3.3574">
        <ele>243</ele>
        <time>2026-05-12T08:42:27.000Z</time>
      </trkpt>
      <trkpt lat="43.6226" lon="3.35735">
        <ele>241</ele>
        <time>2026-05-12T08:42:32.000Z</time>
      </trkpt>
      <trkpt lat="43.62256" lon="3.35733">
        <ele>243</ele>
        <time>2026-05-12T08:42:36.000Z</time>
      </trkpt>
      <trkpt lat="43.62252" lon="3.35732">
        <ele>243</ele>
        <time>2026-05-12T08:42:53.000Z</time>
      </trkpt>
      <trkpt lat="43.62247" lon="3.35726">
        <ele>241</ele>
        <time>2026-05-12T08:43:09.000Z</time>
      </trkpt>
      <trkpt lat="43.62246" lon="3.35724">
        <ele>241</ele>
        <time>2026-05-12T08:43:11.000Z</time>
      </trkpt>
      <trkpt lat="43.62237" lon="3.35711">
        <ele>240</ele>
        <time>2026-05-12T08:43:25.000Z</time>
      </trkpt>
      <trkpt lat="43.62228" lon="3.357">
        <ele>240</ele>
        <time>2026-05-12T08:43:39.000Z</time>
      </trkpt>
      <trkpt lat="43.62223" lon="3.35697">
        <ele>240</ele>
        <time>2026-05-12T08:43:50.000Z</time>
      </trkpt>
      <trkpt lat="43.62219" lon="3.35696">
        <ele>239</ele>
        <time>2026-05-12T08:44:02.000Z</time>
      </trkpt>
      <trkpt lat="43.62212" lon="3.35698">
        <ele>237</ele>
        <time>2026-05-12T08:44:26.000Z</time>
      </trkpt>
      <trkpt lat="43.62205" lon="3.35689">
        <ele>235</ele>
        <time>2026-05-12T08:44:38.000Z</time>
      </trkpt>
      <trkpt lat="43.62199" lon="3.35685">
        <ele>232</ele>
        <time>2026-05-12T08:44:45.000Z</time>
      </trkpt>
      <trkpt lat="43.62191" lon="3.35678">
        <ele>230</ele>
        <time>2026-05-12T08:44:58.000Z</time>
      </trkpt>
      <trkpt lat="43.62191" lon="3.35677">
        <ele>229</ele>
        <time>2026-05-12T08:45:09.000Z</time>
      </trkpt>
      <trkpt lat="43.62185" lon="3.35677">
        <ele>229</ele>
        <time>2026-05-12T08:45:14.000Z</time>
      </trkpt>
      <trkpt lat="43.6218" lon="3.35676">
        <ele>228</ele>
        <time>2026-05-12T08:45:18.000Z</time>
      </trkpt>
      <trkpt lat="43.62176" lon="3.35674">
        <ele>227</ele>
        <time>2026-05-12T08:45:22.000Z</time>
      </trkpt>
      <trkpt lat="43.62172" lon="3.35678">
        <ele>226</ele>
        <time>2026-05-12T08:45:26.000Z</time>
      </trkpt>
      <trkpt lat="43.62165" lon="3.35684">
        <ele>226</ele>
        <time>2026-05-12T08:45:36.000Z</time>
      </trkpt>
      <trkpt lat="43.62157" lon="3.3569">
        <ele>226</ele>
        <time>2026-05-12T08:45:50.000Z</time>
      </trkpt>
      <trkpt lat="43.62154" lon="3.35688">
        <ele>225</ele>
        <time>2026-05-12T08:45:55.000Z</time>
      </trkpt>
      <trkpt lat="43.62147" lon="3.35687">
        <ele>225</ele>
        <time>2026-05-12T08:46:06.000Z</time>
      </trkpt>
      <trkpt lat="43.62138" lon="3.35685">
        <ele>223</ele>
        <time>2026-05-12T08:46:20.000Z</time>
      </trkpt>
      <trkpt lat="43.62129" lon="3.35679">
        <ele>222</ele>
        <time>2026-05-12T08:46:33.000Z</time>
      </trkpt>
      <trkpt lat="43.6212" lon="3.3568">
        <ele>221</ele>
        <time>2026-05-12T08:46:49.000Z</time>
      </trkpt>
      <trkpt lat="43.62117" lon="3.35682">
        <ele>222</ele>
        <time>2026-05-12T08:46:54.000Z</time>
      </trkpt>
      <trkpt lat="43.62111" lon="3.35686">
        <ele>223</ele>
        <time>2026-05-12T08:47:04.000Z</time>
      </trkpt>
      <trkpt lat="43.6211" lon="3.35687">
        <ele>223</ele>
        <time>2026-05-12T08:47:06.000Z</time>
      </trkpt>
      <trkpt lat="43.62108" lon="3.35686">
        <ele>223</ele>
        <time>2026-05-12T08:47:08.000Z</time>
      </trkpt>
      <trkpt lat="43.62091" lon="3.35685">
        <ele>223</ele>
        <time>2026-05-12T08:47:22.000Z</time>
      </trkpt>
      <trkpt lat="43.62086" lon="3.35693">
        <ele>224</ele>
        <time>2026-05-12T08:47:34.000Z</time>
      </trkpt>
      <trkpt lat="43.62088" lon="3.357">
        <ele>225</ele>
        <time>2026-05-12T08:47:51.000Z</time>
      </trkpt>
      <trkpt lat="43.62087" lon="3.35701">
        <ele>224</ele>
        <time>2026-05-12T08:48:00.000Z</time>
      </trkpt>
      <trkpt lat="43.62082" lon="3.35699">
        <ele>222</ele>
        <time>2026-05-12T08:48:13.000Z</time>
      </trkpt>
      <trkpt lat="43.62077" lon="3.35696">
        <ele>221</ele>
        <time>2026-05-12T08:48:20.000Z</time>
      </trkpt>
      <trkpt lat="43.62067" lon="3.35691">
        <ele>219</ele>
        <time>2026-05-12T08:48:34.000Z</time>
      </trkpt>
      <trkpt lat="43.6206" lon="3.35689">
        <ele>219</ele>
        <time>2026-05-12T08:48:41.000Z</time>
      </trkpt>
      <trkpt lat="43.62054" lon="3.35685">
        <ele>219</ele>
        <time>2026-05-12T08:48:46.000Z</time>
      </trkpt>
      <trkpt lat="43.62051" lon="3.35682">
        <ele>218</ele>
        <time>2026-05-12T08:48:49.000Z</time>
      </trkpt>
      <trkpt lat="43.62049" lon="3.3568">
        <ele>218</ele>
        <time>2026-05-12T08:48:51.000Z</time>
      </trkpt>
      <trkpt lat="43.62045" lon="3.35679">
        <ele>218</ele>
        <time>2026-05-12T08:48:54.000Z</time>
      </trkpt>
      <trkpt lat="43.62032" lon="3.3567">
        <ele>221</ele>
        <time>2026-05-12T08:49:09.000Z</time>
      </trkpt>
      <trkpt lat="43.62033" lon="3.35667">
        <ele>222</ele>
        <time>2026-05-12T08:49:14.000Z</time>
      </trkpt>
      <trkpt lat="43.6203" lon="3.35659">
        <ele>224</ele>
        <time>2026-05-12T08:49:28.000Z</time>
      </trkpt>
      <trkpt lat="43.62024" lon="3.35654">
        <ele>224</ele>
        <time>2026-05-12T08:49:44.000Z</time>
      </trkpt>
      <trkpt lat="43.62015" lon="3.35646">
        <ele>223</ele>
        <time>2026-05-12T08:49:54.000Z</time>
      </trkpt>
      <trkpt lat="43.62004" lon="3.3564">
        <ele>221</ele>
        <time>2026-05-12T08:50:08.000Z</time>
      </trkpt>
      <trkpt lat="43.62003" lon="3.3564">
        <ele>221</ele>
        <time>2026-05-12T08:50:09.000Z</time>
      </trkpt>
      <trkpt lat="43.61992" lon="3.35633">
        <ele>220</ele>
        <time>2026-05-12T08:50:24.000Z</time>
      </trkpt>
      <trkpt lat="43.61981" lon="3.35625">
        <ele>219</ele>
        <time>2026-05-12T08:50:38.000Z</time>
      </trkpt>
      <trkpt lat="43.6197" lon="3.35621">
        <ele>219</ele>
        <time>2026-05-12T08:50:51.000Z</time>
      </trkpt>
      <trkpt lat="43.61959" lon="3.3562">
        <ele>222</ele>
        <time>2026-05-12T08:51:05.000Z</time>
      </trkpt>
      <trkpt lat="43.61943" lon="3.35627">
        <ele>223</ele>
        <time>2026-05-12T08:51:20.000Z</time>
      </trkpt>
      <trkpt lat="43.61931" lon="3.35637">
        <ele>222</ele>
        <time>2026-05-12T08:51:31.000Z</time>
      </trkpt>
      <trkpt lat="43.6193" lon="3.35638">
        <ele>222</ele>
        <time>2026-05-12T08:51:32.000Z</time>
      </trkpt>
      <trkpt lat="43.61916" lon="3.3564">
        <ele>221</ele>
        <time>2026-05-12T08:51:46.000Z</time>
      </trkpt>
      <trkpt lat="43.61911" lon="3.35641">
        <ele>220</ele>
        <time>2026-05-12T08:52:00.000Z</time>
      </trkpt>
      <trkpt lat="43.6191" lon="3.35636">
        <ele>220</ele>
        <time>2026-05-12T08:52:24.000Z</time>
      </trkpt>
      <trkpt lat="43.61896" lon="3.35637">
        <ele>218</ele>
        <time>2026-05-12T08:52:38.000Z</time>
      </trkpt>
      <trkpt lat="43.6189" lon="3.35639">
        <ele>217</ele>
        <time>2026-05-12T08:52:52.000Z</time>
      </trkpt>
      <trkpt lat="43.61882" lon="3.35651">
        <ele>216</ele>
        <time>2026-05-12T08:53:11.000Z</time>
      </trkpt>
      <trkpt lat="43.61897" lon="3.35645">
        <ele>218</ele>
        <time>2026-05-12T08:53:24.000Z</time>
      </trkpt>
      <trkpt lat="43.61898" lon="3.35648">
        <ele>216</ele>
        <time>2026-05-12T08:53:28.000Z</time>
      </trkpt>
      <trkpt lat="43.61899" lon="3.35668">
        <ele>215</ele>
        <time>2026-05-12T08:53:46.000Z</time>
      </trkpt>
      <trkpt lat="43.61882" lon="3.35674">
        <ele>214</ele>
        <time>2026-05-12T08:54:01.000Z</time>
      </trkpt>
      <trkpt lat="43.61864" lon="3.35677">
        <ele>213</ele>
        <time>2026-05-12T08:54:20.000Z</time>
      </trkpt>
      <trkpt lat="43.61861" lon="3.35675">
        <ele>212</ele>
        <time>2026-05-12T08:54:25.000Z</time>
      </trkpt>
      <trkpt lat="43.61859" lon="3.35674">
        <ele>212</ele>
        <time>2026-05-12T08:54:27.000Z</time>
      </trkpt>
      <trkpt lat="43.61856" lon="3.3566">
        <ele>212</ele>
        <time>2026-05-12T08:54:40.000Z</time>
      </trkpt>
      <trkpt lat="43.61856" lon="3.35655">
        <ele>212</ele>
        <time>2026-05-12T08:54:44.000Z</time>
      </trkpt>
      <trkpt lat="43.61857" lon="3.35641">
        <ele>210</ele>
        <time>2026-05-12T08:54:55.000Z</time>
      </trkpt>
      <trkpt lat="43.61857" lon="3.35637">
        <ele>212</ele>
        <time>2026-05-12T08:54:57.000Z</time>
      </trkpt>
      <trkpt lat="43.61858" lon="3.35633">
        <ele>212</ele>
        <time>2026-05-12T08:54:59.000Z</time>
      </trkpt>
      <trkpt lat="43.61856" lon="3.35619">
        <ele>210</ele>
        <time>2026-05-12T08:55:16.000Z</time>
      </trkpt>
      <trkpt lat="43.61859" lon="3.35615">
        <ele>210</ele>
        <time>2026-05-12T08:55:26.000Z</time>
      </trkpt>
      <trkpt lat="43.61862" lon="3.35614">
        <ele>210</ele>
        <time>2026-05-12T08:55:41.000Z</time>
      </trkpt>
      <trkpt lat="43.61867" lon="3.35619">
        <ele>211</ele>
        <time>2026-05-12T08:55:55.000Z</time>
      </trkpt>
      <trkpt lat="43.61874" lon="3.35623">
        <ele>213</ele>
        <time>2026-05-12T08:56:05.000Z</time>
      </trkpt>
      <trkpt lat="43.61885" lon="3.35638">
        <ele>216</ele>
        <time>2026-05-12T08:56:24.000Z</time>
      </trkpt>
      <trkpt lat="43.6189" lon="3.35641">
        <ele>217</ele>
        <time>2026-05-12T08:56:29.000Z</time>
      </trkpt>
      <trkpt lat="43.61905" lon="3.3564">
        <ele>219</ele>
        <time>2026-05-12T08:56:44.000Z</time>
      </trkpt>
      <trkpt lat="43.61915" lon="3.35643">
        <ele>221</ele>
        <time>2026-05-12T08:56:57.000Z</time>
      </trkpt>
      <trkpt lat="43.61928" lon="3.35645">
        <ele>221</ele>
        <time>2026-05-12T08:57:10.000Z</time>
      </trkpt>
      <trkpt lat="43.61941" lon="3.35637">
        <ele>222</ele>
        <time>2026-05-12T08:57:27.000Z</time>
      </trkpt>
      <trkpt lat="43.61942" lon="3.35637">
        <ele>223</ele>
        <time>2026-05-12T08:57:28.000Z</time>
      </trkpt>
      <trkpt lat="43.61956" lon="3.35627">
        <ele>224</ele>
        <time>2026-05-12T08:57:45.000Z</time>
      </trkpt>
      <trkpt lat="43.61959" lon="3.35626">
        <ele>222</ele>
        <time>2026-05-12T08:57:56.000Z</time>
      </trkpt>
      <trkpt lat="43.61964" lon="3.35625">
        <ele>222</ele>
        <time>2026-05-12T08:58:15.000Z</time>
      </trkpt>
      <trkpt lat="43.61979" lon="3.35624">
        <ele>220</ele>
        <time>2026-05-12T08:58:30.000Z</time>
      </trkpt>
      <trkpt lat="43.61981" lon="3.35625">
        <ele>220</ele>
        <time>2026-05-12T08:58:32.000Z</time>
      </trkpt>
      <trkpt lat="43.61995" lon="3.35627">
        <ele>220</ele>
        <time>2026-05-12T08:58:48.000Z</time>
      </trkpt>
      <trkpt lat="43.62002" lon="3.35625">
        <ele>220</ele>
        <time>2026-05-12T08:58:59.000Z</time>
      </trkpt>
      <trkpt lat="43.62014" lon="3.35618">
        <ele>221</ele>
        <time>2026-05-12T08:59:15.000Z</time>
      </trkpt>
      <trkpt lat="43.62022" lon="3.35614">
        <ele>223</ele>
        <time>2026-05-12T08:59:28.000Z</time>
      </trkpt>
      <trkpt lat="43.62031" lon="3.35606">
        <ele>224</ele>
        <time>2026-05-12T08:59:46.000Z</time>
      </trkpt>
      <trkpt lat="43.6204" lon="3.35602">
        <ele>225</ele>
        <time>2026-05-12T09:00:02.000Z</time>
      </trkpt>
      <trkpt lat="43.62051" lon="3.35592">
        <ele>225</ele>
        <time>2026-05-12T09:00:17.000Z</time>
      </trkpt>
      <trkpt lat="43.62057" lon="3.35587">
        <ele>226</ele>
        <time>2026-05-12T09:00:25.000Z</time>
      </trkpt>
      <trkpt lat="43.62068" lon="3.35577">
        <ele>226</ele>
        <time>2026-05-12T09:00:39.000Z</time>
      </trkpt>
      <trkpt lat="43.62085" lon="3.35567">
        <ele>227</ele>
        <time>2026-05-12T09:00:53.000Z</time>
      </trkpt>
      <trkpt lat="43.621" lon="3.35565">
        <ele>227</ele>
        <time>2026-05-12T09:01:07.000Z</time>
      </trkpt>
      <trkpt lat="43.62111" lon="3.35567">
        <ele>227</ele>
        <time>2026-05-12T09:01:18.000Z</time>
      </trkpt>
      <trkpt lat="43.62117" lon="3.35569">
        <ele>227</ele>
        <time>2026-05-12T09:01:26.000Z</time>
      </trkpt>
      <trkpt lat="43.62132" lon="3.35565">
        <ele>228</ele>
        <time>2026-05-12T09:01:40.000Z</time>
      </trkpt>
      <trkpt lat="43.62143" lon="3.35554">
        <ele>228</ele>
        <time>2026-05-12T09:01:52.000Z</time>
      </trkpt>
      <trkpt lat="43.62152" lon="3.35549">
        <ele>228</ele>
        <time>2026-05-12T09:02:00.000Z</time>
      </trkpt>
      <trkpt lat="43.62167" lon="3.35549">
        <ele>228</ele>
        <time>2026-05-12T09:02:15.000Z</time>
      </trkpt>
      <trkpt lat="43.62181" lon="3.35549">
        <ele>228</ele>
        <time>2026-05-12T09:02:30.000Z</time>
      </trkpt>
      <trkpt lat="43.62187" lon="3.35549">
        <ele>228</ele>
        <time>2026-05-12T09:02:37.000Z</time>
      </trkpt>
      <trkpt lat="43.62204" lon="3.35542">
        <ele>228</ele>
        <time>2026-05-12T09:02:52.000Z</time>
      </trkpt>
      <trkpt lat="43.62212" lon="3.35538">
        <ele>231</ele>
        <time>2026-05-12T09:03:04.000Z</time>
      </trkpt>
      <trkpt lat="43.62221" lon="3.35536">
        <ele>233</ele>
        <time>2026-05-12T09:03:16.000Z</time>
      </trkpt>
      <trkpt lat="43.6223" lon="3.35538">
        <ele>232</ele>
        <time>2026-05-12T09:03:27.000Z</time>
      </trkpt>
      <trkpt lat="43.62237" lon="3.35531">
        <ele>233</ele>
        <time>2026-05-12T09:03:39.000Z</time>
      </trkpt>
      <trkpt lat="43.62248" lon="3.35528">
        <ele>235</ele>
        <time>2026-05-12T09:03:52.000Z</time>
      </trkpt>
      <trkpt lat="43.62255" lon="3.35533">
        <ele>236</ele>
        <time>2026-05-12T09:04:05.000Z</time>
      </trkpt>
      <trkpt lat="43.6226" lon="3.3552">
        <ele>239</ele>
        <time>2026-05-12T09:04:20.000Z</time>
      </trkpt>
      <trkpt lat="43.62269" lon="3.35511">
        <ele>240</ele>
        <time>2026-05-12T09:04:33.000Z</time>
      </trkpt>
      <trkpt lat="43.62277" lon="3.3551">
        <ele>244</ele>
        <time>2026-05-12T09:04:48.000Z</time>
      </trkpt>
      <trkpt lat="43.62283" lon="3.35511">
        <ele>244</ele>
        <time>2026-05-12T09:05:00.000Z</time>
      </trkpt>
      <trkpt lat="43.62287" lon="3.35514">
        <ele>246</ele>
        <time>2026-05-12T09:05:12.000Z</time>
      </trkpt>
      <trkpt lat="43.62294" lon="3.35518">
        <ele>247</ele>
        <time>2026-05-12T09:05:22.000Z</time>
      </trkpt>
      <trkpt lat="43.62304" lon="3.35522">
        <ele>246</ele>
        <time>2026-05-12T09:05:35.000Z</time>
      </trkpt>
      <trkpt lat="43.62312" lon="3.35524">
        <ele>249</ele>
        <time>2026-05-12T09:05:48.000Z</time>
      </trkpt>
      <trkpt lat="43.62317" lon="3.35523">
        <ele>251</ele>
        <time>2026-05-12T09:06:01.000Z</time>
      </trkpt>
      <trkpt lat="43.62322" lon="3.35515">
        <ele>253</ele>
        <time>2026-05-12T09:06:13.000Z</time>
      </trkpt>
      <trkpt lat="43.6233" lon="3.35502">
        <ele>255</ele>
        <time>2026-05-12T09:06:28.000Z</time>
      </trkpt>
      <trkpt lat="43.62337" lon="3.35492">
        <ele>257</ele>
        <time>2026-05-12T09:06:41.000Z</time>
      </trkpt>
      <trkpt lat="43.6234" lon="3.35485">
        <ele>261</ele>
        <time>2026-05-12T09:06:51.000Z</time>
      </trkpt>
      <trkpt lat="43.6235" lon="3.35472">
        <ele>262</ele>
        <time>2026-05-12T09:07:06.000Z</time>
      </trkpt>
      <trkpt lat="43.62352" lon="3.35469">
        <ele>263</ele>
        <time>2026-05-12T09:07:08.000Z</time>
      </trkpt>
      <trkpt lat="43.62356" lon="3.35453">
        <ele>264</ele>
        <time>2026-05-12T09:07:21.000Z</time>
      </trkpt>
      <trkpt lat="43.62358" lon="3.35434">
        <ele>265</ele>
        <time>2026-05-12T09:07:37.000Z</time>
      </trkpt>
      <trkpt lat="43.62357" lon="3.35418">
        <ele>266</ele>
        <time>2026-05-12T09:07:50.000Z</time>
      </trkpt>
      <trkpt lat="43.62357" lon="3.35399">
        <ele>267</ele>
        <time>2026-05-12T09:08:05.000Z</time>
      </trkpt>
      <trkpt lat="43.62354" lon="3.35387">
        <ele>269</ele>
        <time>2026-05-12T09:08:19.000Z</time>
      </trkpt>
      <trkpt lat="43.62358" lon="3.35378">
        <ele>271</ele>
        <time>2026-05-12T09:08:33.000Z</time>
      </trkpt>
      <trkpt lat="43.62362" lon="3.35367">
        <ele>272</ele>
        <time>2026-05-12T09:08:47.000Z</time>
      </trkpt>
      <trkpt lat="43.62367" lon="3.35353">
        <ele>273</ele>
        <time>2026-05-12T09:09:01.000Z</time>
      </trkpt>
      <trkpt lat="43.62371" lon="3.35346">
        <ele>274</ele>
        <time>2026-05-12T09:09:06.000Z</time>
      </trkpt>
      <trkpt lat="43.62377" lon="3.35333">
        <ele>274</ele>
        <time>2026-05-12T09:09:19.000Z</time>
      </trkpt>
      <trkpt lat="43.62383" lon="3.35323">
        <ele>277</ele>
        <time>2026-05-12T09:09:33.000Z</time>
      </trkpt>
      <trkpt lat="43.62384" lon="3.35316">
        <ele>279</ele>
        <time>2026-05-12T09:09:47.000Z</time>
      </trkpt>
      <trkpt lat="43.62388" lon="3.35318">
        <ele>280</ele>
        <time>2026-05-12T09:09:59.000Z</time>
      </trkpt>
      <trkpt lat="43.62387" lon="3.35317">
        <ele>281</ele>
        <time>2026-05-12T09:10:12.000Z</time>
      </trkpt>
      <trkpt lat="43.62389" lon="3.35306">
        <ele>282</ele>
        <time>2026-05-12T09:10:31.000Z</time>
      </trkpt>
      <trkpt lat="43.62397" lon="3.35304">
        <ele>283</ele>
        <time>2026-05-12T09:10:44.000Z</time>
      </trkpt>
      <trkpt lat="43.62406" lon="3.35298">
        <ele>285</ele>
        <time>2026-05-12T09:10:57.000Z</time>
      </trkpt>
      <trkpt lat="43.62409" lon="3.35298">
        <ele>285</ele>
        <time>2026-05-12T09:11:01.000Z</time>
      </trkpt>
      <trkpt lat="43.62426" lon="3.35289">
        <ele>285</ele>
        <time>2026-05-12T09:11:18.000Z</time>
      </trkpt>
      <trkpt lat="43.62435" lon="3.35277">
        <ele>286</ele>
        <time>2026-05-12T09:11:33.000Z</time>
      </trkpt>
      <trkpt lat="43.62437" lon="3.35275">
        <ele>285</ele>
        <time>2026-05-12T09:11:35.000Z</time>
      </trkpt>
      <trkpt lat="43.6244" lon="3.3527">
        <ele>286</ele>
        <time>2026-05-12T09:11:44.000Z</time>
      </trkpt>
      <trkpt lat="43.62445" lon="3.35271">
        <ele>285</ele>
        <time>2026-05-12T09:11:51.000Z</time>
      </trkpt>
      <trkpt lat="43.62458" lon="3.35273">
        <ele>285</ele>
        <time>2026-05-12T09:12:05.000Z</time>
      </trkpt>
      <trkpt lat="43.6246" lon="3.35275">
        <ele>286</ele>
        <time>2026-05-12T09:12:09.000Z</time>
      </trkpt>
      <trkpt lat="43.62472" lon="3.3527">
        <ele>286</ele>
        <time>2026-05-12T09:12:22.000Z</time>
      </trkpt>
      <trkpt lat="43.62483" lon="3.35266">
        <ele>288</ele>
        <time>2026-05-12T09:12:34.000Z</time>
      </trkpt>
      <trkpt lat="43.62491" lon="3.35248">
        <ele>288</ele>
        <time>2026-05-12T09:12:49.000Z</time>
      </trkpt>
      <trkpt lat="43.62496" lon="3.35238">
        <ele>290</ele>
        <time>2026-05-12T09:13:02.000Z</time>
      </trkpt>
      <trkpt lat="43.62501" lon="3.35233">
        <ele>292</ele>
        <time>2026-05-12T09:13:15.000Z</time>
      </trkpt>
      <trkpt lat="43.62504" lon="3.35222">
        <ele>292</ele>
        <time>2026-05-12T09:13:30.000Z</time>
      </trkpt>
      <trkpt lat="43.62506" lon="3.35219">
        <ele>291</ele>
        <time>2026-05-12T09:13:34.000Z</time>
      </trkpt>
      <trkpt lat="43.6251" lon="3.35213">
        <ele>289</ele>
        <time>2026-05-12T09:13:46.000Z</time>
      </trkpt>
      <trkpt lat="43.62514" lon="3.3521">
        <ele>289</ele>
        <time>2026-05-12T09:13:50.000Z</time>
      </trkpt>
      <trkpt lat="43.62516" lon="3.35207">
        <ele>289</ele>
        <time>2026-05-12T09:13:53.000Z</time>
      </trkpt>
      <trkpt lat="43.62518" lon="3.35202">
        <ele>289</ele>
        <time>2026-05-12T09:13:56.000Z</time>
      </trkpt>
      <trkpt lat="43.62522" lon="3.35192">
        <ele>289</ele>
        <time>2026-05-12T09:14:04.000Z</time>
      </trkpt>
      <trkpt lat="43.62526" lon="3.35173">
        <ele>292</ele>
        <time>2026-05-12T09:14:18.000Z</time>
      </trkpt>
      <trkpt lat="43.62527" lon="3.35159">
        <ele>294</ele>
        <time>2026-05-12T09:14:30.000Z</time>
      </trkpt>
      <trkpt lat="43.62531" lon="3.35148">
        <ele>295</ele>
        <time>2026-05-12T09:14:39.000Z</time>
      </trkpt>
      <trkpt lat="43.62535" lon="3.35141">
        <ele>295</ele>
        <time>2026-05-12T09:14:45.000Z</time>
      </trkpt>
      <trkpt lat="43.62539" lon="3.35138">
        <ele>295</ele>
        <time>2026-05-12T09:14:49.000Z</time>
      </trkpt>
      <trkpt lat="43.62547" lon="3.35136">
        <ele>294</ele>
        <time>2026-05-12T09:14:57.000Z</time>
      </trkpt>
      <trkpt lat="43.62553" lon="3.35129">
        <ele>292</ele>
        <time>2026-05-12T09:15:05.000Z</time>
      </trkpt>
      <trkpt lat="43.62564" lon="3.35116">
        <ele>290</ele>
        <time>2026-05-12T09:15:20.000Z</time>
      </trkpt>
      <trkpt lat="43.62565" lon="3.35116">
        <ele>290</ele>
        <time>2026-05-12T09:15:21.000Z</time>
      </trkpt>
      <trkpt lat="43.62574" lon="3.35111">
        <ele>289</ele>
        <time>2026-05-12T09:15:35.000Z</time>
      </trkpt>
      <trkpt lat="43.62573" lon="3.35107">
        <ele>289</ele>
        <time>2026-05-12T09:15:39.000Z</time>
      </trkpt>
      <trkpt lat="43.62573" lon="3.35101">
        <ele>288</ele>
        <time>2026-05-12T09:15:44.000Z</time>
      </trkpt>
      <trkpt lat="43.62579" lon="3.35092">
        <ele>286</ele>
        <time>2026-05-12T09:15:59.000Z</time>
      </trkpt>
      <trkpt lat="43.62578" lon="3.35092">
        <ele>288</ele>
        <time>2026-05-12T09:16:10.000Z</time>
      </trkpt>
      <trkpt lat="43.62581" lon="3.35091">
        <ele>287</ele>
        <time>2026-05-12T09:16:15.000Z</time>
      </trkpt>
      <trkpt lat="43.62596" lon="3.35085">
        <ele>286</ele>
        <time>2026-05-12T09:16:30.000Z</time>
      </trkpt>
      <trkpt lat="43.62604" lon="3.35073">
        <ele>287</ele>
        <time>2026-05-12T09:16:43.000Z</time>
      </trkpt>
      <trkpt lat="43.62615" lon="3.35068">
        <ele>289</ele>
        <time>2026-05-12T09:16:58.000Z</time>
      </trkpt>
      <trkpt lat="43.62627" lon="3.35062">
        <ele>290</ele>
        <time>2026-05-12T09:17:12.000Z</time>
      </trkpt>
      <trkpt lat="43.62646" lon="3.35055">
        <ele>289</ele>
        <time>2026-05-12T09:17:29.000Z</time>
      </trkpt>
      <trkpt lat="43.62659" lon="3.35056">
        <ele>288</ele>
        <time>2026-05-12T09:17:41.000Z</time>
      </trkpt>
      <trkpt lat="43.6267" lon="3.35053">
        <ele>287</ele>
        <time>2026-05-12T09:17:54.000Z</time>
      </trkpt>
      <trkpt lat="43.62676" lon="3.35053">
        <ele>286</ele>
        <time>2026-05-12T09:18:08.000Z</time>
      </trkpt>
      <trkpt lat="43.62682" lon="3.35054">
        <ele>285</ele>
        <time>2026-05-12T09:18:22.000Z</time>
      </trkpt>
      <trkpt lat="43.62691" lon="3.35051">
        <ele>283</ele>
        <time>2026-05-12T09:18:35.000Z</time>
      </trkpt>
      <trkpt lat="43.627" lon="3.35049">
        <ele>280</ele>
        <time>2026-05-12T09:18:50.000Z</time>
      </trkpt>
      <trkpt lat="43.6271" lon="3.35041">
        <ele>279</ele>
        <time>2026-05-12T09:19:03.000Z</time>
      </trkpt>
      <trkpt lat="43.62719" lon="3.35028">
        <ele>277</ele>
        <time>2026-05-12T09:19:18.000Z</time>
      </trkpt>
      <trkpt lat="43.62723" lon="3.35015">
        <ele>276</ele>
        <time>2026-05-12T09:19:32.000Z</time>
      </trkpt>
      <trkpt lat="43.62724" lon="3.35008">
        <ele>277</ele>
        <time>2026-05-12T09:19:37.000Z</time>
      </trkpt>
      <trkpt lat="43.62732" lon="3.35008">
        <ele>280</ele>
        <time>2026-05-12T09:19:51.000Z</time>
      </trkpt>
      <trkpt lat="43.62742" lon="3.35">
        <ele>281</ele>
        <time>2026-05-12T09:20:03.000Z</time>
      </trkpt>
      <trkpt lat="43.62745" lon="3.34997">
        <ele>281</ele>
        <time>2026-05-12T09:20:07.000Z</time>
      </trkpt>
      <trkpt lat="43.62756" lon="3.34987">
        <ele>283</ele>
        <time>2026-05-12T09:20:21.000Z</time>
      </trkpt>
      <trkpt lat="43.62758" lon="3.34987">
        <ele>283</ele>
        <time>2026-05-12T09:20:23.000Z</time>
      </trkpt>
      <trkpt lat="43.6277" lon="3.34994">
        <ele>285</ele>
        <time>2026-05-12T09:20:38.000Z</time>
      </trkpt>
      <trkpt lat="43.62771" lon="3.34994">
        <ele>285</ele>
        <time>2026-05-12T09:20:39.000Z</time>
      </trkpt>
      <trkpt lat="43.62775" lon="3.34994">
        <ele>286</ele>
        <time>2026-05-12T09:20:43.000Z</time>
      </trkpt>
      <trkpt lat="43.62793" lon="3.34997">
        <ele>287</ele>
        <time>2026-05-12T09:20:59.000Z</time>
      </trkpt>
      <trkpt lat="43.6281" lon="3.34997">
        <ele>287</ele>
        <time>2026-05-12T09:21:14.000Z</time>
      </trkpt>
      <trkpt lat="43.62818" lon="3.35001">
        <ele>287</ele>
        <time>2026-05-12T09:21:23.000Z</time>
      </trkpt>
      <trkpt lat="43.62832" lon="3.35005">
        <ele>287</ele>
        <time>2026-05-12T09:21:37.000Z</time>
      </trkpt>
      <trkpt lat="43.62847" lon="3.35003">
        <ele>288</ele>
        <time>2026-05-12T09:21:52.000Z</time>
      </trkpt>
      <trkpt lat="43.62857" lon="3.34997">
        <ele>290</ele>
        <time>2026-05-12T09:22:04.000Z</time>
      </trkpt>
      <trkpt lat="43.62872" lon="3.34997">
        <ele>291</ele>
        <time>2026-05-12T09:22:19.000Z</time>
      </trkpt>
      <trkpt lat="43.62879" lon="3.34999">
        <ele>291</ele>
        <time>2026-05-12T09:22:32.000Z</time>
      </trkpt>
      <trkpt lat="43.62889" lon="3.35008">
        <ele>293</ele>
        <time>2026-05-12T09:22:45.000Z</time>
      </trkpt>
      <trkpt lat="43.62891" lon="3.35025">
        <ele>294</ele>
        <time>2026-05-12T09:22:57.000Z</time>
      </trkpt>
      <trkpt lat="43.6289" lon="3.3503">
        <ele>294</ele>
        <time>2026-05-12T09:23:01.000Z</time>
      </trkpt>
      <trkpt lat="43.62886" lon="3.35059">
        <ele>295</ele>
        <time>2026-05-12T09:23:19.000Z</time>
      </trkpt>
      <trkpt lat="43.62886" lon="3.35075">
        <ele>297</ele>
        <time>2026-05-12T09:23:32.000Z</time>
      </trkpt>
      <trkpt lat="43.6288" lon="3.35089">
        <ele>299</ele>
        <time>2026-05-12T09:23:46.000Z</time>
      </trkpt>
      <trkpt lat="43.62877" lon="3.35093">
        <ele>300</ele>
        <time>2026-05-12T09:23:51.000Z</time>
      </trkpt>
      <trkpt lat="43.62878" lon="3.35098">
        <ele>300</ele>
        <time>2026-05-12T09:23:54.000Z</time>
      </trkpt>
      <trkpt lat="43.62879" lon="3.3512">
        <ele>302</ele>
        <time>2026-05-12T09:24:10.000Z</time>
      </trkpt>
      <trkpt lat="43.62882" lon="3.35127">
        <ele>302</ele>
        <time>2026-05-12T09:24:23.000Z</time>
      </trkpt>
      <trkpt lat="43.62884" lon="3.35136">
        <ele>303</ele>
        <time>2026-05-12T09:24:45.000Z</time>
      </trkpt>
      <trkpt lat="43.6289" lon="3.35151">
        <ele>304</ele>
        <time>2026-05-12T09:24:57.000Z</time>
      </trkpt>
      <trkpt lat="43.62895" lon="3.35163">
        <ele>305</ele>
        <time>2026-05-12T09:25:08.000Z</time>
      </trkpt>
      <trkpt lat="43.62903" lon="3.35175">
        <ele>307</ele>
        <time>2026-05-12T09:25:21.000Z</time>
      </trkpt>
      <trkpt lat="43.6291" lon="3.35184">
        <ele>308</ele>
        <time>2026-05-12T09:25:33.000Z</time>
      </trkpt>
      <trkpt lat="43.62921" lon="3.35187">
        <ele>311</ele>
        <time>2026-05-12T09:25:48.000Z</time>
      </trkpt>
      <trkpt lat="43.62928" lon="3.35185">
        <ele>311</ele>
        <time>2026-05-12T09:26:05.000Z</time>
      </trkpt>
      <trkpt lat="43.62932" lon="3.35185">
        <ele>312</ele>
        <time>2026-05-12T09:26:10.000Z</time>
      </trkpt>
      <trkpt lat="43.62946" lon="3.35184">
        <ele>314</ele>
        <time>2026-05-12T09:26:26.000Z</time>
      </trkpt>
      <trkpt lat="43.62958" lon="3.35181">
        <ele>317</ele>
        <time>2026-05-12T09:26:39.000Z</time>
      </trkpt>
      <trkpt lat="43.62965" lon="3.35188">
        <ele>318</ele>
        <time>2026-05-12T09:26:49.000Z</time>
      </trkpt>
      <trkpt lat="43.62978" lon="3.35198">
        <ele>320</ele>
        <time>2026-05-12T09:27:04.000Z</time>
      </trkpt>
      <trkpt lat="43.62989" lon="3.35204">
        <ele>320</ele>
        <time>2026-05-12T09:27:18.000Z</time>
      </trkpt>
      <trkpt lat="43.62992" lon="3.35207">
        <ele>321</ele>
        <time>2026-05-12T09:27:22.000Z</time>
      </trkpt>
      <trkpt lat="43.63003" lon="3.35216">
        <ele>323</ele>
        <time>2026-05-12T09:27:37.000Z</time>
      </trkpt>
      <trkpt lat="43.63013" lon="3.35227">
        <ele>326</ele>
        <time>2026-05-12T09:27:50.000Z</time>
      </trkpt>
      <trkpt lat="43.63019" lon="3.35238">
        <ele>327</ele>
        <time>2026-05-12T09:28:02.000Z</time>
      </trkpt>
      <trkpt lat="43.63028" lon="3.35247">
        <ele>329</ele>
        <time>2026-05-12T09:28:16.000Z</time>
      </trkpt>
      <trkpt lat="43.63036" lon="3.35252">
        <ele>333</ele>
        <time>2026-05-12T09:28:29.000Z</time>
      </trkpt>
      <trkpt lat="43.63044" lon="3.35256">
        <ele>336</ele>
        <time>2026-05-12T09:28:40.000Z</time>
      </trkpt>
      <trkpt lat="43.63046" lon="3.35257">
        <ele>337</ele>
        <time>2026-05-12T09:28:42.000Z</time>
      </trkpt>
      <trkpt lat="43.63053" lon="3.35271">
        <ele>338</ele>
        <time>2026-05-12T09:28:57.000Z</time>
      </trkpt>
      <trkpt lat="43.63054" lon="3.35288">
        <ele>339</ele>
        <time>2026-05-12T09:29:10.000Z</time>
      </trkpt>
      <trkpt lat="43.63056" lon="3.35306">
        <ele>342</ele>
        <time>2026-05-12T09:29:23.000Z</time>
      </trkpt>
      <trkpt lat="43.63063" lon="3.35315">
        <ele>345</ele>
        <time>2026-05-12T09:29:37.000Z</time>
      </trkpt>
      <trkpt lat="43.63071" lon="3.35323">
        <ele>347</ele>
        <time>2026-05-12T09:29:49.000Z</time>
      </trkpt>
      <trkpt lat="43.63084" lon="3.35317">
        <ele>349</ele>
        <time>2026-05-12T09:30:06.000Z</time>
      </trkpt>
      <trkpt lat="43.63084" lon="3.35327">
        <ele>351</ele>
        <time>2026-05-12T09:30:20.000Z</time>
      </trkpt>
      <trkpt lat="43.63085" lon="3.35329">
        <ele>352</ele>
        <time>2026-05-12T09:30:22.000Z</time>
      </trkpt>
      <trkpt lat="43.63086" lon="3.35348">
        <ele>354</ele>
        <time>2026-05-12T09:30:37.000Z</time>
      </trkpt>
      <trkpt lat="43.63084" lon="3.35364">
        <ele>357</ele>
        <time>2026-05-12T09:30:52.000Z</time>
      </trkpt>
      <trkpt lat="43.63083" lon="3.35373">
        <ele>359</ele>
        <time>2026-05-12T09:30:59.000Z</time>
      </trkpt>
      <trkpt lat="43.63088" lon="3.3539">
        <ele>362</ele>
        <time>2026-05-12T09:31:13.000Z</time>
      </trkpt>
      <trkpt lat="43.63089" lon="3.35391">
        <ele>362</ele>
        <time>2026-05-12T09:31:14.000Z</time>
      </trkpt>
      <trkpt lat="43.63103" lon="3.35405">
        <ele>365</ele>
        <time>2026-05-12T09:31:31.000Z</time>
      </trkpt>
      <trkpt lat="43.63109" lon="3.35416">
        <ele>368</ele>
        <time>2026-05-12T09:31:42.000Z</time>
      </trkpt>
      <trkpt lat="43.63112" lon="3.35433">
        <ele>371</ele>
        <time>2026-05-12T09:31:57.000Z</time>
      </trkpt>
      <trkpt lat="43.63113" lon="3.3544">
        <ele>373</ele>
        <time>2026-05-12T09:32:13.000Z</time>
      </trkpt>
      <trkpt lat="43.63122" lon="3.35444">
        <ele>374</ele>
        <time>2026-05-12T09:32:26.000Z</time>
      </trkpt>
      <trkpt lat="43.63128" lon="3.35448">
        <ele>375</ele>
        <time>2026-05-12T09:32:42.000Z</time>
      </trkpt>
      <trkpt lat="43.63129" lon="3.35442">
        <ele>375</ele>
        <time>2026-05-12T09:32:59.000Z</time>
      </trkpt>
      <trkpt lat="43.63122" lon="3.3544">
        <ele>374</ele>
        <time>2026-05-12T09:33:17.000Z</time>
      </trkpt>
      <trkpt lat="43.63114" lon="3.35433">
        <ele>372</ele>
        <time>2026-05-12T09:33:33.000Z</time>
      </trkpt>
      <trkpt lat="43.63114" lon="3.35433">
        <ele>373</ele>
        <time>2026-05-12T09:34:02.000Z</time>
      </trkpt>
      <trkpt lat="43.63112" lon="3.35431">
        <ele>373</ele>
        <time>2026-05-12T09:34:24.000Z</time>
      </trkpt>
      <trkpt lat="43.63112" lon="3.3543">
        <ele>373</ele>
        <time>2026-05-12T09:34:59.000Z</time>
      </trkpt>
      <trkpt lat="43.63108" lon="3.35434">
        <ele>373</ele>
        <time>2026-05-12T09:35:28.000Z</time>
      </trkpt>
      <trkpt lat="43.6311" lon="3.35434">
        <ele>373</ele>
        <time>2026-05-12T09:35:49.000Z</time>
      </trkpt>
      <trkpt lat="43.63111" lon="3.35437">
        <ele>373</ele>
        <time>2026-05-12T09:36:12.000Z</time>
      </trkpt>
      <trkpt lat="43.63119" lon="3.35441">
        <ele>375</ele>
        <time>2026-05-12T09:36:19.000Z</time>
      </trkpt>
      <trkpt lat="43.63122" lon="3.35444">
        <ele>375</ele>
        <time>2026-05-12T09:36:22.000Z</time>
      </trkpt>
      <trkpt lat="43.63133" lon="3.3544">
        <ele>378</ele>
        <time>2026-05-12T09:36:33.000Z</time>
      </trkpt>
      <trkpt lat="43.63143" lon="3.35431">
        <ele>380</ele>
        <time>2026-05-12T09:36:46.000Z</time>
      </trkpt>
      <trkpt lat="43.6315" lon="3.35421">
        <ele>383</ele>
        <time>2026-05-12T09:37:02.000Z</time>
      </trkpt>
      <trkpt lat="43.63155" lon="3.35417">
        <ele>384</ele>
        <time>2026-05-12T09:37:29.000Z</time>
      </trkpt>
      <trkpt lat="43.63156" lon="3.35416">
        <ele>384</ele>
        <time>2026-05-12T09:37:30.000Z</time>
      </trkpt>
      <trkpt lat="43.63167" lon="3.35415">
        <ele>386</ele>
        <time>2026-05-12T09:37:43.000Z</time>
      </trkpt>
      <trkpt lat="43.63171" lon="3.35414">
        <ele>386</ele>
        <time>2026-05-12T09:37:47.000Z</time>
      </trkpt>
      <trkpt lat="43.63187" lon="3.35407">
        <ele>388</ele>
        <time>2026-05-12T09:38:03.000Z</time>
      </trkpt>
      <trkpt lat="43.63195" lon="3.35401">
        <ele>391</ele>
        <time>2026-05-12T09:38:14.000Z</time>
      </trkpt>
      <trkpt lat="43.63202" lon="3.3539">
        <ele>394</ele>
        <time>2026-05-12T09:38:27.000Z</time>
      </trkpt>
      <trkpt lat="43.63209" lon="3.35373">
        <ele>396</ele>
        <time>2026-05-12T09:38:42.000Z</time>
      </trkpt>
      <trkpt lat="43.63212" lon="3.35369">
        <ele>396</ele>
        <time>2026-05-12T09:38:46.000Z</time>
      </trkpt>
      <trkpt lat="43.63217" lon="3.35346">
        <ele>397</ele>
        <time>2026-05-12T09:39:03.000Z</time>
      </trkpt>
      <trkpt lat="43.63219" lon="3.35325">
        <ele>398</ele>
        <time>2026-05-12T09:39:18.000Z</time>
      </trkpt>
      <trkpt lat="43.63223" lon="3.35306">
        <ele>400</ele>
        <time>2026-05-12T09:39:33.000Z</time>
      </trkpt>
      <trkpt lat="43.63223" lon="3.35289">
        <ele>402</ele>
        <time>2026-05-12T09:39:47.000Z</time>
      </trkpt>
      <trkpt lat="43.63226" lon="3.3527">
        <ele>403</ele>
        <time>2026-05-12T09:40:02.000Z</time>
      </trkpt>
      <trkpt lat="43.63229" lon="3.35254">
        <ele>405</ele>
        <time>2026-05-12T09:40:16.000Z</time>
      </trkpt>
      <trkpt lat="43.63227" lon="3.3524">
        <ele>407</ele>
        <time>2026-05-12T09:40:28.000Z</time>
      </trkpt>
      <trkpt lat="43.63229" lon="3.35221">
        <ele>409</ele>
        <time>2026-05-12T09:40:44.000Z</time>
      </trkpt>
      <trkpt lat="43.63231" lon="3.35202">
        <ele>412</ele>
        <time>2026-05-12T09:41:01.000Z</time>
      </trkpt>
      <trkpt lat="43.63232" lon="3.35182">
        <ele>413</ele>
        <time>2026-05-12T09:41:15.000Z</time>
      </trkpt>
      <trkpt lat="43.63236" lon="3.35162">
        <ele>414</ele>
        <time>2026-05-12T09:41:30.000Z</time>
      </trkpt>
      <trkpt lat="43.63237" lon="3.3514">
        <ele>415</ele>
        <time>2026-05-12T09:41:47.000Z</time>
      </trkpt>
      <trkpt lat="43.63242" lon="3.35122">
        <ele>417</ele>
        <time>2026-05-12T09:42:01.000Z</time>
      </trkpt>
      <trkpt lat="43.63246" lon="3.35107">
        <ele>421</ele>
        <time>2026-05-12T09:42:16.000Z</time>
      </trkpt>
      <trkpt lat="43.63249" lon="3.35091">
        <ele>423</ele>
        <time>2026-05-12T09:42:32.000Z</time>
      </trkpt>
      <trkpt lat="43.63253" lon="3.35074">
        <ele>426</ele>
        <time>2026-05-12T09:42:49.000Z</time>
      </trkpt>
      <trkpt lat="43.63258" lon="3.35058">
        <ele>429</ele>
        <time>2026-05-12T09:43:06.000Z</time>
      </trkpt>
      <trkpt lat="43.63261" lon="3.35042">
        <ele>432</ele>
        <time>2026-05-12T09:43:19.000Z</time>
      </trkpt>
      <trkpt lat="43.63266" lon="3.35023">
        <ele>435</ele>
        <time>2026-05-12T09:43:35.000Z</time>
      </trkpt>
      <trkpt lat="43.63265" lon="3.35003">
        <ele>437</ele>
        <time>2026-05-12T09:43:51.000Z</time>
      </trkpt>
      <trkpt lat="43.63266" lon="3.34984">
        <ele>439</ele>
        <time>2026-05-12T09:44:06.000Z</time>
      </trkpt>
      <trkpt lat="43.63268" lon="3.34966">
        <ele>441</ele>
        <time>2026-05-12T09:44:19.000Z</time>
      </trkpt>
      <trkpt lat="43.63269" lon="3.34946">
        <ele>444</ele>
        <time>2026-05-12T09:44:35.000Z</time>
      </trkpt>
      <trkpt lat="43.63271" lon="3.34928">
        <ele>445</ele>
        <time>2026-05-12T09:44:49.000Z</time>
      </trkpt>
      <trkpt lat="43.63276" lon="3.3491">
        <ele>447</ele>
        <time>2026-05-12T09:45:03.000Z</time>
      </trkpt>
      <trkpt lat="43.63281" lon="3.34891">
        <ele>448</ele>
        <time>2026-05-12T09:45:17.000Z</time>
      </trkpt>
      <trkpt lat="43.63283" lon="3.34869">
        <ele>450</ele>
        <time>2026-05-12T09:45:34.000Z</time>
      </trkpt>
      <trkpt lat="43.63287" lon="3.34848">
        <ele>451</ele>
        <time>2026-05-12T09:45:49.000Z</time>
      </trkpt>
      <trkpt lat="43.63293" lon="3.34829">
        <ele>453</ele>
        <time>2026-05-12T09:46:05.000Z</time>
      </trkpt>
      <trkpt lat="43.63298" lon="3.34813">
        <ele>455</ele>
        <time>2026-05-12T09:46:20.000Z</time>
      </trkpt>
      <trkpt lat="43.63301" lon="3.34795">
        <ele>456</ele>
        <time>2026-05-12T09:46:34.000Z</time>
      </trkpt>
      <trkpt lat="43.63307" lon="3.34779">
        <ele>457</ele>
        <time>2026-05-12T09:46:47.000Z</time>
      </trkpt>
      <trkpt lat="43.63315" lon="3.34759">
        <ele>458</ele>
        <time>2026-05-12T09:47:04.000Z</time>
      </trkpt>
      <trkpt lat="43.6332" lon="3.34739">
        <ele>458</ele>
        <time>2026-05-12T09:47:18.000Z</time>
      </trkpt>
      <trkpt lat="43.63326" lon="3.34727">
        <ele>459</ele>
        <time>2026-05-12T09:47:28.000Z</time>
      </trkpt>
      <trkpt lat="43.63336" lon="3.3471">
        <ele>462</ele>
        <time>2026-05-12T09:47:45.000Z</time>
      </trkpt>
      <trkpt lat="43.63347" lon="3.34704">
        <ele>463</ele>
        <time>2026-05-12T09:48:01.000Z</time>
      </trkpt>
      <trkpt lat="43.6335" lon="3.34704">
        <ele>464</ele>
        <time>2026-05-12T09:48:15.000Z</time>
      </trkpt>
      <trkpt lat="43.63351" lon="3.34694">
        <ele>464</ele>
        <time>2026-05-12T09:48:29.000Z</time>
      </trkpt>
      <trkpt lat="43.63351" lon="3.34692">
        <ele>463</ele>
        <time>2026-05-12T09:48:32.000Z</time>
      </trkpt>
      <trkpt lat="43.63356" lon="3.34696">
        <ele>462</ele>
        <time>2026-05-12T09:48:46.000Z</time>
      </trkpt>
      <trkpt lat="43.63358" lon="3.34704">
        <ele>462</ele>
        <time>2026-05-12T09:48:59.000Z</time>
      </trkpt>
      <trkpt lat="43.63361" lon="3.34706">
        <ele>462</ele>
        <time>2026-05-12T09:49:13.000Z</time>
      </trkpt>
      <trkpt lat="43.63361" lon="3.34707">
        <ele>462</ele>
        <time>2026-05-12T09:49:43.000Z</time>
      </trkpt>
      <trkpt lat="43.63359" lon="3.34706">
        <ele>462</ele>
        <time>2026-05-12T09:50:12.000Z</time>
      </trkpt>
      <trkpt lat="43.63357" lon="3.34707">
        <ele>462</ele>
        <time>2026-05-12T09:50:31.000Z</time>
      </trkpt>
      <trkpt lat="43.63357" lon="3.34706">
        <ele>461</ele>
        <time>2026-05-12T09:50:53.000Z</time>
      </trkpt>
      <trkpt lat="43.63357" lon="3.34705">
        <ele>461</ele>
        <time>2026-05-12T09:51:11.000Z</time>
      </trkpt>
      <trkpt lat="43.63353" lon="3.34695">
        <ele>462</ele>
        <time>2026-05-12T09:51:24.000Z</time>
      </trkpt>
      <trkpt lat="43.63351" lon="3.34694">
        <ele>463</ele>
        <time>2026-05-12T09:51:30.000Z</time>
      </trkpt>
      <trkpt lat="43.63343" lon="3.34694">
        <ele>464</ele>
        <time>2026-05-12T09:51:44.000Z</time>
      </trkpt>
      <trkpt lat="43.63343" lon="3.34683">
        <ele>463</ele>
        <time>2026-05-12T09:51:57.000Z</time>
      </trkpt>
      <trkpt lat="43.63346" lon="3.34666">
        <ele>464</ele>
        <time>2026-05-12T09:52:10.000Z</time>
      </trkpt>
      <trkpt lat="43.63347" lon="3.34648">
        <ele>465</ele>
        <time>2026-05-12T09:52:23.000Z</time>
      </trkpt>
      <trkpt lat="43.63348" lon="3.34632">
        <ele>467</ele>
        <time>2026-05-12T09:52:37.000Z</time>
      </trkpt>
      <trkpt lat="43.63349" lon="3.34615">
        <ele>469</ele>
        <time>2026-05-12T09:52:51.000Z</time>
      </trkpt>
      <trkpt lat="43.63348" lon="3.34592">
        <ele>471</ele>
        <time>2026-05-12T09:53:08.000Z</time>
      </trkpt>
      <trkpt lat="43.63347" lon="3.34566">
        <ele>472</ele>
        <time>2026-05-12T09:53:24.000Z</time>
      </trkpt>
      <trkpt lat="43.63346" lon="3.34543">
        <ele>473</ele>
        <time>2026-05-12T09:53:40.000Z</time>
      </trkpt>
      <trkpt lat="43.63347" lon="3.34518">
        <ele>476</ele>
        <time>2026-05-12T09:53:56.000Z</time>
      </trkpt>
      <trkpt lat="43.63346" lon="3.34498">
        <ele>476</ele>
        <time>2026-05-12T09:54:10.000Z</time>
      </trkpt>
      <trkpt lat="43.63346" lon="3.34475">
        <ele>479</ele>
        <time>2026-05-12T09:54:25.000Z</time>
      </trkpt>
      <trkpt lat="43.63349" lon="3.34457">
        <ele>480</ele>
        <time>2026-05-12T09:54:38.000Z</time>
      </trkpt>
      <trkpt lat="43.63354" lon="3.34437">
        <ele>483</ele>
        <time>2026-05-12T09:54:52.000Z</time>
      </trkpt>
      <trkpt lat="43.63364" lon="3.34412">
        <ele>484</ele>
        <time>2026-05-12T09:55:08.000Z</time>
      </trkpt>
      <trkpt lat="43.63372" lon="3.34397">
        <ele>485</ele>
        <time>2026-05-12T09:55:21.000Z</time>
      </trkpt>
      <trkpt lat="43.63386" lon="3.34378">
        <ele>484</ele>
        <time>2026-05-12T09:55:37.000Z</time>
      </trkpt>
      <trkpt lat="43.634" lon="3.34367">
        <ele>481</ele>
        <time>2026-05-12T09:55:53.000Z</time>
      </trkpt>
      <trkpt lat="43.634" lon="3.34355">
        <ele>478</ele>
        <time>2026-05-12T09:56:05.000Z</time>
      </trkpt>
      <trkpt lat="43.634" lon="3.34339">
        <ele>475</ele>
        <time>2026-05-12T09:56:19.000Z</time>
      </trkpt>
      <trkpt lat="43.634" lon="3.34326">
        <ele>472</ele>
        <time>2026-05-12T09:56:31.000Z</time>
      </trkpt>
      <trkpt lat="43.63407" lon="3.34316">
        <ele>468</ele>
        <time>2026-05-12T09:56:44.000Z</time>
      </trkpt>
      <trkpt lat="43.63419" lon="3.34309">
        <ele>466</ele>
        <time>2026-05-12T09:56:59.000Z</time>
      </trkpt>
      <trkpt lat="43.63427" lon="3.34299">
        <ele>463</ele>
        <time>2026-05-12T09:57:15.000Z</time>
      </trkpt>
      <trkpt lat="43.63435" lon="3.34292">
        <ele>461</ele>
        <time>2026-05-12T09:57:28.000Z</time>
      </trkpt>
      <trkpt lat="43.63448" lon="3.34283">
        <ele>459</ele>
        <time>2026-05-12T09:57:43.000Z</time>
      </trkpt>
      <trkpt lat="43.63452" lon="3.34269">
        <ele>456</ele>
        <time>2026-05-12T09:57:56.000Z</time>
      </trkpt>
      <trkpt lat="43.6345" lon="3.34263">
        <ele>454</ele>
        <time>2026-05-12T09:58:02.000Z</time>
      </trkpt>
      <trkpt lat="43.63448" lon="3.34249">
        <ele>450</ele>
        <time>2026-05-12T09:58:16.000Z</time>
      </trkpt>
      <trkpt lat="43.63446" lon="3.34237">
        <ele>447</ele>
        <time>2026-05-12T09:58:27.000Z</time>
      </trkpt>
      <trkpt lat="43.63439" lon="3.34224">
        <ele>443</ele>
        <time>2026-05-12T09:58:43.000Z</time>
      </trkpt>
      <trkpt lat="43.63433" lon="3.34213">
        <ele>440</ele>
        <time>2026-05-12T09:58:56.000Z</time>
      </trkpt>
      <trkpt lat="43.63426" lon="3.34202">
        <ele>437</ele>
        <time>2026-05-12T09:59:10.000Z</time>
      </trkpt>
      <trkpt lat="43.63417" lon="3.34192">
        <ele>433</ele>
        <time>2026-05-12T09:59:26.000Z</time>
      </trkpt>
      <trkpt lat="43.63415" lon="3.34182">
        <ele>430</ele>
        <time>2026-05-12T09:59:37.000Z</time>
      </trkpt>
      <trkpt lat="43.63413" lon="3.34171">
        <ele>428</ele>
        <time>2026-05-12T09:59:49.000Z</time>
      </trkpt>
      <trkpt lat="43.63405" lon="3.34162">
        <ele>426</ele>
        <time>2026-05-12T10:00:00.000Z</time>
      </trkpt>
      <trkpt lat="43.63401" lon="3.34157">
        <ele>425</ele>
        <time>2026-05-12T10:00:06.000Z</time>
      </trkpt>
      <trkpt lat="43.63396" lon="3.34152">
        <ele>423</ele>
        <time>2026-05-12T10:00:12.000Z</time>
      </trkpt>
      <trkpt lat="43.63388" lon="3.3414">
        <ele>420</ele>
        <time>2026-05-12T10:00:27.000Z</time>
      </trkpt>
      <trkpt lat="43.63383" lon="3.34129">
        <ele>418</ele>
        <time>2026-05-12T10:00:40.000Z</time>
      </trkpt>
      <trkpt lat="43.63378" lon="3.34118">
        <ele>416</ele>
        <time>2026-05-12T10:00:52.000Z</time>
      </trkpt>
      <trkpt lat="43.63374" lon="3.34099">
        <ele>413</ele>
        <time>2026-05-12T10:01:07.000Z</time>
      </trkpt>
      <trkpt lat="43.63368" lon="3.34087">
        <ele>411</ele>
        <time>2026-05-12T10:01:18.000Z</time>
      </trkpt>
      <trkpt lat="43.63356" lon="3.34066">
        <ele>409</ele>
        <time>2026-05-12T10:01:38.000Z</time>
      </trkpt>
      <trkpt lat="43.63348" lon="3.34049">
        <ele>406</ele>
        <time>2026-05-12T10:01:54.000Z</time>
      </trkpt>
      <trkpt lat="43.63342" lon="3.34033">
        <ele>404</ele>
        <time>2026-05-12T10:02:09.000Z</time>
      </trkpt>
      <trkpt lat="43.63334" lon="3.34021">
        <ele>401</ele>
        <time>2026-05-12T10:02:22.000Z</time>
      </trkpt>
      <trkpt lat="43.63331" lon="3.34006">
        <ele>398</ele>
        <time>2026-05-12T10:02:36.000Z</time>
      </trkpt>
      <trkpt lat="43.63328" lon="3.34005">
        <ele>398</ele>
        <time>2026-05-12T10:02:40.000Z</time>
      </trkpt>
      <trkpt lat="43.6331" lon="3.33999">
        <ele>397</ele>
        <time>2026-05-12T10:02:55.000Z</time>
      </trkpt>
      <trkpt lat="43.63305" lon="3.33999">
        <ele>396</ele>
        <time>2026-05-12T10:03:00.000Z</time>
      </trkpt>
      <trkpt lat="43.6329" lon="3.33996">
        <ele>394</ele>
        <time>2026-05-12T10:03:16.000Z</time>
      </trkpt>
      <trkpt lat="43.63278" lon="3.34001">
        <ele>392</ele>
        <time>2026-05-12T10:03:29.000Z</time>
      </trkpt>
      <trkpt lat="43.63269" lon="3.34002">
        <ele>392</ele>
        <time>2026-05-12T10:03:36.000Z</time>
      </trkpt>
      <trkpt lat="43.63253" lon="3.33993">
        <ele>391</ele>
        <time>2026-05-12T10:03:51.000Z</time>
      </trkpt>
      <trkpt lat="43.63249" lon="3.3399">
        <ele>391</ele>
        <time>2026-05-12T10:03:55.000Z</time>
      </trkpt>
      <trkpt lat="43.63248" lon="3.33988">
        <ele>390</ele>
        <time>2026-05-12T10:03:57.000Z</time>
      </trkpt>
      <trkpt lat="43.63244" lon="3.33972">
        <ele>389</ele>
        <time>2026-05-12T10:04:10.000Z</time>
      </trkpt>
      <trkpt lat="43.63238" lon="3.33961">
        <ele>385</ele>
        <time>2026-05-12T10:04:22.000Z</time>
      </trkpt>
      <trkpt lat="43.63231" lon="3.3395">
        <ele>382</ele>
        <time>2026-05-12T10:04:35.000Z</time>
      </trkpt>
      <trkpt lat="43.63222" lon="3.33929">
        <ele>379</ele>
        <time>2026-05-12T10:04:53.000Z</time>
      </trkpt>
      <trkpt lat="43.63224" lon="3.33926">
        <ele>377</ele>
        <time>2026-05-12T10:05:06.000Z</time>
      </trkpt>
      <trkpt lat="43.63219" lon="3.33915">
        <ele>375</ele>
        <time>2026-05-12T10:05:22.000Z</time>
      </trkpt>
      <trkpt lat="43.63211" lon="3.33904">
        <ele>372</ele>
        <time>2026-05-12T10:05:35.000Z</time>
      </trkpt>
      <trkpt lat="43.63202" lon="3.33889">
        <ele>368</ele>
        <time>2026-05-12T10:05:50.000Z</time>
      </trkpt>
      <trkpt lat="43.63198" lon="3.33872">
        <ele>365</ele>
        <time>2026-05-12T10:06:02.000Z</time>
      </trkpt>
      <trkpt lat="43.63189" lon="3.33864">
        <ele>363</ele>
        <time>2026-05-12T10:06:16.000Z</time>
      </trkpt>
      <trkpt lat="43.63177" lon="3.33856">
        <ele>361</ele>
        <time>2026-05-12T10:06:31.000Z</time>
      </trkpt>
      <trkpt lat="43.63175" lon="3.33845">
        <ele>358</ele>
        <time>2026-05-12T10:06:44.000Z</time>
      </trkpt>
      <trkpt lat="43.63164" lon="3.33836">
        <ele>356</ele>
        <time>2026-05-12T10:06:57.000Z</time>
      </trkpt>
      <trkpt lat="43.63154" lon="3.33826">
        <ele>353</ele>
        <time>2026-05-12T10:07:11.000Z</time>
      </trkpt>
      <trkpt lat="43.63151" lon="3.33818">
        <ele>352</ele>
        <time>2026-05-12T10:07:19.000Z</time>
      </trkpt>
      <trkpt lat="43.6315" lon="3.33812">
        <ele>352</ele>
        <time>2026-05-12T10:07:23.000Z</time>
      </trkpt>
      <trkpt lat="43.63153" lon="3.338">
        <ele>351</ele>
        <time>2026-05-12T10:07:33.000Z</time>
      </trkpt>
      <trkpt lat="43.63152" lon="3.33791">
        <ele>351</ele>
        <time>2026-05-12T10:07:39.000Z</time>
      </trkpt>
      <trkpt lat="43.63153" lon="3.33785">
        <ele>351</ele>
        <time>2026-05-12T10:07:43.000Z</time>
      </trkpt>
      <trkpt lat="43.63147" lon="3.33766">
        <ele>350</ele>
        <time>2026-05-12T10:07:57.000Z</time>
      </trkpt>
      <trkpt lat="43.63146" lon="3.33765">
        <ele>349</ele>
        <time>2026-05-12T10:07:58.000Z</time>
      </trkpt>
      <trkpt lat="43.63138" lon="3.33746">
        <ele>348</ele>
        <time>2026-05-12T10:08:11.000Z</time>
      </trkpt>
      <trkpt lat="43.63124" lon="3.33731">
        <ele>346</ele>
        <time>2026-05-12T10:08:28.000Z</time>
      </trkpt>
      <trkpt lat="43.63123" lon="3.33724">
        <ele>344</ele>
        <time>2026-05-12T10:08:33.000Z</time>
      </trkpt>
      <trkpt lat="43.63121" lon="3.33721">
        <ele>344</ele>
        <time>2026-05-12T10:08:36.000Z</time>
      </trkpt>
      <trkpt lat="43.63112" lon="3.33708">
        <ele>342</ele>
        <time>2026-05-12T10:08:50.000Z</time>
      </trkpt>
      <trkpt lat="43.63106" lon="3.33699">
        <ele>339</ele>
        <time>2026-05-12T10:09:02.000Z</time>
      </trkpt>
      <trkpt lat="43.63103" lon="3.33686">
        <ele>336</ele>
        <time>2026-05-12T10:09:15.000Z</time>
      </trkpt>
      <trkpt lat="43.63099" lon="3.33677">
        <ele>332</ele>
        <time>2026-05-12T10:09:27.000Z</time>
      </trkpt>
      <trkpt lat="43.63096" lon="3.33666">
        <ele>329</ele>
        <time>2026-05-12T10:09:40.000Z</time>
      </trkpt>
      <trkpt lat="43.63093" lon="3.33653">
        <ele>327</ele>
        <time>2026-05-12T10:09:53.000Z</time>
      </trkpt>
      <trkpt lat="43.63088" lon="3.33643">
        <ele>324</ele>
        <time>2026-05-12T10:10:04.000Z</time>
      </trkpt>
      <trkpt lat="43.63084" lon="3.33625">
        <ele>323</ele>
        <time>2026-05-12T10:10:18.000Z</time>
      </trkpt>
      <trkpt lat="43.6308" lon="3.33614">
        <ele>323</ele>
        <time>2026-05-12T10:10:32.000Z</time>
      </trkpt>
      <trkpt lat="43.6308" lon="3.33613">
        <ele>322</ele>
        <time>2026-05-12T10:10:36.000Z</time>
      </trkpt>
      <trkpt lat="43.63075" lon="3.3361">
        <ele>320</ele>
        <time>2026-05-12T10:10:49.000Z</time>
      </trkpt>
      <trkpt lat="43.63067" lon="3.33605">
        <ele>319</ele>
        <time>2026-05-12T10:11:01.000Z</time>
      </trkpt>
      <trkpt lat="43.63053" lon="3.33591">
        <ele>317</ele>
        <time>2026-05-12T10:11:18.000Z</time>
      </trkpt>
      <trkpt lat="43.63051" lon="3.33577">
        <ele>315</ele>
        <time>2026-05-12T10:11:32.000Z</time>
      </trkpt>
      <trkpt lat="43.63056" lon="3.33566">
        <ele>313</ele>
        <time>2026-05-12T10:11:46.000Z</time>
      </trkpt>
      <trkpt lat="43.63059" lon="3.33554">
        <ele>311</ele>
        <time>2026-05-12T10:12:02.000Z</time>
      </trkpt>
      <trkpt lat="43.63064" lon="3.33535">
        <ele>308</ele>
        <time>2026-05-12T10:12:15.000Z</time>
      </trkpt>
      <trkpt lat="43.63073" lon="3.33516">
        <ele>305</ele>
        <time>2026-05-12T10:12:32.000Z</time>
      </trkpt>
      <trkpt lat="43.63084" lon="3.33502">
        <ele>304</ele>
        <time>2026-05-12T10:12:47.000Z</time>
      </trkpt>
      <trkpt lat="43.63098" lon="3.33486">
        <ele>301</ele>
        <time>2026-05-12T10:13:01.000Z</time>
      </trkpt>
      <trkpt lat="43.63109" lon="3.33472">
        <ele>300</ele>
        <time>2026-05-12T10:13:14.000Z</time>
      </trkpt>
      <trkpt lat="43.63121" lon="3.33461">
        <ele>299</ele>
        <time>2026-05-12T10:13:28.000Z</time>
      </trkpt>
      <trkpt lat="43.63128" lon="3.33449">
        <ele>297</ele>
        <time>2026-05-12T10:13:42.000Z</time>
      </trkpt>
      <trkpt lat="43.63133" lon="3.3344">
        <ele>297</ele>
        <time>2026-05-12T10:13:56.000Z</time>
      </trkpt>
      <trkpt lat="43.63137" lon="3.33433">
        <ele>297</ele>
        <time>2026-05-12T10:14:09.000Z</time>
      </trkpt>
      <trkpt lat="43.63145" lon="3.33419">
        <ele>296</ele>
        <time>2026-05-12T10:14:25.000Z</time>
      </trkpt>
      <trkpt lat="43.63148" lon="3.33409">
        <ele>295</ele>
        <time>2026-05-12T10:14:39.000Z</time>
      </trkpt>
      <trkpt lat="43.63151" lon="3.33398">
        <ele>293</ele>
        <time>2026-05-12T10:14:54.000Z</time>
      </trkpt>
      <trkpt lat="43.63158" lon="3.33384">
        <ele>292</ele>
        <time>2026-05-12T10:15:08.000Z</time>
      </trkpt>
      <trkpt lat="43.63167" lon="3.33365">
        <ele>290</ele>
        <time>2026-05-12T10:15:23.000Z</time>
      </trkpt>
      <trkpt lat="43.63175" lon="3.33348">
        <ele>288</ele>
        <time>2026-05-12T10:15:36.000Z</time>
      </trkpt>
      <trkpt lat="43.63184" lon="3.33333">
        <ele>287</ele>
        <time>2026-05-12T10:15:49.000Z</time>
      </trkpt>
      <trkpt lat="43.63194" lon="3.33319">
        <ele>286</ele>
        <time>2026-05-12T10:16:02.000Z</time>
      </trkpt>
      <trkpt lat="43.63204" lon="3.33308">
        <ele>284</ele>
        <time>2026-05-12T10:16:17.000Z</time>
      </trkpt>
      <trkpt lat="43.63215" lon="3.33296">
        <ele>282</ele>
        <time>2026-05-12T10:16:32.000Z</time>
      </trkpt>
      <trkpt lat="43.63225" lon="3.33287">
        <ele>281</ele>
        <time>2026-05-12T10:16:44.000Z</time>
      </trkpt>
      <trkpt lat="43.63236" lon="3.33273">
        <ele>278</ele>
        <time>2026-05-12T10:17:01.000Z</time>
      </trkpt>
      <trkpt lat="43.63244" lon="3.33261">
        <ele>277</ele>
        <time>2026-05-12T10:17:16.000Z</time>
      </trkpt>
      <trkpt lat="43.63252" lon="3.3325">
        <ele>275</ele>
        <time>2026-05-12T10:17:30.000Z</time>
      </trkpt>
      <trkpt lat="43.63257" lon="3.33241">
        <ele>272</ele>
        <time>2026-05-12T10:17:40.000Z</time>
      </trkpt>
      <trkpt lat="43.63256" lon="3.33226">
        <ele>269</ele>
        <time>2026-05-12T10:17:55.000Z</time>
      </trkpt>
      <trkpt lat="43.63249" lon="3.33214">
        <ele>267</ele>
        <time>2026-05-12T10:18:09.000Z</time>
      </trkpt>
      <trkpt lat="43.63245" lon="3.332">
        <ele>263</ele>
        <time>2026-05-12T10:18:24.000Z</time>
      </trkpt>
      <trkpt lat="43.63244" lon="3.33189">
        <ele>261</ele>
        <time>2026-05-12T10:18:38.000Z</time>
      </trkpt>
      <trkpt lat="43.63246" lon="3.33169">
        <ele>258</ele>
        <time>2026-05-12T10:18:54.000Z</time>
      </trkpt>
      <trkpt lat="43.63243" lon="3.33153">
        <ele>255</ele>
        <time>2026-05-12T10:19:10.000Z</time>
      </trkpt>
      <trkpt lat="43.63247" lon="3.33136">
        <ele>254</ele>
        <time>2026-05-12T10:19:25.000Z</time>
      </trkpt>
      <trkpt lat="43.63246" lon="3.33121">
        <ele>252</ele>
        <time>2026-05-12T10:19:39.000Z</time>
      </trkpt>
      <trkpt lat="43.63248" lon="3.33106">
        <ele>251</ele>
        <time>2026-05-12T10:19:54.000Z</time>
      </trkpt>
      <trkpt lat="43.6325" lon="3.33099">
        <ele>250</ele>
        <time>2026-05-12T10:20:07.000Z</time>
      </trkpt>
      <trkpt lat="43.63256" lon="3.33082">
        <ele>248</ele>
        <time>2026-05-12T10:20:25.000Z</time>
      </trkpt>
      <trkpt lat="43.63264" lon="3.33065">
        <ele>246</ele>
        <time>2026-05-12T10:20:41.000Z</time>
      </trkpt>
      <trkpt lat="43.63274" lon="3.33053">
        <ele>244</ele>
        <time>2026-05-12T10:20:57.000Z</time>
      </trkpt>
      <trkpt lat="43.63283" lon="3.33038">
        <ele>242</ele>
        <time>2026-05-12T10:21:15.000Z</time>
      </trkpt>
      <trkpt lat="43.6329" lon="3.33027">
        <ele>240</ele>
        <time>2026-05-12T10:21:27.000Z</time>
      </trkpt>
      <trkpt lat="43.63292" lon="3.33019">
        <ele>237</ele>
        <time>2026-05-12T10:21:38.000Z</time>
      </trkpt>
      <trkpt lat="43.63296" lon="3.33011">
        <ele>234</ele>
        <time>2026-05-12T10:21:53.000Z</time>
      </trkpt>
      <trkpt lat="43.63301" lon="3.32999">
        <ele>231</ele>
        <time>2026-05-12T10:22:07.000Z</time>
      </trkpt>
      <trkpt lat="43.63305" lon="3.32986">
        <ele>228</ele>
        <time>2026-05-12T10:22:22.000Z</time>
      </trkpt>
      <trkpt lat="43.6331" lon="3.32978">
        <ele>226</ele>
        <time>2026-05-12T10:22:34.000Z</time>
      </trkpt>
      <trkpt lat="43.63312" lon="3.32976">
        <ele>224</ele>
        <time>2026-05-12T10:22:41.000Z</time>
      </trkpt>
      <trkpt lat="43.63318" lon="3.32968">
        <ele>221</ele>
        <time>2026-05-12T10:22:52.000Z</time>
      </trkpt>
      <trkpt lat="43.63325" lon="3.32954">
        <ele>218</ele>
        <time>2026-05-12T10:23:05.000Z</time>
      </trkpt>
      <trkpt lat="43.63326" lon="3.32952">
        <ele>217</ele>
        <time>2026-05-12T10:23:08.000Z</time>
      </trkpt>
      <trkpt lat="43.63328" lon="3.32942">
        <ele>217</ele>
        <time>2026-05-12T10:23:20.000Z</time>
      </trkpt>
      <trkpt lat="43.63332" lon="3.32929">
        <ele>215</ele>
        <time>2026-05-12T10:23:33.000Z</time>
      </trkpt>
      <trkpt lat="43.63337" lon="3.32916">
        <ele>214</ele>
        <time>2026-05-12T10:23:44.000Z</time>
      </trkpt>
      <trkpt lat="43.63344" lon="3.329">
        <ele>212</ele>
        <time>2026-05-12T10:23:59.000Z</time>
      </trkpt>
      <trkpt lat="43.63344" lon="3.3289">
        <ele>212</ele>
        <time>2026-05-12T10:24:14.000Z</time>
      </trkpt>
      <trkpt lat="43.63343" lon="3.32888">
        <ele>211</ele>
        <time>2026-05-12T10:24:30.000Z</time>
      </trkpt>
      <trkpt lat="43.63345" lon="3.32885">
        <ele>209</ele>
        <time>2026-05-12T10:24:45.000Z</time>
      </trkpt>
      <trkpt lat="43.63342" lon="3.32885">
        <ele>209</ele>
        <time>2026-05-12T10:24:59.000Z</time>
      </trkpt>
      <trkpt lat="43.6334" lon="3.32881">
        <ele>209</ele>
        <time>2026-05-12T10:25:25.000Z</time>
      </trkpt>
      <trkpt lat="43.63336" lon="3.32872">
        <ele>206</ele>
        <time>2026-05-12T10:25:39.000Z</time>
      </trkpt>
      <trkpt lat="43.63327" lon="3.32861">
        <ele>204</ele>
        <time>2026-05-12T10:25:55.000Z</time>
      </trkpt>
      <trkpt lat="43.63319" lon="3.32847">
        <ele>203</ele>
        <time>2026-05-12T10:26:10.000Z</time>
      </trkpt>
      <trkpt lat="43.6332" lon="3.32834">
        <ele>201</ele>
        <time>2026-05-12T10:26:22.000Z</time>
      </trkpt>
      <trkpt lat="43.63324" lon="3.32821">
        <ele>200</ele>
        <time>2026-05-12T10:26:35.000Z</time>
      </trkpt>
      <trkpt lat="43.63327" lon="3.32813">
        <ele>200</ele>
        <time>2026-05-12T10:26:42.000Z</time>
      </trkpt>
      <trkpt lat="43.6332" lon="3.32795">
        <ele>198</ele>
        <time>2026-05-12T10:26:58.000Z</time>
      </trkpt>
      <trkpt lat="43.63308" lon="3.32777">
        <ele>198</ele>
        <time>2026-05-12T10:27:14.000Z</time>
      </trkpt>
      <trkpt lat="43.63303" lon="3.32772">
        <ele>198</ele>
        <time>2026-05-12T10:27:28.000Z</time>
      </trkpt>
      <trkpt lat="43.63302" lon="3.32762">
        <ele>197</ele>
        <time>2026-05-12T10:27:42.000Z</time>
      </trkpt>
      <trkpt lat="43.63302" lon="3.32753">
        <ele>196</ele>
        <time>2026-05-12T10:27:54.000Z</time>
      </trkpt>
      <trkpt lat="43.63302" lon="3.32742">
        <ele>196</ele>
        <time>2026-05-12T10:28:01.000Z</time>
      </trkpt>
      <trkpt lat="43.63306" lon="3.32717">
        <ele>196</ele>
        <time>2026-05-12T10:28:17.000Z</time>
      </trkpt>
      <trkpt lat="43.63311" lon="3.32697">
        <ele>195</ele>
        <time>2026-05-12T10:28:31.000Z</time>
      </trkpt>
      <trkpt lat="43.63311" lon="3.32695">
        <ele>195</ele>
        <time>2026-05-12T10:28:33.000Z</time>
      </trkpt>
      <trkpt lat="43.63312" lon="3.3268">
        <ele>194</ele>
        <time>2026-05-12T10:28:45.000Z</time>
      </trkpt>
      <trkpt lat="43.63316" lon="3.3267">
        <ele>195</ele>
        <time>2026-05-12T10:28:52.000Z</time>
      </trkpt>
      <trkpt lat="43.63325" lon="3.32654">
        <ele>195</ele>
        <time>2026-05-12T10:29:05.000Z</time>
      </trkpt>
      <trkpt lat="43.63334" lon="3.32631">
        <ele>195</ele>
        <time>2026-05-12T10:29:22.000Z</time>
      </trkpt>
      <trkpt lat="43.63334" lon="3.32629">
        <ele>194</ele>
        <time>2026-05-12T10:29:24.000Z</time>
      </trkpt>
      <trkpt lat="43.63333" lon="3.32627">
        <ele>194</ele>
        <time>2026-05-12T10:29:39.000Z</time>
      </trkpt>
      <trkpt lat="43.63336" lon="3.32621">
        <ele>194</ele>
        <time>2026-05-12T10:29:48.000Z</time>
      </trkpt>
      <trkpt lat="43.63348" lon="3.32601">
        <ele>194</ele>
        <time>2026-05-12T10:30:04.000Z</time>
      </trkpt>
      <trkpt lat="43.63358" lon="3.32576">
        <ele>192</ele>
        <time>2026-05-12T10:30:21.000Z</time>
      </trkpt>
      <trkpt lat="43.63362" lon="3.32566">
        <ele>191</ele>
        <time>2026-05-12T10:30:28.000Z</time>
      </trkpt>
      <trkpt lat="43.63377" lon="3.32549">
        <ele>190</ele>
        <time>2026-05-12T10:30:44.000Z</time>
      </trkpt>
      <trkpt lat="43.63383" lon="3.32543">
        <ele>190</ele>
        <time>2026-05-12T10:30:50.000Z</time>
      </trkpt>
      <trkpt lat="43.63398" lon="3.32521">
        <ele>188</ele>
        <time>2026-05-12T10:31:07.000Z</time>
      </trkpt>
      <trkpt lat="43.63405" lon="3.32501">
        <ele>187</ele>
        <time>2026-05-12T10:31:23.000Z</time>
      </trkpt>
      <trkpt lat="43.63405" lon="3.32499">
        <ele>187</ele>
        <time>2026-05-12T10:31:27.000Z</time>
      </trkpt>
      <trkpt lat="43.63412" lon="3.3247">
        <ele>185</ele>
        <time>2026-05-12T10:31:45.000Z</time>
      </trkpt>
      <trkpt lat="43.63416" lon="3.32457">
        <ele>182</ele>
        <time>2026-05-12T10:31:57.000Z</time>
      </trkpt>
      <trkpt lat="43.63419" lon="3.32464">
        <ele>182</ele>
        <time>2026-05-12T10:32:07.000Z</time>
      </trkpt>
      <trkpt lat="43.63421" lon="3.32471">
        <ele>182</ele>
        <time>2026-05-12T10:32:12.000Z</time>
      </trkpt>
      <trkpt lat="43.63423" lon="3.32477">
        <ele>182</ele>
        <time>2026-05-12T10:32:17.000Z</time>
      </trkpt>
      <trkpt lat="43.63433" lon="3.32504">
        <ele>179</ele>
        <time>2026-05-12T10:32:35.000Z</time>
      </trkpt>
      <trkpt lat="43.63436" lon="3.32511">
        <ele>179</ele>
        <time>2026-05-12T10:32:40.000Z</time>
      </trkpt>
      <trkpt lat="43.63441" lon="3.32521">
        <ele>179</ele>
        <time>2026-05-12T10:32:48.000Z</time>
      </trkpt>
      <trkpt lat="43.63446" lon="3.32532">
        <ele>178</ele>
        <time>2026-05-12T10:32:56.000Z</time>
      </trkpt>
      <trkpt lat="43.63454" lon="3.32547">
        <ele>178</ele>
        <time>2026-05-12T10:33:06.000Z</time>
      </trkpt>
      <trkpt lat="43.63465" lon="3.3257">
        <ele>178</ele>
        <time>2026-05-12T10:33:21.000Z</time>
      </trkpt>
      <trkpt lat="43.63476" lon="3.32597">
        <ele>178</ele>
        <time>2026-05-12T10:33:39.000Z</time>
      </trkpt>
      <trkpt lat="43.63481" lon="3.3261">
        <ele>178</ele>
        <time>2026-05-12T10:33:49.000Z</time>
      </trkpt>
      <trkpt lat="43.63494" lon="3.32616">
        <ele>178</ele>
        <time>2026-05-12T10:34:01.000Z</time>
      </trkpt>
      <trkpt lat="43.63497" lon="3.32614">
        <ele>177</ele>
        <time>2026-05-12T10:34:04.000Z</time>
      </trkpt>
      <trkpt lat="43.63512" lon="3.32595">
        <ele>175</ele>
        <time>2026-05-12T10:34:22.000Z</time>
      </trkpt>
      <trkpt lat="43.63512" lon="3.32594">
        <ele>175</ele>
        <time>2026-05-12T10:34:23.000Z</time>
      </trkpt>
      <trkpt lat="43.63516" lon="3.32588">
        <ele>175</ele>
        <time>2026-05-12T10:34:32.000Z</time>
      </trkpt>
      <trkpt lat="43.63535" lon="3.32568">
        <ele>173</ele>
        <time>2026-05-12T10:34:51.000Z</time>
      </trkpt>
      <trkpt lat="43.63544" lon="3.32546">
        <ele>171</ele>
        <time>2026-05-12T10:35:07.000Z</time>
      </trkpt>
      <trkpt lat="43.63554" lon="3.32527">
        <ele>169</ele>
        <time>2026-05-12T10:35:23.000Z</time>
      </trkpt>
      <trkpt lat="43.63557" lon="3.32525">
        <ele>168</ele>
        <time>2026-05-12T10:35:26.000Z</time>
      </trkpt>
      <trkpt lat="43.63561" lon="3.32523">
        <ele>168</ele>
        <time>2026-05-12T10:35:30.000Z</time>
      </trkpt>
      <trkpt lat="43.63579" lon="3.32515">
        <ele>165</ele>
        <time>2026-05-12T10:35:47.000Z</time>
      </trkpt>
      <trkpt lat="43.6359" lon="3.3251">
        <ele>165</ele>
        <time>2026-05-12T10:35:57.000Z</time>
      </trkpt>
      <trkpt lat="43.63595" lon="3.32506">
        <ele>164</ele>
        <time>2026-05-12T10:36:05.000Z</time>
      </trkpt>
      <trkpt lat="43.63597" lon="3.32503">
        <ele>165</ele>
        <time>2026-05-12T10:36:07.000Z</time>
      </trkpt>
      <trkpt lat="43.636" lon="3.32497">
        <ele>164</ele>
        <time>2026-05-12T10:36:11.000Z</time>
      </trkpt>
      <trkpt lat="43.63612" lon="3.32479">
        <ele>164</ele>
        <time>2026-05-12T10:36:26.000Z</time>
      </trkpt>
      <trkpt lat="43.63628" lon="3.32467">
        <ele>164</ele>
        <time>2026-05-12T10:36:41.000Z</time>
      </trkpt>
      <trkpt lat="43.63642" lon="3.32447">
        <ele>161</ele>
        <time>2026-05-12T10:36:58.000Z</time>
      </trkpt>
      <trkpt lat="43.63646" lon="3.32441">
        <ele>161</ele>
        <time>2026-05-12T10:37:04.000Z</time>
      </trkpt>
      <trkpt lat="43.63656" lon="3.32426">
        <ele>161</ele>
        <time>2026-05-12T10:37:17.000Z</time>
      </trkpt>
      <trkpt lat="43.63672" lon="3.32401">
        <ele>158</ele>
        <time>2026-05-12T10:37:35.000Z</time>
      </trkpt>
      <trkpt lat="43.63686" lon="3.32399">
        <ele>158</ele>
        <time>2026-05-12T10:37:49.000Z</time>
      </trkpt>
      <trkpt lat="43.63699" lon="3.32418">
        <ele>157</ele>
        <time>2026-05-12T10:38:04.000Z</time>
      </trkpt>
      <trkpt lat="43.63702" lon="3.32419">
        <ele>157</ele>
        <time>2026-05-12T10:38:08.000Z</time>
      </trkpt>
      <trkpt lat="43.63703" lon="3.32408">
        <ele>158</ele>
        <time>2026-05-12T10:38:22.000Z</time>
      </trkpt>
      <trkpt lat="43.6371" lon="3.32425">
        <ele>158</ele>
        <time>2026-05-12T10:38:36.000Z</time>
      </trkpt>
      <trkpt lat="43.63712" lon="3.32427">
        <ele>157</ele>
        <time>2026-05-12T10:38:38.000Z</time>
      </trkpt>
      <trkpt lat="43.6373" lon="3.32447">
        <ele>157</ele>
        <time>2026-05-12T10:38:56.000Z</time>
      </trkpt>
      <trkpt lat="43.63732" lon="3.32449">
        <ele>157</ele>
        <time>2026-05-12T10:38:58.000Z</time>
      </trkpt>
      <trkpt lat="43.63751" lon="3.32458">
        <ele>156</ele>
        <time>2026-05-12T10:39:13.000Z</time>
      </trkpt>
      <trkpt lat="43.63773" lon="3.32468">
        <ele>155</ele>
        <time>2026-05-12T10:39:32.000Z</time>
      </trkpt>
      <trkpt lat="43.63791" lon="3.32467">
        <ele>154</ele>
        <time>2026-05-12T10:39:47.000Z</time>
      </trkpt>
      <trkpt lat="43.63809" lon="3.32472">
        <ele>153</ele>
        <time>2026-05-12T10:40:03.000Z</time>
      </trkpt>
      <trkpt lat="43.63832" lon="3.3248">
        <ele>150</ele>
        <time>2026-05-12T10:40:23.000Z</time>
      </trkpt>
      <trkpt lat="43.63846" lon="3.32478">
        <ele>149</ele>
        <time>2026-05-12T10:40:36.000Z</time>
      </trkpt>
      <trkpt lat="43.6387" lon="3.32475">
        <ele>148</ele>
        <time>2026-05-12T10:40:55.000Z</time>
      </trkpt>
      <trkpt lat="43.63891" lon="3.32475">
        <ele>147</ele>
        <time>2026-05-12T10:41:12.000Z</time>
      </trkpt>
      <trkpt lat="43.63917" lon="3.32469">
        <ele>146</ele>
        <time>2026-05-12T10:41:32.000Z</time>
      </trkpt>
      <trkpt lat="43.63939" lon="3.3246">
        <ele>146</ele>
        <time>2026-05-12T10:41:50.000Z</time>
      </trkpt>
      <trkpt lat="43.6396" lon="3.32452">
        <ele>145</ele>
        <time>2026-05-12T10:42:07.000Z</time>
      </trkpt>
      <trkpt lat="43.63974" lon="3.32448">
        <ele>145</ele>
        <time>2026-05-12T10:42:20.000Z</time>
      </trkpt>
      <trkpt lat="43.63975" lon="3.32451">
        <ele>145</ele>
        <time>2026-05-12T10:42:23.000Z</time>
      </trkpt>
      <trkpt lat="43.63978" lon="3.3246">
        <ele>144</ele>
        <time>2026-05-12T10:42:30.000Z</time>
      </trkpt>
      <trkpt lat="43.63994" lon="3.32459">
        <ele>144</ele>
        <time>2026-05-12T10:42:44.000Z</time>
      </trkpt>
      <trkpt lat="43.64014" lon="3.32463">
        <ele>144</ele>
        <time>2026-05-12T10:43:01.000Z</time>
      </trkpt>
      <trkpt lat="43.64033" lon="3.32464">
        <ele>144</ele>
        <time>2026-05-12T10:43:16.000Z</time>
      </trkpt>
      <trkpt lat="43.64039" lon="3.32465">
        <ele>143</ele>
        <time>2026-05-12T10:43:21.000Z</time>
      </trkpt>
      <trkpt lat="43.64056" lon="3.32489">
        <ele>143</ele>
        <time>2026-05-12T10:43:39.000Z</time>
      </trkpt>
      <trkpt lat="43.64071" lon="3.32509">
        <ele>143</ele>
        <time>2026-05-12T10:43:55.000Z</time>
      </trkpt>
      <trkpt lat="43.64078" lon="3.32523">
        <ele>142</ele>
        <time>2026-05-12T10:44:09.000Z</time>
      </trkpt>
      <trkpt lat="43.64081" lon="3.32534">
        <ele>142</ele>
        <time>2026-05-12T10:44:17.000Z</time>
      </trkpt>
      <trkpt lat="43.6409" lon="3.32554">
        <ele>142</ele>
        <time>2026-05-12T10:44:33.000Z</time>
      </trkpt>
      <trkpt lat="43.64091" lon="3.32557">
        <ele>142</ele>
        <time>2026-05-12T10:44:35.000Z</time>
      </trkpt>
      <trkpt lat="43.64104" lon="3.32573">
        <ele>142</ele>
        <time>2026-05-12T10:44:50.000Z</time>
      </trkpt>
      <trkpt lat="43.64117" lon="3.32596">
        <ele>142</ele>
        <time>2026-05-12T10:45:06.000Z</time>
      </trkpt>
      <trkpt lat="43.64124" lon="3.32609">
        <ele>142</ele>
        <time>2026-05-12T10:45:17.000Z</time>
      </trkpt>
      <trkpt lat="43.64134" lon="3.32631">
        <ele>142</ele>
        <time>2026-05-12T10:45:32.000Z</time>
      </trkpt>
      <trkpt lat="43.64145" lon="3.32652">
        <ele>142</ele>
        <time>2026-05-12T10:45:48.000Z</time>
      </trkpt>
      <trkpt lat="43.64148" lon="3.32659">
        <ele>141</ele>
        <time>2026-05-12T10:45:53.000Z</time>
      </trkpt>
      <trkpt lat="43.64152" lon="3.32664">
        <ele>141</ele>
        <time>2026-05-12T10:45:57.000Z</time>
      </trkpt>
      <trkpt lat="43.64166" lon="3.3268">
        <ele>141</ele>
        <time>2026-05-12T10:46:12.000Z</time>
      </trkpt>
      <trkpt lat="43.64173" lon="3.32691">
        <ele>141</ele>
        <time>2026-05-12T10:46:21.000Z</time>
      </trkpt>
      <trkpt lat="43.64184" lon="3.32691">
        <ele>141</ele>
        <time>2026-05-12T10:46:32.000Z</time>
      </trkpt>
      <trkpt lat="43.64192" lon="3.327">
        <ele>143</ele>
        <time>2026-05-12T10:46:40.000Z</time>
      </trkpt>
      <trkpt lat="43.64193" lon="3.32702">
        <ele>141</ele>
        <time>2026-05-12T10:46:42.000Z</time>
      </trkpt>
      <trkpt lat="43.64203" lon="3.32712">
        <ele>142</ele>
        <time>2026-05-12T10:46:52.000Z</time>
      </trkpt>
      <trkpt lat="43.64205" lon="3.32714">
        <ele>142</ele>
        <time>2026-05-12T10:46:54.000Z</time>
      </trkpt>
      <trkpt lat="43.64208" lon="3.32718">
        <ele>143</ele>
        <time>2026-05-12T10:46:57.000Z</time>
      </trkpt>
      <trkpt lat="43.64221" lon="3.3273">
        <ele>144</ele>
        <time>2026-05-12T10:47:10.000Z</time>
      </trkpt>
      <trkpt lat="43.64224" lon="3.3273">
        <ele>144</ele>
        <time>2026-05-12T10:47:13.000Z</time>
      </trkpt>
      <trkpt lat="43.64228" lon="3.32729">
        <ele>143</ele>
        <time>2026-05-12T10:47:17.000Z</time>
      </trkpt>
      <trkpt lat="43.6423" lon="3.3273">
        <ele>143</ele>
        <time>2026-05-12T10:47:19.000Z</time>
      </trkpt>
      <trkpt lat="43.64238" lon="3.32732">
        <ele>144</ele>
        <time>2026-05-12T10:47:26.000Z</time>
      </trkpt>
      <trkpt lat="43.64253" lon="3.32737">
        <ele>143</ele>
        <time>2026-05-12T10:47:41.000Z</time>
      </trkpt>
      <trkpt lat="43.64255" lon="3.32737">
        <ele>143</ele>
        <time>2026-05-12T10:47:44.000Z</time>
      </trkpt>
      <trkpt lat="43.64271" lon="3.32744">
        <ele>141</ele>
        <time>2026-05-12T10:47:59.000Z</time>
      </trkpt>
      <trkpt lat="43.64272" lon="3.32746">
        <ele>141</ele>
        <time>2026-05-12T10:48:01.000Z</time>
      </trkpt>
      <trkpt lat="43.64281" lon="3.32756">
        <ele>141</ele>
        <time>2026-05-12T10:48:11.000Z</time>
      </trkpt>
      <trkpt lat="43.64286" lon="3.32755">
        <ele>141</ele>
        <time>2026-05-12T10:48:16.000Z</time>
      </trkpt>
      <trkpt lat="43.6429" lon="3.32756">
        <ele>141</ele>
        <time>2026-05-12T10:48:20.000Z</time>
      </trkpt>
      <trkpt lat="43.64293" lon="3.32757">
        <ele>142</ele>
        <time>2026-05-12T10:48:23.000Z</time>
      </trkpt>
      <trkpt lat="43.64299" lon="3.32766">
        <ele>143</ele>
        <time>2026-05-12T10:48:28.000Z</time>
      </trkpt>
      <trkpt lat="43.64304" lon="3.32777">
        <ele>143</ele>
        <time>2026-05-12T10:48:35.000Z</time>
      </trkpt>
      <trkpt lat="43.64308" lon="3.32782">
        <ele>144</ele>
        <time>2026-05-12T10:48:39.000Z</time>
      </trkpt>
      <trkpt lat="43.64312" lon="3.32784">
        <ele>144</ele>
        <time>2026-05-12T10:48:42.000Z</time>
      </trkpt>
      <trkpt lat="43.64328" lon="3.32767">
        <ele>144</ele>
        <time>2026-05-12T10:48:57.000Z</time>
      </trkpt>
      <trkpt lat="43.64329" lon="3.32766">
        <ele>145</ele>
        <time>2026-05-12T10:48:58.000Z</time>
      </trkpt>
      <trkpt lat="43.64338" lon="3.32762">
        <ele>145</ele>
        <time>2026-05-12T10:49:07.000Z</time>
      </trkpt>
      <trkpt lat="43.64342" lon="3.32764">
        <ele>145</ele>
        <time>2026-05-12T10:49:11.000Z</time>
      </trkpt>
      <trkpt lat="43.64365" lon="3.32771">
        <ele>145</ele>
        <time>2026-05-12T10:49:29.000Z</time>
      </trkpt>
      <trkpt lat="43.64381" lon="3.32782">
        <ele>145</ele>
        <time>2026-05-12T10:49:44.000Z</time>
      </trkpt>
      <trkpt lat="43.644" lon="3.32791">
        <ele>143</ele>
        <time>2026-05-12T10:49:59.000Z</time>
      </trkpt>
      <trkpt lat="43.64421" lon="3.32791">
        <ele>143</ele>
        <time>2026-05-12T10:50:15.000Z</time>
      </trkpt>
      <trkpt lat="43.64442" lon="3.32791">
        <ele>142</ele>
        <time>2026-05-12T10:50:31.000Z</time>
      </trkpt>
      <trkpt lat="43.64446" lon="3.32795">
        <ele>142</ele>
        <time>2026-05-12T10:50:36.000Z</time>
      </trkpt>
      <trkpt lat="43.64456" lon="3.32814">
        <ele>141</ele>
        <time>2026-05-12T10:50:52.000Z</time>
      </trkpt>
      <trkpt lat="43.64461" lon="3.32828">
        <ele>141</ele>
        <time>2026-05-12T10:51:02.000Z</time>
      </trkpt>
      <trkpt lat="43.64475" lon="3.32842">
        <ele>141</ele>
        <time>2026-05-12T10:51:17.000Z</time>
      </trkpt>
      <trkpt lat="43.64486" lon="3.32858">
        <ele>141</ele>
        <time>2026-05-12T10:51:29.000Z</time>
      </trkpt>
      <trkpt lat="43.64494" lon="3.32872">
        <ele>141</ele>
        <time>2026-05-12T10:51:40.000Z</time>
      </trkpt>
      <trkpt lat="43.64509" lon="3.3289">
        <ele>143</ele>
        <time>2026-05-12T10:51:55.000Z</time>
      </trkpt>
      <trkpt lat="43.64523" lon="3.32911">
        <ele>144</ele>
        <time>2026-05-12T10:52:10.000Z</time>
      </trkpt>
      <trkpt lat="43.64538" lon="3.32926">
        <ele>145</ele>
        <time>2026-05-12T10:52:25.000Z</time>
      </trkpt>
      <trkpt lat="43.6454" lon="3.32928">
        <ele>145</ele>
        <time>2026-05-12T10:52:28.000Z</time>
      </trkpt>
      <trkpt lat="43.64541" lon="3.32931">
        <ele>145</ele>
        <time>2026-05-12T10:52:30.000Z</time>
      </trkpt>
      <trkpt lat="43.64547" lon="3.3294">
        <ele>145</ele>
        <time>2026-05-12T10:52:38.000Z</time>
      </trkpt>
      <trkpt lat="43.64547" lon="3.32943">
        <ele>145</ele>
        <time>2026-05-12T10:52:40.000Z</time>
      </trkpt>
      <trkpt lat="43.6455" lon="3.3295">
        <ele>143</ele>
        <time>2026-05-12T10:52:45.000Z</time>
      </trkpt>
      <trkpt lat="43.6456" lon="3.32967">
        <ele>143</ele>
        <time>2026-05-12T10:52:58.000Z</time>
      </trkpt>
      <trkpt lat="43.64567" lon="3.32977">
        <ele>143</ele>
        <time>2026-05-12T10:53:06.000Z</time>
      </trkpt>
      <trkpt lat="43.64584" lon="3.32988">
        <ele>141</ele>
        <time>2026-05-12T10:53:22.000Z</time>
      </trkpt>
      <trkpt lat="43.64586" lon="3.32989">
        <ele>140</ele>
        <time>2026-05-12T10:53:24.000Z</time>
      </trkpt>
      <trkpt lat="43.64602" lon="3.33">
        <ele>140</ele>
        <time>2026-05-12T10:53:40.000Z</time>
      </trkpt>
      <trkpt lat="43.64609" lon="3.33007">
        <ele>140</ele>
        <time>2026-05-12T10:53:48.000Z</time>
      </trkpt>
      <trkpt lat="43.64615" lon="3.33007">
        <ele>140</ele>
        <time>2026-05-12T10:53:53.000Z</time>
      </trkpt>
      <trkpt lat="43.64632" lon="3.33008">
        <ele>140</ele>
        <time>2026-05-12T10:54:08.000Z</time>
      </trkpt>
      <trkpt lat="43.6465" lon="3.33004">
        <ele>140</ele>
        <time>2026-05-12T10:54:22.000Z</time>
      </trkpt>
      <trkpt lat="43.64673" lon="3.32994">
        <ele>140</ele>
        <time>2026-05-12T10:54:39.000Z</time>
      </trkpt>
      <trkpt lat="43.64695" lon="3.32987">
        <ele>140</ele>
        <time>2026-05-12T10:54:55.000Z</time>
      </trkpt>
      <trkpt lat="43.64713" lon="3.32993">
        <ele>141</ele>
        <time>2026-05-12T10:55:11.000Z</time>
      </trkpt>
      <trkpt lat="43.64716" lon="3.32999">
        <ele>141</ele>
        <time>2026-05-12T10:55:17.000Z</time>
      </trkpt>
      <trkpt lat="43.64719" lon="3.33002">
        <ele>141</ele>
        <time>2026-05-12T10:55:21.000Z</time>
      </trkpt>
      <trkpt lat="43.64721" lon="3.33003">
        <ele>141</ele>
        <time>2026-05-12T10:55:23.000Z</time>
      </trkpt>
      <trkpt lat="43.64738" lon="3.33006">
        <ele>140</ele>
        <time>2026-05-12T10:55:37.000Z</time>
      </trkpt>
      <trkpt lat="43.64745" lon="3.33006">
        <ele>140</ele>
        <time>2026-05-12T10:55:44.000Z</time>
      </trkpt>
      <trkpt lat="43.64751" lon="3.33004">
        <ele>140</ele>
        <time>2026-05-12T10:55:49.000Z</time>
      </trkpt>
      <trkpt lat="43.64758" lon="3.33004">
        <ele>140</ele>
        <time>2026-05-12T10:55:55.000Z</time>
      </trkpt>
      <trkpt lat="43.64769" lon="3.33005">
        <ele>140</ele>
        <time>2026-05-12T10:56:08.000Z</time>
      </trkpt>
      <trkpt lat="43.64775" lon="3.33008">
        <ele>140</ele>
        <time>2026-05-12T10:56:20.000Z</time>
      </trkpt>
      <trkpt lat="43.64778" lon="3.33012">
        <ele>140</ele>
        <time>2026-05-12T10:56:35.000Z</time>
      </trkpt>
      <trkpt lat="43.64779" lon="3.33014">
        <ele>140</ele>
        <time>2026-05-12T10:56:37.000Z</time>
      </trkpt>
      <trkpt lat="43.64779" lon="3.33024">
        <ele>140</ele>
        <time>2026-05-12T10:56:43.000Z</time>
      </trkpt>
      <trkpt lat="43.64779" lon="3.33042">
        <ele>140</ele>
        <time>2026-05-12T10:56:54.000Z</time>
      </trkpt>
      <trkpt lat="43.64777" lon="3.33069">
        <ele>140</ele>
        <time>2026-05-12T10:57:10.000Z</time>
      </trkpt>
      <trkpt lat="43.64777" lon="3.33077">
        <ele>140</ele>
        <time>2026-05-12T10:57:15.000Z</time>
      </trkpt>
      <trkpt lat="43.64779" lon="3.33085">
        <ele>140</ele>
        <time>2026-05-12T10:57:20.000Z</time>
      </trkpt>
      <trkpt lat="43.6478" lon="3.33096">
        <ele>140</ele>
        <time>2026-05-12T10:57:28.000Z</time>
      </trkpt>
      <trkpt lat="43.64788" lon="3.33101">
        <ele>140</ele>
        <time>2026-05-12T10:57:44.000Z</time>
      </trkpt>
      <trkpt lat="43.64805" lon="3.33104">
        <ele>140</ele>
        <time>2026-05-12T10:57:59.000Z</time>
      </trkpt>
      <trkpt lat="43.64815" lon="3.33099">
        <ele>139</ele>
        <time>2026-05-12T10:58:09.000Z</time>
      </trkpt>
      <trkpt lat="43.6482" lon="3.331">
        <ele>139</ele>
        <time>2026-05-12T10:58:23.000Z</time>
      </trkpt>
      <trkpt lat="43.64822" lon="3.33097">
        <ele>139</ele>
        <time>2026-05-12T10:58:41.000Z</time>
      </trkpt>
      <trkpt lat="43.64828" lon="3.33101">
        <ele>139</ele>
        <time>2026-05-12T10:58:57.000Z</time>
      </trkpt>
      <trkpt lat="43.64828" lon="3.33099">
        <ele>139</ele>
        <time>2026-05-12T10:59:10.000Z</time>
      </trkpt>
      <trkpt lat="43.64828" lon="3.33101">
        <ele>139</ele>
        <time>2026-05-12T10:59:27.000Z</time>
      </trkpt>
      <trkpt lat="43.64828" lon="3.33099">
        <ele>138</ele>
        <time>2026-05-12T10:59:49.000Z</time>
      </trkpt>
      <trkpt lat="43.64831" lon="3.33099">
        <ele>138</ele>
        <time>2026-05-12T11:00:26.000Z</time>
      </trkpt>
      <trkpt lat="43.64831" lon="3.33099">
        <ele>137</ele>
        <time>2026-05-12T11:00:55.000Z</time>
      </trkpt>
      <trkpt lat="43.6483" lon="3.33098">
        <ele>137</ele>
        <time>2026-05-12T11:01:31.000Z</time>
      </trkpt>
      <trkpt lat="43.64829" lon="3.33099">
        <ele>138</ele>
        <time>2026-05-12T11:02:01.000Z</time>
      </trkpt>
      <trkpt lat="43.6483" lon="3.331">
        <ele>138</ele>
        <time>2026-05-12T11:02:35.000Z</time>
      </trkpt>
      <trkpt lat="43.6483" lon="3.33102">
        <ele>138</ele>
        <time>2026-05-12T11:03:13.000Z</time>
      </trkpt>
      <trkpt lat="43.6483" lon="3.33103">
        <ele>138</ele>
        <time>2026-05-12T11:03:50.000Z</time>
      </trkpt>
      <trkpt lat="43.64831" lon="3.33103">
        <ele>138</ele>
        <time>2026-05-12T11:04:21.000Z</time>
      </trkpt>
      <trkpt lat="43.6483" lon="3.33102">
        <ele>138</ele>
        <time>2026-05-12T11:04:57.000Z</time>
      </trkpt>
      <trkpt lat="43.64829" lon="3.33104">
        <ele>138</ele>
        <time>2026-05-12T11:05:41.000Z</time>
      </trkpt>
      <trkpt lat="43.6483" lon="3.33102">
        <ele>138</ele>
        <time>2026-05-12T11:06:17.000Z</time>
      </trkpt>
      <trkpt lat="43.64829" lon="3.33103">
        <ele>138</ele>
        <time>2026-05-12T11:06:47.000Z</time>
      </trkpt>
      <trkpt lat="43.64829" lon="3.33102">
        <ele>139</ele>
        <time>2026-05-12T11:07:25.000Z</time>
      </trkpt>
      <trkpt lat="43.64831" lon="3.33101">
        <ele>139</ele>
        <time>2026-05-12T11:08:02.000Z</time>
      </trkpt>
      <trkpt lat="43.6483" lon="3.33101">
        <ele>139</ele>
        <time>2026-05-12T11:08:35.000Z</time>
      </trkpt>
      <trkpt lat="43.6483" lon="3.33102">
        <ele>139</ele>
        <time>2026-05-12T11:09:08.000Z</time>
      </trkpt>
      <trkpt lat="43.6483" lon="3.33102">
        <ele>139</ele>
        <time>2026-05-12T11:09:36.000Z</time>
      </trkpt>
      <trkpt lat="43.64829" lon="3.33102">
        <ele>139</ele>
        <time>2026-05-12T11:10:10.000Z</time>
      </trkpt>
      <trkpt lat="43.64831" lon="3.331">
        <ele>139</ele>
        <time>2026-05-12T11:10:45.000Z</time>
      </trkpt>
      <trkpt lat="43.6483" lon="3.33101">
        <ele>139</ele>
        <time>2026-05-12T11:11:21.000Z</time>
      </trkpt>
      <trkpt lat="43.64831" lon="3.33101">
        <ele>139</ele>
        <time>2026-05-12T11:11:50.000Z</time>
      </trkpt>
      <trkpt lat="43.6483" lon="3.33101">
        <ele>139</ele>
        <time>2026-05-12T11:12:20.000Z</time>
      </trkpt>
      <trkpt lat="43.64831" lon="3.33101">
        <ele>139</ele>
        <time>2026-05-12T11:12:50.000Z</time>
      </trkpt>
      <trkpt lat="43.64829" lon="3.33102">
        <ele>139</ele>
        <time>2026-05-12T11:13:16.000Z</time>
      </trkpt>
      <trkpt lat="43.6483" lon="3.33101">
        <ele>140</ele>
        <time>2026-05-12T11:13:47.000Z</time>
      </trkpt>
      <trkpt lat="43.6483" lon="3.33101">
        <ele>140</ele>
        <time>2026-05-12T11:14:15.000Z</time>
      </trkpt>
      <trkpt lat="43.6483" lon="3.331">
        <ele>140</ele>
        <time>2026-05-12T11:14:39.000Z</time>
      </trkpt>
      <trkpt lat="43.6483" lon="3.331">
        <ele>140</ele>
        <time>2026-05-12T11:15:06.000Z</time>
      </trkpt>
      <trkpt lat="43.6483" lon="3.331">
        <ele>140</ele>
        <time>2026-05-12T11:15:34.000Z</time>
      </trkpt>
      <trkpt lat="43.64831" lon="3.331">
        <ele>140</ele>
        <time>2026-05-12T11:16:01.000Z</time>
      </trkpt>
      <trkpt lat="43.6483" lon="3.33101">
        <ele>140</ele>
        <time>2026-05-12T11:16:27.000Z</time>
      </trkpt>
      <trkpt lat="43.6483" lon="3.33102">
        <ele>140</ele>
        <time>2026-05-12T11:16:55.000Z</time>
      </trkpt>
      <trkpt lat="43.6483" lon="3.33102">
        <ele>140</ele>
        <time>2026-05-12T11:17:23.000Z</time>
      </trkpt>
      <trkpt lat="43.6483" lon="3.33101">
        <ele>140</ele>
        <time>2026-05-12T11:17:50.000Z</time>
      </trkpt>
      <trkpt lat="43.64829" lon="3.33101">
        <ele>141</ele>
        <time>2026-05-12T11:18:22.000Z</time>
      </trkpt>
      <trkpt lat="43.64829" lon="3.33102">
        <ele>141</ele>
        <time>2026-05-12T11:18:50.000Z</time>
      </trkpt>
      <trkpt lat="43.64831" lon="3.33103">
        <ele>141</ele>
        <time>2026-05-12T11:19:30.000Z</time>
      </trkpt>
      <trkpt lat="43.6483" lon="3.33104">
        <ele>141</ele>
        <time>2026-05-12T11:20:07.000Z</time>
      </trkpt>
      <trkpt lat="43.64828" lon="3.33101">
        <ele>141</ele>
        <time>2026-05-12T11:20:37.000Z</time>
      </trkpt>
      <trkpt lat="43.64829" lon="3.33101">
        <ele>142</ele>
        <time>2026-05-12T11:21:03.000Z</time>
      </trkpt>
      <trkpt lat="43.6483" lon="3.33102">
        <ele>142</ele>
        <time>2026-05-12T11:21:34.000Z</time>
      </trkpt>
      <trkpt lat="43.64832" lon="3.33102">
        <ele>142</ele>
        <time>2026-05-12T11:21:59.000Z</time>
      </trkpt>
      <trkpt lat="43.64831" lon="3.33102">
        <ele>142</ele>
        <time>2026-05-12T11:22:30.000Z</time>
      </trkpt>
      <trkpt lat="43.64829" lon="3.33102">
        <ele>142</ele>
        <time>2026-05-12T11:23:01.000Z</time>
      </trkpt>
      <trkpt lat="43.6483" lon="3.33103">
        <ele>142</ele>
        <time>2026-05-12T11:23:32.000Z</time>
      </trkpt>
      <trkpt lat="43.6483" lon="3.33102">
        <ele>141</ele>
        <time>2026-05-12T11:24:11.000Z</time>
      </trkpt>
      <trkpt lat="43.64829" lon="3.33102">
        <ele>141</ele>
        <time>2026-05-12T11:24:40.000Z</time>
      </trkpt>
      <trkpt lat="43.6483" lon="3.33101">
        <ele>141</ele>
        <time>2026-05-12T11:25:17.000Z</time>
      </trkpt>
      <trkpt lat="43.6483" lon="3.33101">
        <ele>141</ele>
        <time>2026-05-12T11:25:49.000Z</time>
      </trkpt>
      <trkpt lat="43.6483" lon="3.33101">
        <ele>141</ele>
        <time>2026-05-12T11:26:22.000Z</time>
      </trkpt>
      <trkpt lat="43.6483" lon="3.33101">
        <ele>141</ele>
        <time>2026-05-12T11:26:53.000Z</time>
      </trkpt>
      <trkpt lat="43.64831" lon="3.33102">
        <ele>142</ele>
        <time>2026-05-12T11:27:23.000Z</time>
      </trkpt>
      <trkpt lat="43.6483" lon="3.33102">
        <ele>142</ele>
        <time>2026-05-12T11:27:55.000Z</time>
      </trkpt>
      <trkpt lat="43.6483" lon="3.33102">
        <ele>142</ele>
        <time>2026-05-12T11:28:21.000Z</time>
      </trkpt>
      <trkpt lat="43.6483" lon="3.33101">
        <ele>142</ele>
        <time>2026-05-12T11:28:58.000Z</time>
      </trkpt>
      <trkpt lat="43.6483" lon="3.33099">
        <ele>142</ele>
        <time>2026-05-12T11:29:29.000Z</time>
      </trkpt>
      <trkpt lat="43.64829" lon="3.33098">
        <ele>142</ele>
        <time>2026-05-12T11:30:04.000Z</time>
      </trkpt>
      <trkpt lat="43.64828" lon="3.33099">
        <ele>142</ele>
        <time>2026-05-12T11:30:31.000Z</time>
      </trkpt>
      <trkpt lat="43.64828" lon="3.33099">
        <ele>141</ele>
        <time>2026-05-12T11:31:02.000Z</time>
      </trkpt>
      <trkpt lat="43.6483" lon="3.331">
        <ele>141</ele>
        <time>2026-05-12T11:31:29.000Z</time>
      </trkpt>
      <trkpt lat="43.6483" lon="3.33101">
        <ele>141</ele>
        <time>2026-05-12T11:32:03.000Z</time>
      </trkpt>
      <trkpt lat="43.64832" lon="3.33102">
        <ele>142</ele>
        <time>2026-05-12T11:32:38.000Z</time>
      </trkpt>
      <trkpt lat="43.6483" lon="3.33102">
        <ele>142</ele>
        <time>2026-05-12T11:33:03.000Z</time>
      </trkpt>
      <trkpt lat="43.64829" lon="3.331">
        <ele>143</ele>
        <time>2026-05-12T11:33:30.000Z</time>
      </trkpt>
      <trkpt lat="43.64829" lon="3.33099">
        <ele>142</ele>
        <time>2026-05-12T11:33:43.000Z</time>
      </trkpt>
      <trkpt lat="43.64828" lon="3.33099">
        <ele>144</ele>
        <time>2026-05-12T11:33:48.000Z</time>
      </trkpt>
      <trkpt lat="43.64828" lon="3.331">
        <ele>143</ele>
        <time>2026-05-12T11:34:05.000Z</time>
      </trkpt>
      <trkpt lat="43.64829" lon="3.33101">
        <ele>142</ele>
        <time>2026-05-12T11:34:20.000Z</time>
      </trkpt>
      <trkpt lat="43.64829" lon="3.33098">
        <ele>142</ele>
        <time>2026-05-12T11:34:51.000Z</time>
      </trkpt>
      <trkpt lat="43.64827" lon="3.33098">
        <ele>142</ele>
        <time>2026-05-12T11:35:06.000Z</time>
      </trkpt>
      <trkpt lat="43.64823" lon="3.33096">
        <ele>142</ele>
        <time>2026-05-12T11:35:17.000Z</time>
      </trkpt>
      <trkpt lat="43.64823" lon="3.33107">
        <ele>143</ele>
        <time>2026-05-12T11:35:31.000Z</time>
      </trkpt>
      <trkpt lat="43.64824" lon="3.33121">
        <ele>144</ele>
        <time>2026-05-12T11:35:46.000Z</time>
      </trkpt>
      <trkpt lat="43.64825" lon="3.33125">
        <ele>144</ele>
        <time>2026-05-12T11:35:54.000Z</time>
      </trkpt>
      <trkpt lat="43.64821" lon="3.33136">
        <ele>144</ele>
        <time>2026-05-12T11:36:07.000Z</time>
      </trkpt>
      <trkpt lat="43.64818" lon="3.33152">
        <ele>144</ele>
        <time>2026-05-12T11:36:20.000Z</time>
      </trkpt>
      <trkpt lat="43.6482" lon="3.33157">
        <ele>144</ele>
        <time>2026-05-12T11:36:24.000Z</time>
      </trkpt>
      <trkpt lat="43.64823" lon="3.3317">
        <ele>144</ele>
        <time>2026-05-12T11:36:34.000Z</time>
      </trkpt>
      <trkpt lat="43.64828" lon="3.3319">
        <ele>144</ele>
        <time>2026-05-12T11:36:49.000Z</time>
      </trkpt>
      <trkpt lat="43.6483" lon="3.3321">
        <ele>145</ele>
        <time>2026-05-12T11:37:05.000Z</time>
      </trkpt>
      <trkpt lat="43.64831" lon="3.33234">
        <ele>145</ele>
        <time>2026-05-12T11:37:20.000Z</time>
      </trkpt>
      <trkpt lat="43.64833" lon="3.33247">
        <ele>145</ele>
        <time>2026-05-12T11:37:27.000Z</time>
      </trkpt>
      <trkpt lat="43.64833" lon="3.33257">
        <ele>145</ele>
        <time>2026-05-12T11:37:34.000Z</time>
      </trkpt>
      <trkpt lat="43.64836" lon="3.33276">
        <ele>145</ele>
        <time>2026-05-12T11:37:48.000Z</time>
      </trkpt>
      <trkpt lat="43.64839" lon="3.33288">
        <ele>145</ele>
        <time>2026-05-12T11:38:03.000Z</time>
      </trkpt>
      <trkpt lat="43.64839" lon="3.33287">
        <ele>145</ele>
        <time>2026-05-12T11:38:07.000Z</time>
      </trkpt>
      <trkpt lat="43.64839" lon="3.33287">
        <ele>145</ele>
        <time>2026-05-12T11:38:12.000Z</time>
      </trkpt>
      <trkpt lat="43.64842" lon="3.3329">
        <ele>145</ele>
        <time>2026-05-12T11:38:16.000Z</time>
      </trkpt>
      <trkpt lat="43.64858" lon="3.33297">
        <ele>145</ele>
        <time>2026-05-12T11:38:31.000Z</time>
      </trkpt>
      <trkpt lat="43.64865" lon="3.33302">
        <ele>145</ele>
        <time>2026-05-12T11:38:38.000Z</time>
      </trkpt>
      <trkpt lat="43.64868" lon="3.33305">
        <ele>145</ele>
        <time>2026-05-12T11:38:41.000Z</time>
      </trkpt>
      <trkpt lat="43.64871" lon="3.33305">
        <ele>145</ele>
        <time>2026-05-12T11:38:44.000Z</time>
      </trkpt>
      <trkpt lat="43.6489" lon="3.33311">
        <ele>145</ele>
        <time>2026-05-12T11:39:01.000Z</time>
      </trkpt>
      <trkpt lat="43.64906" lon="3.33322">
        <ele>145</ele>
        <time>2026-05-12T11:39:18.000Z</time>
      </trkpt>
      <trkpt lat="43.64907" lon="3.33323">
        <ele>145</ele>
        <time>2026-05-12T11:39:19.000Z</time>
      </trkpt>
      <trkpt lat="43.64912" lon="3.33325">
        <ele>145</ele>
        <time>2026-05-12T11:39:24.000Z</time>
      </trkpt>
      <trkpt lat="43.64929" lon="3.33332">
        <ele>145</ele>
        <time>2026-05-12T11:39:40.000Z</time>
      </trkpt>
      <trkpt lat="43.64945" lon="3.33338">
        <ele>145</ele>
        <time>2026-05-12T11:39:57.000Z</time>
      </trkpt>
      <trkpt lat="43.64963" lon="3.33348">
        <ele>145</ele>
        <time>2026-05-12T11:40:14.000Z</time>
      </trkpt>
      <trkpt lat="43.64972" lon="3.33353">
        <ele>146</ele>
        <time>2026-05-12T11:40:22.000Z</time>
      </trkpt>
      <trkpt lat="43.64994" lon="3.33356">
        <ele>147</ele>
        <time>2026-05-12T11:40:41.000Z</time>
      </trkpt>
      <trkpt lat="43.65004" lon="3.33356">
        <ele>147</ele>
        <time>2026-05-12T11:40:50.000Z</time>
      </trkpt>
      <trkpt lat="43.65004" lon="3.33351">
        <ele>147</ele>
        <time>2026-05-12T11:40:55.000Z</time>
      </trkpt>
      <trkpt lat="43.65014" lon="3.33353">
        <ele>149</ele>
        <time>2026-05-12T11:41:04.000Z</time>
      </trkpt>
      <trkpt lat="43.65017" lon="3.33351">
        <ele>148</ele>
        <time>2026-05-12T11:41:09.000Z</time>
      </trkpt>
      <trkpt lat="43.65018" lon="3.3335">
        <ele>148</ele>
        <time>2026-05-12T11:41:10.000Z</time>
      </trkpt>
      <trkpt lat="43.6502" lon="3.33343">
        <ele>148</ele>
        <time>2026-05-12T11:41:15.000Z</time>
      </trkpt>
      <trkpt lat="43.65022" lon="3.3334">
        <ele>148</ele>
        <time>2026-05-12T11:41:18.000Z</time>
      </trkpt>
      <trkpt lat="43.65026" lon="3.33336">
        <ele>148</ele>
        <time>2026-05-12T11:41:22.000Z</time>
      </trkpt>
      <trkpt lat="43.65029" lon="3.33319">
        <ele>148</ele>
        <time>2026-05-12T11:41:34.000Z</time>
      </trkpt>
      <trkpt lat="43.65032" lon="3.33302">
        <ele>148</ele>
        <time>2026-05-12T11:41:46.000Z</time>
      </trkpt>
      <trkpt lat="43.65032" lon="3.333">
        <ele>148</ele>
        <time>2026-05-12T11:41:48.000Z</time>
      </trkpt>
      <trkpt lat="43.65032" lon="3.33297">
        <ele>147</ele>
        <time>2026-05-12T11:41:50.000Z</time>
      </trkpt>
      <trkpt lat="43.65033" lon="3.33289">
        <ele>148</ele>
        <time>2026-05-12T11:41:56.000Z</time>
      </trkpt>
      <trkpt lat="43.65036" lon="3.33268">
        <ele>149</ele>
        <time>2026-05-12T11:42:11.000Z</time>
      </trkpt>
      <trkpt lat="43.65041" lon="3.33251">
        <ele>150</ele>
        <time>2026-05-12T11:42:24.000Z</time>
      </trkpt>
      <trkpt lat="43.65044" lon="3.33245">
        <ele>150</ele>
        <time>2026-05-12T11:42:29.000Z</time>
      </trkpt>
      <trkpt lat="43.65053" lon="3.33227">
        <ele>151</ele>
        <time>2026-05-12T11:42:44.000Z</time>
      </trkpt>
      <trkpt lat="43.6506" lon="3.33209">
        <ele>153</ele>
        <time>2026-05-12T11:42:57.000Z</time>
      </trkpt>
      <trkpt lat="43.65066" lon="3.33191">
        <ele>154</ele>
        <time>2026-05-12T11:43:11.000Z</time>
      </trkpt>
      <trkpt lat="43.65069" lon="3.33185">
        <ele>154</ele>
        <time>2026-05-12T11:43:17.000Z</time>
      </trkpt>
      <trkpt lat="43.65081" lon="3.33177">
        <ele>155</ele>
        <time>2026-05-12T11:43:33.000Z</time>
      </trkpt>
      <trkpt lat="43.65086" lon="3.33172">
        <ele>155</ele>
        <time>2026-05-12T11:43:39.000Z</time>
      </trkpt>
      <trkpt lat="43.65098" lon="3.33165">
        <ele>154</ele>
        <time>2026-05-12T11:43:52.000Z</time>
      </trkpt>
      <trkpt lat="43.651" lon="3.33164">
        <ele>155</ele>
        <time>2026-05-12T11:43:54.000Z</time>
      </trkpt>
      <trkpt lat="43.65103" lon="3.3316">
        <ele>154</ele>
        <time>2026-05-12T11:43:57.000Z</time>
      </trkpt>
      <trkpt lat="43.65117" lon="3.33149">
        <ele>153</ele>
        <time>2026-05-12T11:44:12.000Z</time>
      </trkpt>
      <trkpt lat="43.65123" lon="3.33135">
        <ele>152</ele>
        <time>2026-05-12T11:44:23.000Z</time>
      </trkpt>
      <trkpt lat="43.65122" lon="3.33118">
        <ele>151</ele>
        <time>2026-05-12T11:44:35.000Z</time>
      </trkpt>
      <trkpt lat="43.65121" lon="3.33102">
        <ele>152</ele>
        <time>2026-05-12T11:44:46.000Z</time>
      </trkpt>
      <trkpt lat="43.65119" lon="3.3309">
        <ele>153</ele>
        <time>2026-05-12T11:44:58.000Z</time>
      </trkpt>
      <trkpt lat="43.65116" lon="3.33075">
        <ele>156</ele>
        <time>2026-05-12T11:45:12.000Z</time>
      </trkpt>
      <trkpt lat="43.6511" lon="3.33062">
        <ele>159</ele>
        <time>2026-05-12T11:45:28.000Z</time>
      </trkpt>
      <trkpt lat="43.65102" lon="3.3305">
        <ele>161</ele>
        <time>2026-05-12T11:45:44.000Z</time>
      </trkpt>
      <trkpt lat="43.65103" lon="3.3304">
        <ele>164</ele>
        <time>2026-05-12T11:45:58.000Z</time>
      </trkpt>
      <trkpt lat="43.65102" lon="3.33032">
        <ele>167</ele>
        <time>2026-05-12T11:46:12.000Z</time>
      </trkpt>
      <trkpt lat="43.65104" lon="3.33029">
        <ele>169</ele>
        <time>2026-05-12T11:46:27.000Z</time>
      </trkpt>
      <trkpt lat="43.65104" lon="3.33028">
        <ele>169</ele>
        <time>2026-05-12T11:46:45.000Z</time>
      </trkpt>
      <trkpt lat="43.65105" lon="3.33024">
        <ele>169</ele>
        <time>2026-05-12T11:47:21.000Z</time>
      </trkpt>
      <trkpt lat="43.65105" lon="3.33026">
        <ele>169</ele>
        <time>2026-05-12T11:47:45.000Z</time>
      </trkpt>
      <trkpt lat="43.65105" lon="3.33026">
        <ele>169</ele>
        <time>2026-05-12T11:48:07.000Z</time>
      </trkpt>
      <trkpt lat="43.65107" lon="3.33022">
        <ele>169</ele>
        <time>2026-05-12T11:48:26.000Z</time>
      </trkpt>
      <trkpt lat="43.65104" lon="3.33021">
        <ele>170</ele>
        <time>2026-05-12T11:48:42.000Z</time>
      </trkpt>
      <trkpt lat="43.65101" lon="3.33021">
        <ele>171</ele>
        <time>2026-05-12T11:48:58.000Z</time>
      </trkpt>
      <trkpt lat="43.65099" lon="3.33029">
        <ele>172</ele>
        <time>2026-05-12T11:49:14.000Z</time>
      </trkpt>
      <trkpt lat="43.65099" lon="3.33023">
        <ele>172</ele>
        <time>2026-05-12T11:49:42.000Z</time>
      </trkpt>
      <trkpt lat="43.651" lon="3.33023">
        <ele>172</ele>
        <time>2026-05-12T11:50:01.000Z</time>
      </trkpt>
      <trkpt lat="43.651" lon="3.33032">
        <ele>171</ele>
        <time>2026-05-12T11:50:21.000Z</time>
      </trkpt>
      <trkpt lat="43.65102" lon="3.33031">
        <ele>171</ele>
        <time>2026-05-12T11:50:36.000Z</time>
      </trkpt>
      <trkpt lat="43.65103" lon="3.33032">
        <ele>171</ele>
        <time>2026-05-12T11:50:42.000Z</time>
      </trkpt>
      <trkpt lat="43.65108" lon="3.33034">
        <ele>169</ele>
        <time>2026-05-12T11:50:55.000Z</time>
      </trkpt>
      <trkpt lat="43.65102" lon="3.33034">
        <ele>166</ele>
        <time>2026-05-12T11:51:08.000Z</time>
      </trkpt>
      <trkpt lat="43.65099" lon="3.33037">
        <ele>164</ele>
        <time>2026-05-12T11:51:21.000Z</time>
      </trkpt>
      <trkpt lat="43.65101" lon="3.33047">
        <ele>162</ele>
        <time>2026-05-12T11:51:33.000Z</time>
      </trkpt>
      <trkpt lat="43.65102" lon="3.33053">
        <ele>161</ele>
        <time>2026-05-12T11:51:39.000Z</time>
      </trkpt>
      <trkpt lat="43.6511" lon="3.33068">
        <ele>158</ele>
        <time>2026-05-12T11:51:54.000Z</time>
      </trkpt>
      <trkpt lat="43.65115" lon="3.33074">
        <ele>155</ele>
        <time>2026-05-12T11:52:05.000Z</time>
      </trkpt>
      <trkpt lat="43.65117" lon="3.33077">
        <ele>155</ele>
        <time>2026-05-12T11:52:08.000Z</time>
      </trkpt>
      <trkpt lat="43.65118" lon="3.33082">
        <ele>153</ele>
        <time>2026-05-12T11:52:22.000Z</time>
      </trkpt>
      <trkpt lat="43.6512" lon="3.33081">
        <ele>153</ele>
        <time>2026-05-12T11:52:38.000Z</time>
      </trkpt>
      <trkpt lat="43.65122" lon="3.33087">
        <ele>153</ele>
        <time>2026-05-12T11:52:43.000Z</time>
      </trkpt>
      <trkpt lat="43.65123" lon="3.33094">
        <ele>153</ele>
        <time>2026-05-12T11:52:47.000Z</time>
      </trkpt>
      <trkpt lat="43.65124" lon="3.33099">
        <ele>152</ele>
        <time>2026-05-12T11:52:52.000Z</time>
      </trkpt>
      <trkpt lat="43.65124" lon="3.3311">
        <ele>151</ele>
        <time>2026-05-12T11:52:59.000Z</time>
      </trkpt>
      <trkpt lat="43.65123" lon="3.33113">
        <ele>151</ele>
        <time>2026-05-12T11:53:01.000Z</time>
      </trkpt>
      <trkpt lat="43.65123" lon="3.33116">
        <ele>151</ele>
        <time>2026-05-12T11:53:03.000Z</time>
      </trkpt>
      <trkpt lat="43.65125" lon="3.3313">
        <ele>151</ele>
        <time>2026-05-12T11:53:12.000Z</time>
      </trkpt>
      <trkpt lat="43.65124" lon="3.33131">
        <ele>153</ele>
        <time>2026-05-12T11:53:19.000Z</time>
      </trkpt>
      <trkpt lat="43.65123" lon="3.33137">
        <ele>153</ele>
        <time>2026-05-12T11:53:26.000Z</time>
      </trkpt>
      <trkpt lat="43.65116" lon="3.33154">
        <ele>154</ele>
        <time>2026-05-12T11:53:42.000Z</time>
      </trkpt>
      <trkpt lat="43.65115" lon="3.33155">
        <ele>154</ele>
        <time>2026-05-12T11:53:43.000Z</time>
      </trkpt>
      <trkpt lat="43.65111" lon="3.33159">
        <ele>154</ele>
        <time>2026-05-12T11:53:48.000Z</time>
      </trkpt>
      <trkpt lat="43.65108" lon="3.33167">
        <ele>153</ele>
        <time>2026-05-12T11:53:54.000Z</time>
      </trkpt>
      <trkpt lat="43.6511" lon="3.33171">
        <ele>153</ele>
        <time>2026-05-12T11:53:57.000Z</time>
      </trkpt>
      <trkpt lat="43.65107" lon="3.33193">
        <ele>151</ele>
        <time>2026-05-12T11:54:13.000Z</time>
      </trkpt>
      <trkpt lat="43.65106" lon="3.33195">
        <ele>153</ele>
        <time>2026-05-12T11:54:16.000Z</time>
      </trkpt>
      <trkpt lat="43.65105" lon="3.33199">
        <ele>151</ele>
        <time>2026-05-12T11:54:19.000Z</time>
      </trkpt>
      <trkpt lat="43.65103" lon="3.3322">
        <ele>150</ele>
        <time>2026-05-12T11:54:35.000Z</time>
      </trkpt>
      <trkpt lat="43.65099" lon="3.33234">
        <ele>149</ele>
        <time>2026-05-12T11:54:46.000Z</time>
      </trkpt>
      <trkpt lat="43.65101" lon="3.33256">
        <ele>147</ele>
        <time>2026-05-12T11:55:00.000Z</time>
      </trkpt>
      <trkpt lat="43.65106" lon="3.33282">
        <ele>146</ele>
        <time>2026-05-12T11:55:17.000Z</time>
      </trkpt>
      <trkpt lat="43.65111" lon="3.33306">
        <ele>144</ele>
        <time>2026-05-12T11:55:33.000Z</time>
      </trkpt>
      <trkpt lat="43.65115" lon="3.33323">
        <ele>144</ele>
        <time>2026-05-12T11:55:48.000Z</time>
      </trkpt>
      <trkpt lat="43.65119" lon="3.33327">
        <ele>142</ele>
        <time>2026-05-12T11:55:59.000Z</time>
      </trkpt>
      <trkpt lat="43.6512" lon="3.33328">
        <ele>142</ele>
        <time>2026-05-12T11:56:01.000Z</time>
      </trkpt>
      <trkpt lat="43.65122" lon="3.3334">
        <ele>141</ele>
        <time>2026-05-12T11:56:09.000Z</time>
      </trkpt>
      <trkpt lat="43.65138" lon="3.33356">
        <ele>140</ele>
        <time>2026-05-12T11:56:25.000Z</time>
      </trkpt>
      <trkpt lat="43.6514" lon="3.33362">
        <ele>142</ele>
        <time>2026-05-12T11:56:30.000Z</time>
      </trkpt>
      <trkpt lat="43.65145" lon="3.33366">
        <ele>142</ele>
        <time>2026-05-12T11:56:34.000Z</time>
      </trkpt>
      <trkpt lat="43.65159" lon="3.33381">
        <ele>140</ele>
        <time>2026-05-12T11:56:51.000Z</time>
      </trkpt>
      <trkpt lat="43.65166" lon="3.33388">
        <ele>140</ele>
        <time>2026-05-12T11:56:59.000Z</time>
      </trkpt>
      <trkpt lat="43.65167" lon="3.33391">
        <ele>141</ele>
        <time>2026-05-12T11:57:01.000Z</time>
      </trkpt>
      <trkpt lat="43.65178" lon="3.33401">
        <ele>142</ele>
        <time>2026-05-12T11:57:15.000Z</time>
      </trkpt>
      <trkpt lat="43.65191" lon="3.33417">
        <ele>143</ele>
        <time>2026-05-12T11:57:31.000Z</time>
      </trkpt>
      <trkpt lat="43.65205" lon="3.33432">
        <ele>143</ele>
        <time>2026-05-12T11:57:45.000Z</time>
      </trkpt>
      <trkpt lat="43.65219" lon="3.33453">
        <ele>143</ele>
        <time>2026-05-12T11:58:01.000Z</time>
      </trkpt>
      <trkpt lat="43.65235" lon="3.33471">
        <ele>143</ele>
        <time>2026-05-12T11:58:17.000Z</time>
      </trkpt>
      <trkpt lat="43.65247" lon="3.33488">
        <ele>143</ele>
        <time>2026-05-12T11:58:33.000Z</time>
      </trkpt>
      <trkpt lat="43.65257" lon="3.33494">
        <ele>141</ele>
        <time>2026-05-12T11:58:45.000Z</time>
      </trkpt>
      <trkpt lat="43.65263" lon="3.33509">
        <ele>143</ele>
        <time>2026-05-12T11:58:56.000Z</time>
      </trkpt>
      <trkpt lat="43.6527" lon="3.33522">
        <ele>146</ele>
        <time>2026-05-12T11:59:09.000Z</time>
      </trkpt>
      <trkpt lat="43.65275" lon="3.33531">
        <ele>147</ele>
        <time>2026-05-12T11:59:18.000Z</time>
      </trkpt>
      <trkpt lat="43.65282" lon="3.33544">
        <ele>148</ele>
        <time>2026-05-12T11:59:31.000Z</time>
      </trkpt>
      <trkpt lat="43.65283" lon="3.33545">
        <ele>149</ele>
        <time>2026-05-12T11:59:32.000Z</time>
      </trkpt>
      <trkpt lat="43.65286" lon="3.33567">
        <ele>150</ele>
        <time>2026-05-12T11:59:48.000Z</time>
      </trkpt>
      <trkpt lat="43.65285" lon="3.33574">
        <ele>151</ele>
        <time>2026-05-12T11:59:57.000Z</time>
      </trkpt>
      <trkpt lat="43.65285" lon="3.33572">
        <ele>152</ele>
        <time>2026-05-12T12:00:12.000Z</time>
      </trkpt>
      <trkpt lat="43.65284" lon="3.33573">
        <ele>152</ele>
        <time>2026-05-12T12:00:43.000Z</time>
      </trkpt>
      <trkpt lat="43.65284" lon="3.33577">
        <ele>152</ele>
        <time>2026-05-12T12:00:51.000Z</time>
      </trkpt>
      <trkpt lat="43.6528" lon="3.33586">
        <ele>153</ele>
        <time>2026-05-12T12:00:58.000Z</time>
      </trkpt>
      <trkpt lat="43.65278" lon="3.33604">
        <ele>155</ele>
        <time>2026-05-12T12:01:13.000Z</time>
      </trkpt>
      <trkpt lat="43.65279" lon="3.3362">
        <ele>158</ele>
        <time>2026-05-12T12:01:28.000Z</time>
      </trkpt>
      <trkpt lat="43.65286" lon="3.3364">
        <ele>161</ele>
        <time>2026-05-12T12:01:45.000Z</time>
      </trkpt>
      <trkpt lat="43.6529" lon="3.33653">
        <ele>163</ele>
        <time>2026-05-12T12:01:58.000Z</time>
      </trkpt>
      <trkpt lat="43.65292" lon="3.33666">
        <ele>165</ele>
        <time>2026-05-12T12:02:11.000Z</time>
      </trkpt>
      <trkpt lat="43.65291" lon="3.3368">
        <ele>168</ele>
        <time>2026-05-12T12:02:25.000Z</time>
      </trkpt>
      <trkpt lat="43.65292" lon="3.33692">
        <ele>170</ele>
        <time>2026-05-12T12:02:38.000Z</time>
      </trkpt>
      <trkpt lat="43.65289" lon="3.33702">
        <ele>173</ele>
        <time>2026-05-12T12:02:52.000Z</time>
      </trkpt>
      <trkpt lat="43.65284" lon="3.33713">
        <ele>176</ele>
        <time>2026-05-12T12:03:06.000Z</time>
      </trkpt>
      <trkpt lat="43.6528" lon="3.33724">
        <ele>178</ele>
        <time>2026-05-12T12:03:18.000Z</time>
      </trkpt>
      <trkpt lat="43.65279" lon="3.33736">
        <ele>180</ele>
        <time>2026-05-12T12:03:30.000Z</time>
      </trkpt>
      <trkpt lat="43.65282" lon="3.3375">
        <ele>182</ele>
        <time>2026-05-12T12:03:43.000Z</time>
      </trkpt>
      <trkpt lat="43.65288" lon="3.33764">
        <ele>185</ele>
        <time>2026-05-12T12:03:59.000Z</time>
      </trkpt>
      <trkpt lat="43.65294" lon="3.33773">
        <ele>188</ele>
        <time>2026-05-12T12:04:12.000Z</time>
      </trkpt>
      <trkpt lat="43.65299" lon="3.33781">
        <ele>191</ele>
        <time>2026-05-12T12:04:26.000Z</time>
      </trkpt>
      <trkpt lat="43.65303" lon="3.33791">
        <ele>194</ele>
        <time>2026-05-12T12:04:38.000Z</time>
      </trkpt>
      <trkpt lat="43.65307" lon="3.33796">
        <ele>194</ele>
        <time>2026-05-12T12:04:44.000Z</time>
      </trkpt>
      <trkpt lat="43.6531" lon="3.33805">
        <ele>197</ele>
        <time>2026-05-12T12:04:58.000Z</time>
      </trkpt>
      <trkpt lat="43.65313" lon="3.33815">
        <ele>200</ele>
        <time>2026-05-12T12:05:12.000Z</time>
      </trkpt>
      <trkpt lat="43.65319" lon="3.33826">
        <ele>202</ele>
        <time>2026-05-12T12:05:27.000Z</time>
      </trkpt>
      <trkpt lat="43.65325" lon="3.33836">
        <ele>205</ele>
        <time>2026-05-12T12:05:41.000Z</time>
      </trkpt>
      <trkpt lat="43.65326" lon="3.33841">
        <ele>208</ele>
        <time>2026-05-12T12:05:53.000Z</time>
      </trkpt>
      <trkpt lat="43.65327" lon="3.33839">
        <ele>206</ele>
        <time>2026-05-12T12:06:04.000Z</time>
      </trkpt>
      <trkpt lat="43.65326" lon="3.33841">
        <ele>206</ele>
        <time>2026-05-12T12:06:25.000Z</time>
      </trkpt>
      <trkpt lat="43.65328" lon="3.33841">
        <ele>206</ele>
        <time>2026-05-12T12:06:28.000Z</time>
      </trkpt>
      <trkpt lat="43.65332" lon="3.33842">
        <ele>206</ele>
        <time>2026-05-12T12:06:42.000Z</time>
      </trkpt>
      <trkpt lat="43.65341" lon="3.33845">
        <ele>206</ele>
        <time>2026-05-12T12:06:50.000Z</time>
      </trkpt>
      <trkpt lat="43.65344" lon="3.33845">
        <ele>206</ele>
        <time>2026-05-12T12:06:53.000Z</time>
      </trkpt>
      <trkpt lat="43.65347" lon="3.33855">
        <ele>208</ele>
        <time>2026-05-12T12:07:06.000Z</time>
      </trkpt>
      <trkpt lat="43.65344" lon="3.33856">
        <ele>209</ele>
        <time>2026-05-12T12:07:11.000Z</time>
      </trkpt>
      <trkpt lat="43.65335" lon="3.33854">
        <ele>210</ele>
        <time>2026-05-12T12:07:19.000Z</time>
      </trkpt>
      <trkpt lat="43.65319" lon="3.33855">
        <ele>212</ele>
        <time>2026-05-12T12:07:34.000Z</time>
      </trkpt>
      <trkpt lat="43.65314" lon="3.33856">
        <ele>212</ele>
        <time>2026-05-12T12:07:38.000Z</time>
      </trkpt>
      <trkpt lat="43.65295" lon="3.33859">
        <ele>213</ele>
        <time>2026-05-12T12:07:57.000Z</time>
      </trkpt>
      <trkpt lat="43.65289" lon="3.33862">
        <ele>214</ele>
        <time>2026-05-12T12:08:02.000Z</time>
      </trkpt>
      <trkpt lat="43.65287" lon="3.33863">
        <ele>214</ele>
        <time>2026-05-12T12:08:04.000Z</time>
      </trkpt>
      <trkpt lat="43.65274" lon="3.33877">
        <ele>216</ele>
        <time>2026-05-12T12:08:20.000Z</time>
      </trkpt>
      <trkpt lat="43.65272" lon="3.33879">
        <ele>216</ele>
        <time>2026-05-12T12:08:22.000Z</time>
      </trkpt>
      <trkpt lat="43.65255" lon="3.33896">
        <ele>217</ele>
        <time>2026-05-12T12:08:40.000Z</time>
      </trkpt>
      <trkpt lat="43.65237" lon="3.33911">
        <ele>218</ele>
        <time>2026-05-12T12:08:57.000Z</time>
      </trkpt>
      <trkpt lat="43.65226" lon="3.33922">
        <ele>218</ele>
        <time>2026-05-12T12:09:09.000Z</time>
      </trkpt>
      <trkpt lat="43.65211" lon="3.3394">
        <ele>221</ele>
        <time>2026-05-12T12:09:26.000Z</time>
      </trkpt>
      <trkpt lat="43.65205" lon="3.33951">
        <ele>221</ele>
        <time>2026-05-12T12:09:34.000Z</time>
      </trkpt>
      <trkpt lat="43.65195" lon="3.33968">
        <ele>222</ele>
        <time>2026-05-12T12:09:48.000Z</time>
      </trkpt>
      <trkpt lat="43.6519" lon="3.33973">
        <ele>223</ele>
        <time>2026-05-12T12:10:00.000Z</time>
      </trkpt>
      <trkpt lat="43.65191" lon="3.33981">
        <ele>224</ele>
        <time>2026-05-12T12:10:15.000Z</time>
      </trkpt>
      <trkpt lat="43.65199" lon="3.33987">
        <ele>227</ele>
        <time>2026-05-12T12:10:31.000Z</time>
      </trkpt>
      <trkpt lat="43.65205" lon="3.33988">
        <ele>228</ele>
        <time>2026-05-12T12:10:44.000Z</time>
      </trkpt>
      <trkpt lat="43.65213" lon="3.33993">
        <ele>231</ele>
        <time>2026-05-12T12:10:59.000Z</time>
      </trkpt>
      <trkpt lat="43.65219" lon="3.33993">
        <ele>233</ele>
        <time>2026-05-12T12:11:14.000Z</time>
      </trkpt>
      <trkpt lat="43.65227" lon="3.33993">
        <ele>235</ele>
        <time>2026-05-12T12:11:30.000Z</time>
      </trkpt>
      <trkpt lat="43.65229" lon="3.34">
        <ele>238</ele>
        <time>2026-05-12T12:11:46.000Z</time>
      </trkpt>
      <trkpt lat="43.65232" lon="3.34007">
        <ele>241</ele>
        <time>2026-05-12T12:12:01.000Z</time>
      </trkpt>
      <trkpt lat="43.65231" lon="3.3401">
        <ele>242</ele>
        <time>2026-05-12T12:12:17.000Z</time>
      </trkpt>
      <trkpt lat="43.65234" lon="3.34014">
        <ele>246</ele>
        <time>2026-05-12T12:12:31.000Z</time>
      </trkpt>
      <trkpt lat="43.65235" lon="3.34019">
        <ele>247</ele>
        <time>2026-05-12T12:12:47.000Z</time>
      </trkpt>
      <trkpt lat="43.65236" lon="3.34023">
        <ele>250</ele>
        <time>2026-05-12T12:13:03.000Z</time>
      </trkpt>
      <trkpt lat="43.65239" lon="3.34028">
        <ele>252</ele>
        <time>2026-05-12T12:13:17.000Z</time>
      </trkpt>
      <trkpt lat="43.65241" lon="3.34035">
        <ele>254</ele>
        <time>2026-05-12T12:13:32.000Z</time>
      </trkpt>
      <trkpt lat="43.65241" lon="3.34037">
        <ele>256</ele>
        <time>2026-05-12T12:13:49.000Z</time>
      </trkpt>
      <trkpt lat="43.65242" lon="3.34033">
        <ele>255</ele>
        <time>2026-05-12T12:14:01.000Z</time>
      </trkpt>
      <trkpt lat="43.65242" lon="3.34032">
        <ele>256</ele>
        <time>2026-05-12T12:14:22.000Z</time>
      </trkpt>
      <trkpt lat="43.65244" lon="3.34034">
        <ele>256</ele>
        <time>2026-05-12T12:14:51.000Z</time>
      </trkpt>
      <trkpt lat="43.65244" lon="3.34035">
        <ele>256</ele>
        <time>2026-05-12T12:15:25.000Z</time>
      </trkpt>
      <trkpt lat="43.65243" lon="3.34029">
        <ele>257</ele>
        <time>2026-05-12T12:15:45.000Z</time>
      </trkpt>
      <trkpt lat="43.65246" lon="3.3403">
        <ele>258</ele>
        <time>2026-05-12T12:16:05.000Z</time>
      </trkpt>
      <trkpt lat="43.65254" lon="3.34038">
        <ele>260</ele>
        <time>2026-05-12T12:16:22.000Z</time>
      </trkpt>
      <trkpt lat="43.65255" lon="3.3404">
        <ele>264</ele>
        <time>2026-05-12T12:16:36.000Z</time>
      </trkpt>
      <trkpt lat="43.65257" lon="3.34044">
        <ele>265</ele>
        <time>2026-05-12T12:16:47.000Z</time>
      </trkpt>
      <trkpt lat="43.65262" lon="3.34048">
        <ele>266</ele>
        <time>2026-05-12T12:17:00.000Z</time>
      </trkpt>
      <trkpt lat="43.65268" lon="3.3405">
        <ele>270</ele>
        <time>2026-05-12T12:17:15.000Z</time>
      </trkpt>
      <trkpt lat="43.65271" lon="3.34051">
        <ele>271</ele>
        <time>2026-05-12T12:17:30.000Z</time>
      </trkpt>
      <trkpt lat="43.65274" lon="3.34052">
        <ele>274</ele>
        <time>2026-05-12T12:17:44.000Z</time>
      </trkpt>
      <trkpt lat="43.65276" lon="3.34055">
        <ele>276</ele>
        <time>2026-05-12T12:18:02.000Z</time>
      </trkpt>
      <trkpt lat="43.65281" lon="3.34058">
        <ele>278</ele>
        <time>2026-05-12T12:18:17.000Z</time>
      </trkpt>
      <trkpt lat="43.65284" lon="3.34054">
        <ele>280</ele>
        <time>2026-05-12T12:18:31.000Z</time>
      </trkpt>
      <trkpt lat="43.65285" lon="3.3406">
        <ele>281</ele>
        <time>2026-05-12T12:18:45.000Z</time>
      </trkpt>
      <trkpt lat="43.65289" lon="3.34058">
        <ele>284</ele>
        <time>2026-05-12T12:18:58.000Z</time>
      </trkpt>
      <trkpt lat="43.65293" lon="3.34057">
        <ele>285</ele>
        <time>2026-05-12T12:19:09.000Z</time>
      </trkpt>
      <trkpt lat="43.65298" lon="3.34058">
        <ele>289</ele>
        <time>2026-05-12T12:19:21.000Z</time>
      </trkpt>
      <trkpt lat="43.65298" lon="3.34057">
        <ele>289</ele>
        <time>2026-05-12T12:19:35.000Z</time>
      </trkpt>
      <trkpt lat="43.65295" lon="3.34055">
        <ele>290</ele>
        <time>2026-05-12T12:19:57.000Z</time>
      </trkpt>
      <trkpt lat="43.65298" lon="3.34059">
        <ele>290</ele>
        <time>2026-05-12T12:20:20.000Z</time>
      </trkpt>
      <trkpt lat="43.65301" lon="3.34056">
        <ele>290</ele>
        <time>2026-05-12T12:20:37.000Z</time>
      </trkpt>
      <trkpt lat="43.65303" lon="3.34057">
        <ele>291</ele>
        <time>2026-05-12T12:20:49.000Z</time>
      </trkpt>
      <trkpt lat="43.65305" lon="3.34058">
        <ele>294</ele>
        <time>2026-05-12T12:21:03.000Z</time>
      </trkpt>
      <trkpt lat="43.65307" lon="3.34061">
        <ele>296</ele>
        <time>2026-05-12T12:21:16.000Z</time>
      </trkpt>
      <trkpt lat="43.65309" lon="3.34066">
        <ele>299</ele>
        <time>2026-05-12T12:21:31.000Z</time>
      </trkpt>
      <trkpt lat="43.65309" lon="3.34067">
        <ele>300</ele>
        <time>2026-05-12T12:21:33.000Z</time>
      </trkpt>
      <trkpt lat="43.65308" lon="3.34067">
        <ele>299</ele>
        <time>2026-05-12T12:21:38.000Z</time>
      </trkpt>
      <trkpt lat="43.65311" lon="3.34069">
        <ele>300</ele>
        <time>2026-05-12T12:21:47.000Z</time>
      </trkpt>
      <trkpt lat="43.65317" lon="3.34076">
        <ele>302</ele>
        <time>2026-05-12T12:22:00.000Z</time>
      </trkpt>
      <trkpt lat="43.65322" lon="3.34077">
        <ele>303</ele>
        <time>2026-05-12T12:22:13.000Z</time>
      </trkpt>
      <trkpt lat="43.6532" lon="3.34076">
        <ele>303</ele>
        <time>2026-05-12T12:22:39.000Z</time>
      </trkpt>
      <trkpt lat="43.65318" lon="3.34074">
        <ele>303</ele>
        <time>2026-05-12T12:22:57.000Z</time>
      </trkpt>
      <trkpt lat="43.65314" lon="3.3407">
        <ele>302</ele>
        <time>2026-05-12T12:23:13.000Z</time>
      </trkpt>
      <trkpt lat="43.6532" lon="3.34076">
        <ele>302</ele>
        <time>2026-05-12T12:23:22.000Z</time>
      </trkpt>
      <trkpt lat="43.65319" lon="3.34085">
        <ele>305</ele>
        <time>2026-05-12T12:23:37.000Z</time>
      </trkpt>
      <trkpt lat="43.65317" lon="3.34097">
        <ele>308</ele>
        <time>2026-05-12T12:23:52.000Z</time>
      </trkpt>
      <trkpt lat="43.65317" lon="3.34099">
        <ele>309</ele>
        <time>2026-05-12T12:23:54.000Z</time>
      </trkpt>
      <trkpt lat="43.65318" lon="3.34115">
        <ele>310</ele>
        <time>2026-05-12T12:24:09.000Z</time>
      </trkpt>
      <trkpt lat="43.65322" lon="3.34128">
        <ele>310</ele>
        <time>2026-05-12T12:24:22.000Z</time>
      </trkpt>
      <trkpt lat="43.65325" lon="3.34133">
        <ele>310</ele>
        <time>2026-05-12T12:24:36.000Z</time>
      </trkpt>
      <trkpt lat="43.65329" lon="3.34146">
        <ele>310</ele>
        <time>2026-05-12T12:24:55.000Z</time>
      </trkpt>
      <trkpt lat="43.65336" lon="3.34164">
        <ele>311</ele>
        <time>2026-05-12T12:25:09.000Z</time>
      </trkpt>
      <trkpt lat="43.65342" lon="3.34178">
        <ele>312</ele>
        <time>2026-05-12T12:25:23.000Z</time>
      </trkpt>
      <trkpt lat="43.65344" lon="3.34194">
        <ele>312</ele>
        <time>2026-05-12T12:25:35.000Z</time>
      </trkpt>
      <trkpt lat="43.65346" lon="3.342">
        <ele>312</ele>
        <time>2026-05-12T12:25:39.000Z</time>
      </trkpt>
      <trkpt lat="43.65355" lon="3.34208">
        <ele>313</ele>
        <time>2026-05-12T12:25:54.000Z</time>
      </trkpt>
      <trkpt lat="43.65362" lon="3.34218">
        <ele>316</ele>
        <time>2026-05-12T12:26:08.000Z</time>
      </trkpt>
      <trkpt lat="43.65366" lon="3.34231">
        <ele>319</ele>
        <time>2026-05-12T12:26:22.000Z</time>
      </trkpt>
      <trkpt lat="43.65367" lon="3.34235">
        <ele>319</ele>
        <time>2026-05-12T12:26:26.000Z</time>
      </trkpt>
      <trkpt lat="43.65368" lon="3.34242">
        <ele>319</ele>
        <time>2026-05-12T12:26:32.000Z</time>
      </trkpt>
      <trkpt lat="43.65371" lon="3.34248">
        <ele>318</ele>
        <time>2026-05-12T12:26:40.000Z</time>
      </trkpt>
      <trkpt lat="43.65372" lon="3.34256">
        <ele>317</ele>
        <time>2026-05-12T12:26:54.000Z</time>
      </trkpt>
      <trkpt lat="43.65372" lon="3.34254">
        <ele>317</ele>
        <time>2026-05-12T12:27:10.000Z</time>
      </trkpt>
      <trkpt lat="43.65372" lon="3.3425">
        <ele>318</ele>
        <time>2026-05-12T12:27:13.000Z</time>
      </trkpt>
      <trkpt lat="43.65372" lon="3.34234">
        <ele>319</ele>
        <time>2026-05-12T12:27:28.000Z</time>
      </trkpt>
      <trkpt lat="43.65374" lon="3.34223">
        <ele>316</ele>
        <time>2026-05-12T12:27:38.000Z</time>
      </trkpt>
      <trkpt lat="43.65375" lon="3.34221">
        <ele>316</ele>
        <time>2026-05-12T12:27:54.000Z</time>
      </trkpt>
      <trkpt lat="43.65374" lon="3.34226">
        <ele>317</ele>
        <time>2026-05-12T12:28:09.000Z</time>
      </trkpt>
      <trkpt lat="43.65374" lon="3.34227">
        <ele>317</ele>
        <time>2026-05-12T12:28:10.000Z</time>
      </trkpt>
      <trkpt lat="43.65374" lon="3.34232">
        <ele>318</ele>
        <time>2026-05-12T12:28:27.000Z</time>
      </trkpt>
      <trkpt lat="43.65376" lon="3.34232">
        <ele>318</ele>
        <time>2026-05-12T12:28:59.000Z</time>
      </trkpt>
      <trkpt lat="43.65375" lon="3.34232">
        <ele>318</ele>
        <time>2026-05-12T12:29:20.000Z</time>
      </trkpt>
      <trkpt lat="43.65372" lon="3.34232">
        <ele>319</ele>
        <time>2026-05-12T12:29:32.000Z</time>
      </trkpt>
      <trkpt lat="43.65367" lon="3.34234">
        <ele>319</ele>
        <time>2026-05-12T12:29:47.000Z</time>
      </trkpt>
      <trkpt lat="43.65367" lon="3.34237">
        <ele>319</ele>
        <time>2026-05-12T12:30:00.000Z</time>
      </trkpt>
      <trkpt lat="43.65369" lon="3.34242">
        <ele>319</ele>
        <time>2026-05-12T12:30:19.000Z</time>
      </trkpt>
      <trkpt lat="43.65369" lon="3.34243">
        <ele>319</ele>
        <time>2026-05-12T12:30:23.000Z</time>
      </trkpt>
      <trkpt lat="43.65371" lon="3.3425">
        <ele>318</ele>
        <time>2026-05-12T12:30:30.000Z</time>
      </trkpt>
      <trkpt lat="43.6537" lon="3.34246">
        <ele>317</ele>
        <time>2026-05-12T12:30:40.000Z</time>
      </trkpt>
      <trkpt lat="43.65364" lon="3.34237">
        <ele>319</ele>
        <time>2026-05-12T12:30:52.000Z</time>
      </trkpt>
      <trkpt lat="43.6536" lon="3.34221">
        <ele>319</ele>
        <time>2026-05-12T12:31:05.000Z</time>
      </trkpt>
      <trkpt lat="43.65357" lon="3.34217">
        <ele>318</ele>
        <time>2026-05-12T12:31:10.000Z</time>
      </trkpt>
      <trkpt lat="43.65354" lon="3.34205">
        <ele>315</ele>
        <time>2026-05-12T12:31:22.000Z</time>
      </trkpt>
      <trkpt lat="43.65348" lon="3.34202">
        <ele>313</ele>
        <time>2026-05-12T12:31:37.000Z</time>
      </trkpt>
      <trkpt lat="43.65344" lon="3.34192">
        <ele>312</ele>
        <time>2026-05-12T12:31:52.000Z</time>
      </trkpt>
      <trkpt lat="43.65341" lon="3.3418">
        <ele>312</ele>
        <time>2026-05-12T12:32:06.000Z</time>
      </trkpt>
      <trkpt lat="43.65336" lon="3.34166">
        <ele>311</ele>
        <time>2026-05-12T12:32:21.000Z</time>
      </trkpt>
      <trkpt lat="43.65332" lon="3.34154">
        <ele>311</ele>
        <time>2026-05-12T12:32:32.000Z</time>
      </trkpt>
      <trkpt lat="43.65325" lon="3.34137">
        <ele>310</ele>
        <time>2026-05-12T12:32:46.000Z</time>
      </trkpt>
      <trkpt lat="43.65317" lon="3.34124">
        <ele>310</ele>
        <time>2026-05-12T12:33:00.000Z</time>
      </trkpt>
      <trkpt lat="43.65316" lon="3.34109">
        <ele>310</ele>
        <time>2026-05-12T12:33:13.000Z</time>
      </trkpt>
      <trkpt lat="43.65315" lon="3.34096">
        <ele>309</ele>
        <time>2026-05-12T12:33:26.000Z</time>
      </trkpt>
      <trkpt lat="43.65317" lon="3.34084">
        <ele>306</ele>
        <time>2026-05-12T12:33:40.000Z</time>
      </trkpt>
      <trkpt lat="43.65321" lon="3.34079">
        <ele>305</ele>
        <time>2026-05-12T12:33:53.000Z</time>
      </trkpt>
      <trkpt lat="43.65319" lon="3.3407">
        <ele>304</ele>
        <time>2026-05-12T12:34:04.000Z</time>
      </trkpt>
      <trkpt lat="43.65319" lon="3.34068">
        <ele>302</ele>
        <time>2026-05-12T12:34:07.000Z</time>
      </trkpt>
      <trkpt lat="43.65319" lon="3.34062">
        <ele>301</ele>
        <time>2026-05-12T12:34:21.000Z</time>
      </trkpt>
      <trkpt lat="43.65319" lon="3.34056">
        <ele>299</ele>
        <time>2026-05-12T12:34:34.000Z</time>
      </trkpt>
      <trkpt lat="43.6532" lon="3.34052">
        <ele>296</ele>
        <time>2026-05-12T12:34:46.000Z</time>
      </trkpt>
      <trkpt lat="43.65321" lon="3.34043">
        <ele>292</ele>
        <time>2026-05-12T12:35:00.000Z</time>
      </trkpt>
      <trkpt lat="43.65319" lon="3.34032">
        <ele>291</ele>
        <time>2026-05-12T12:35:12.000Z</time>
      </trkpt>
      <trkpt lat="43.65311" lon="3.34025">
        <ele>288</ele>
        <time>2026-05-12T12:35:24.000Z</time>
      </trkpt>
      <trkpt lat="43.6531" lon="3.34024">
        <ele>286</ele>
        <time>2026-05-12T12:35:37.000Z</time>
      </trkpt>
      <trkpt lat="43.65308" lon="3.34025">
        <ele>283</ele>
        <time>2026-05-12T12:35:47.000Z</time>
      </trkpt>
      <trkpt lat="43.65303" lon="3.34024">
        <ele>282</ele>
        <time>2026-05-12T12:36:03.000Z</time>
      </trkpt>
      <trkpt lat="43.65299" lon="3.34025">
        <ele>281</ele>
        <time>2026-05-12T12:36:17.000Z</time>
      </trkpt>
      <trkpt lat="43.65294" lon="3.34037">
        <ele>281</ele>
        <time>2026-05-12T12:36:30.000Z</time>
      </trkpt>
      <trkpt lat="43.65291" lon="3.34042">
        <ele>282</ele>
        <time>2026-05-12T12:36:37.000Z</time>
      </trkpt>
      <trkpt lat="43.65284" lon="3.34047">
        <ele>282</ele>
        <time>2026-05-12T12:36:50.000Z</time>
      </trkpt>
      <trkpt lat="43.65281" lon="3.34054">
        <ele>281</ele>
        <time>2026-05-12T12:37:03.000Z</time>
      </trkpt>
      <trkpt lat="43.65281" lon="3.34056">
        <ele>278</ele>
        <time>2026-05-12T12:37:21.000Z</time>
      </trkpt>
      <trkpt lat="43.65277" lon="3.34056">
        <ele>277</ele>
        <time>2026-05-12T12:37:38.000Z</time>
      </trkpt>
      <trkpt lat="43.65275" lon="3.34054">
        <ele>277</ele>
        <time>2026-05-12T12:38:08.000Z</time>
      </trkpt>
      <trkpt lat="43.65278" lon="3.34055">
        <ele>277</ele>
        <time>2026-05-12T12:38:40.000Z</time>
      </trkpt>
      <trkpt lat="43.65274" lon="3.34052">
        <ele>276</ele>
        <time>2026-05-12T12:39:03.000Z</time>
      </trkpt>
      <trkpt lat="43.65274" lon="3.34049">
        <ele>273</ele>
        <time>2026-05-12T12:39:12.000Z</time>
      </trkpt>
      <trkpt lat="43.65273" lon="3.34048">
        <ele>273</ele>
        <time>2026-05-12T12:39:13.000Z</time>
      </trkpt>
      <trkpt lat="43.65278" lon="3.34036">
        <ele>271</ele>
        <time>2026-05-12T12:39:28.000Z</time>
      </trkpt>
      <trkpt lat="43.65281" lon="3.34025">
        <ele>268</ele>
        <time>2026-05-12T12:39:41.000Z</time>
      </trkpt>
      <trkpt lat="43.65281" lon="3.34021">
        <ele>265</ele>
        <time>2026-05-12T12:39:47.000Z</time>
      </trkpt>
      <trkpt lat="43.65282" lon="3.3402">
        <ele>266</ele>
        <time>2026-05-12T12:39:52.000Z</time>
      </trkpt>
      <trkpt lat="43.65281" lon="3.34018">
        <ele>265</ele>
        <time>2026-05-12T12:40:07.000Z</time>
      </trkpt>
      <trkpt lat="43.65277" lon="3.3401">
        <ele>264</ele>
        <time>2026-05-12T12:40:18.000Z</time>
      </trkpt>
      <trkpt lat="43.65277" lon="3.3401">
        <ele>263</ele>
        <time>2026-05-12T12:40:20.000Z</time>
      </trkpt>
      <trkpt lat="43.65274" lon="3.34006">
        <ele>260</ele>
        <time>2026-05-12T12:40:31.000Z</time>
      </trkpt>
      <trkpt lat="43.65269" lon="3.34001">
        <ele>257</ele>
        <time>2026-05-12T12:40:43.000Z</time>
      </trkpt>
      <trkpt lat="43.65265" lon="3.33999">
        <ele>255</ele>
        <time>2026-05-12T12:40:55.000Z</time>
      </trkpt>
      <trkpt lat="43.65264" lon="3.33997">
        <ele>255</ele>
        <time>2026-05-12T12:41:06.000Z</time>
      </trkpt>
      <trkpt lat="43.65265" lon="3.33989">
        <ele>252</ele>
        <time>2026-05-12T12:41:19.000Z</time>
      </trkpt>
      <trkpt lat="43.65262" lon="3.3399">
        <ele>249</ele>
        <time>2026-05-12T12:41:34.000Z</time>
      </trkpt>
      <trkpt lat="43.65256" lon="3.33989">
        <ele>245</ele>
        <time>2026-05-12T12:41:47.000Z</time>
      </trkpt>
      <trkpt lat="43.65253" lon="3.33982">
        <ele>242</ele>
        <time>2026-05-12T12:42:03.000Z</time>
      </trkpt>
      <trkpt lat="43.65252" lon="3.33986">
        <ele>241</ele>
        <time>2026-05-12T12:42:20.000Z</time>
      </trkpt>
      <trkpt lat="43.65252" lon="3.33991">
        <ele>241</ele>
        <time>2026-05-12T12:42:51.000Z</time>
      </trkpt>
      <trkpt lat="43.65249" lon="3.33989">
        <ele>241</ele>
        <time>2026-05-12T12:43:24.000Z</time>
      </trkpt>
      <trkpt lat="43.6525" lon="3.33992">
        <ele>241</ele>
        <time>2026-05-12T12:43:58.000Z</time>
      </trkpt>
      <trkpt lat="43.65251" lon="3.33991">
        <ele>241</ele>
        <time>2026-05-12T12:44:23.000Z</time>
      </trkpt>
      <trkpt lat="43.65254" lon="3.3399">
        <ele>241</ele>
        <time>2026-05-12T12:44:55.000Z</time>
      </trkpt>
      <trkpt lat="43.65252" lon="3.33988">
        <ele>241</ele>
        <time>2026-05-12T12:45:23.000Z</time>
      </trkpt>
      <trkpt lat="43.65253" lon="3.33986">
        <ele>241</ele>
        <time>2026-05-12T12:45:55.000Z</time>
      </trkpt>
      <trkpt lat="43.65254" lon="3.3399">
        <ele>241</ele>
        <time>2026-05-12T12:46:27.000Z</time>
      </trkpt>
      <trkpt lat="43.65254" lon="3.33992">
        <ele>241</ele>
        <time>2026-05-12T12:46:57.000Z</time>
      </trkpt>
      <trkpt lat="43.6526" lon="3.33989">
        <ele>241</ele>
        <time>2026-05-12T12:47:28.000Z</time>
      </trkpt>
      <trkpt lat="43.65259" lon="3.33988">
        <ele>241</ele>
        <time>2026-05-12T12:47:58.000Z</time>
      </trkpt>
      <trkpt lat="43.65256" lon="3.33991">
        <ele>241</ele>
        <time>2026-05-12T12:48:34.000Z</time>
      </trkpt>
      <trkpt lat="43.65252" lon="3.33992">
        <ele>241</ele>
        <time>2026-05-12T12:49:04.000Z</time>
      </trkpt>
      <trkpt lat="43.65253" lon="3.33993">
        <ele>241</ele>
        <time>2026-05-12T12:49:33.000Z</time>
      </trkpt>
      <trkpt lat="43.6525" lon="3.33984">
        <ele>239</ele>
        <time>2026-05-12T12:49:49.000Z</time>
      </trkpt>
      <trkpt lat="43.65244" lon="3.33978">
        <ele>237</ele>
        <time>2026-05-12T12:50:03.000Z</time>
      </trkpt>
      <trkpt lat="43.65235" lon="3.33978">
        <ele>234</ele>
        <time>2026-05-12T12:50:17.000Z</time>
      </trkpt>
      <trkpt lat="43.65234" lon="3.33976">
        <ele>234</ele>
        <time>2026-05-12T12:50:33.000Z</time>
      </trkpt>
      <trkpt lat="43.65231" lon="3.33969">
        <ele>231</ele>
        <time>2026-05-12T12:50:47.000Z</time>
      </trkpt>
      <trkpt lat="43.6523" lon="3.33961">
        <ele>231</ele>
        <time>2026-05-12T12:51:00.000Z</time>
      </trkpt>
      <trkpt lat="43.65226" lon="3.33955">
        <ele>229</ele>
        <time>2026-05-12T12:51:14.000Z</time>
      </trkpt>
      <trkpt lat="43.65222" lon="3.33951">
        <ele>229</ele>
        <time>2026-05-12T12:51:31.000Z</time>
      </trkpt>
      <trkpt lat="43.65216" lon="3.33955">
        <ele>227</ele>
        <time>2026-05-12T12:51:42.000Z</time>
      </trkpt>
      <trkpt lat="43.65213" lon="3.33954">
        <ele>226</ele>
        <time>2026-05-12T12:51:52.000Z</time>
      </trkpt>
      <trkpt lat="43.65212" lon="3.33954">
        <ele>225</ele>
        <time>2026-05-12T12:51:54.000Z</time>
      </trkpt>
      <trkpt lat="43.65208" lon="3.33953">
        <ele>224</ele>
        <time>2026-05-12T12:52:03.000Z</time>
      </trkpt>
      <trkpt lat="43.65197" lon="3.33953">
        <ele>221</ele>
        <time>2026-05-12T12:52:16.000Z</time>
      </trkpt>
      <trkpt lat="43.65194" lon="3.33955">
        <ele>221</ele>
        <time>2026-05-12T12:52:29.000Z</time>
      </trkpt>
      <trkpt lat="43.65189" lon="3.33967">
        <ele>221</ele>
        <time>2026-05-12T12:52:41.000Z</time>
      </trkpt>
      <trkpt lat="43.65189" lon="3.3397">
        <ele>221</ele>
        <time>2026-05-12T12:52:56.000Z</time>
      </trkpt>
      <trkpt lat="43.65187" lon="3.33976">
        <ele>222</ele>
        <time>2026-05-12T12:53:02.000Z</time>
      </trkpt>
      <trkpt lat="43.65178" lon="3.33989">
        <ele>223</ele>
        <time>2026-05-12T12:53:15.000Z</time>
      </trkpt>
      <trkpt lat="43.65173" lon="3.34005">
        <ele>224</ele>
        <time>2026-05-12T12:53:29.000Z</time>
      </trkpt>
      <trkpt lat="43.65172" lon="3.34011">
        <ele>225</ele>
        <time>2026-05-12T12:53:33.000Z</time>
      </trkpt>
      <trkpt lat="43.65167" lon="3.3403">
        <ele>227</ele>
        <time>2026-05-12T12:53:49.000Z</time>
      </trkpt>
      <trkpt lat="43.65164" lon="3.34045">
        <ele>228</ele>
        <time>2026-05-12T12:54:02.000Z</time>
      </trkpt>
      <trkpt lat="43.65159" lon="3.34067">
        <ele>230</ele>
        <time>2026-05-12T12:54:19.000Z</time>
      </trkpt>
      <trkpt lat="43.65156" lon="3.34091">
        <ele>232</ele>
        <time>2026-05-12T12:54:36.000Z</time>
      </trkpt>
      <trkpt lat="43.65157" lon="3.34098">
        <ele>232</ele>
        <time>2026-05-12T12:54:41.000Z</time>
      </trkpt>
      <trkpt lat="43.65157" lon="3.34114">
        <ele>232</ele>
        <time>2026-05-12T12:54:53.000Z</time>
      </trkpt>
      <trkpt lat="43.65156" lon="3.34122">
        <ele>233</ele>
        <time>2026-05-12T12:54:58.000Z</time>
      </trkpt>
      <trkpt lat="43.65155" lon="3.34152">
        <ele>232</ele>
        <time>2026-05-12T12:55:16.000Z</time>
      </trkpt>
      <trkpt lat="43.65154" lon="3.34176">
        <ele>232</ele>
        <time>2026-05-12T12:55:31.000Z</time>
      </trkpt>
      <trkpt lat="43.65152" lon="3.34198">
        <ele>232</ele>
        <time>2026-05-12T12:55:45.000Z</time>
      </trkpt>
      <trkpt lat="43.65154" lon="3.34222">
        <ele>232</ele>
        <time>2026-05-12T12:56:00.000Z</time>
      </trkpt>
      <trkpt lat="43.65159" lon="3.34248">
        <ele>231</ele>
        <time>2026-05-12T12:56:17.000Z</time>
      </trkpt>
      <trkpt lat="43.65162" lon="3.34274">
        <ele>231</ele>
        <time>2026-05-12T12:56:33.000Z</time>
      </trkpt>
      <trkpt lat="43.6517" lon="3.34297">
        <ele>230</ele>
        <time>2026-05-12T12:56:49.000Z</time>
      </trkpt>
      <trkpt lat="43.65179" lon="3.34311">
        <ele>230</ele>
        <time>2026-05-12T12:57:02.000Z</time>
      </trkpt>
      <trkpt lat="43.6518" lon="3.34312">
        <ele>230</ele>
        <time>2026-05-12T12:57:03.000Z</time>
      </trkpt>
      <trkpt lat="43.6518" lon="3.34329">
        <ele>228</ele>
        <time>2026-05-12T12:57:19.000Z</time>
      </trkpt>
      <trkpt lat="43.65176" lon="3.34331">
        <ele>226</ele>
        <time>2026-05-12T12:57:26.000Z</time>
      </trkpt>
      <trkpt lat="43.65172" lon="3.34328">
        <ele>226</ele>
        <time>2026-05-12T12:57:31.000Z</time>
      </trkpt>
      <trkpt lat="43.65162" lon="3.34329">
        <ele>222</ele>
        <time>2026-05-12T12:57:44.000Z</time>
      </trkpt>
      <trkpt lat="43.65153" lon="3.34333">
        <ele>219</ele>
        <time>2026-05-12T12:57:56.000Z</time>
      </trkpt>
      <trkpt lat="43.65147" lon="3.3434">
        <ele>216</ele>
        <time>2026-05-12T12:58:07.000Z</time>
      </trkpt>
      <trkpt lat="43.65146" lon="3.3434">
        <ele>216</ele>
        <time>2026-05-12T12:58:09.000Z</time>
      </trkpt>
      <trkpt lat="43.6513" lon="3.34343">
        <ele>213</ele>
        <time>2026-05-12T12:58:25.000Z</time>
      </trkpt>
      <trkpt lat="43.65126" lon="3.34345">
        <ele>212</ele>
        <time>2026-05-12T12:58:30.000Z</time>
      </trkpt>
      <trkpt lat="43.65115" lon="3.34347">
        <ele>209</ele>
        <time>2026-05-12T12:58:43.000Z</time>
      </trkpt>
      <trkpt lat="43.65114" lon="3.34346">
        <ele>209</ele>
        <time>2026-05-12T12:58:44.000Z</time>
      </trkpt>
      <trkpt lat="43.65105" lon="3.34335">
        <ele>204</ele>
        <time>2026-05-12T12:58:58.000Z</time>
      </trkpt>
      <trkpt lat="43.65102" lon="3.34334">
        <ele>204</ele>
        <time>2026-05-12T12:59:02.000Z</time>
      </trkpt>
      <trkpt lat="43.65099" lon="3.34336">
        <ele>203</ele>
        <time>2026-05-12T12:59:13.000Z</time>
      </trkpt>
      <trkpt lat="43.65097" lon="3.3434">
        <ele>203</ele>
        <time>2026-05-12T12:59:20.000Z</time>
      </trkpt>
      <trkpt lat="43.65096" lon="3.34336">
        <ele>203</ele>
        <time>2026-05-12T12:59:35.000Z</time>
      </trkpt>
      <trkpt lat="43.65097" lon="3.34364">
        <ele>203</ele>
        <time>2026-05-12T12:59:52.000Z</time>
      </trkpt>
      <trkpt lat="43.65109" lon="3.34382">
        <ele>203</ele>
        <time>2026-05-12T13:00:07.000Z</time>
      </trkpt>
      <trkpt lat="43.65111" lon="3.34397">
        <ele>201</ele>
        <time>2026-05-12T13:00:22.000Z</time>
      </trkpt>
      <trkpt lat="43.65102" lon="3.34401">
        <ele>198</ele>
        <time>2026-05-12T13:00:34.000Z</time>
      </trkpt>
      <trkpt lat="43.65103" lon="3.34417">
        <ele>196</ele>
        <time>2026-05-12T13:00:47.000Z</time>
      </trkpt>
      <trkpt lat="43.65103" lon="3.34423">
        <ele>194</ele>
        <time>2026-05-12T13:00:59.000Z</time>
      </trkpt>
      <trkpt lat="43.65098" lon="3.34426">
        <ele>194</ele>
        <time>2026-05-12T13:01:14.000Z</time>
      </trkpt>
      <trkpt lat="43.65097" lon="3.34431">
        <ele>192</ele>
        <time>2026-05-12T13:01:19.000Z</time>
      </trkpt>
      <trkpt lat="43.6509" lon="3.34435">
        <ele>190</ele>
        <time>2026-05-12T13:01:33.000Z</time>
      </trkpt>
      <trkpt lat="43.65078" lon="3.34436">
        <ele>189</ele>
        <time>2026-05-12T13:01:48.000Z</time>
      </trkpt>
      <trkpt lat="43.65077" lon="3.34436">
        <ele>189</ele>
        <time>2026-05-12T13:01:51.000Z</time>
      </trkpt>
      <trkpt lat="43.65067" lon="3.34443">
        <ele>186</ele>
        <time>2026-05-12T13:02:08.000Z</time>
      </trkpt>
      <trkpt lat="43.65064" lon="3.34446">
        <ele>185</ele>
        <time>2026-05-12T13:02:12.000Z</time>
      </trkpt>
      <trkpt lat="43.65056" lon="3.34459">
        <ele>181</ele>
        <time>2026-05-12T13:02:26.000Z</time>
      </trkpt>
      <trkpt lat="43.65053" lon="3.34464">
        <ele>180</ele>
        <time>2026-05-12T13:02:33.000Z</time>
      </trkpt>
      <trkpt lat="43.65049" lon="3.34464">
        <ele>179</ele>
        <time>2026-05-12T13:02:37.000Z</time>
      </trkpt>
      <trkpt lat="43.65047" lon="3.34467">
        <ele>180</ele>
        <time>2026-05-12T13:02:41.000Z</time>
      </trkpt>
      <trkpt lat="43.65047" lon="3.34468">
        <ele>179</ele>
        <time>2026-05-12T13:02:42.000Z</time>
      </trkpt>
      <trkpt lat="43.65044" lon="3.34476">
        <ele>178</ele>
        <time>2026-05-12T13:02:51.000Z</time>
      </trkpt>
      <trkpt lat="43.65035" lon="3.34483">
        <ele>177</ele>
        <time>2026-05-12T13:03:06.000Z</time>
      </trkpt>
      <trkpt lat="43.65034" lon="3.34485">
        <ele>176</ele>
        <time>2026-05-12T13:03:08.000Z</time>
      </trkpt>
      <trkpt lat="43.65035" lon="3.34495">
        <ele>176</ele>
        <time>2026-05-12T13:03:15.000Z</time>
      </trkpt>
      <trkpt lat="43.6503" lon="3.34515">
        <ele>174</ele>
        <time>2026-05-12T13:03:29.000Z</time>
      </trkpt>
      <trkpt lat="43.6503" lon="3.34517">
        <ele>174</ele>
        <time>2026-05-12T13:03:31.000Z</time>
      </trkpt>
      <trkpt lat="43.65023" lon="3.34529">
        <ele>172</ele>
        <time>2026-05-12T13:03:46.000Z</time>
      </trkpt>
      <trkpt lat="43.65024" lon="3.34535">
        <ele>171</ele>
        <time>2026-05-12T13:04:03.000Z</time>
      </trkpt>
      <trkpt lat="43.65027" lon="3.34543">
        <ele>170</ele>
        <time>2026-05-12T13:04:19.000Z</time>
      </trkpt>
      <trkpt lat="43.65027" lon="3.34548">
        <ele>170</ele>
        <time>2026-05-12T13:04:23.000Z</time>
      </trkpt>
      <trkpt lat="43.65023" lon="3.34558">
        <ele>169</ele>
        <time>2026-05-12T13:04:31.000Z</time>
      </trkpt>
      <trkpt lat="43.65017" lon="3.3458">
        <ele>167</ele>
        <time>2026-05-12T13:04:46.000Z</time>
      </trkpt>
      <trkpt lat="43.65015" lon="3.34599">
        <ele>165</ele>
        <time>2026-05-12T13:04:57.000Z</time>
      </trkpt>
      <trkpt lat="43.6501" lon="3.34611">
        <ele>165</ele>
        <time>2026-05-12T13:05:06.000Z</time>
      </trkpt>
      <trkpt lat="43.65007" lon="3.34615">
        <ele>164</ele>
        <time>2026-05-12T13:05:10.000Z</time>
      </trkpt>
      <trkpt lat="43.64996" lon="3.3464">
        <ele>162</ele>
        <time>2026-05-12T13:05:28.000Z</time>
      </trkpt>
      <trkpt lat="43.64984" lon="3.34664">
        <ele>161</ele>
        <time>2026-05-12T13:05:46.000Z</time>
      </trkpt>
      <trkpt lat="43.64975" lon="3.34688">
        <ele>159</ele>
        <time>2026-05-12T13:06:03.000Z</time>
      </trkpt>
      <trkpt lat="43.64961" lon="3.34713">
        <ele>158</ele>
        <time>2026-05-12T13:06:21.000Z</time>
      </trkpt>
      <trkpt lat="43.64948" lon="3.34736">
        <ele>156</ele>
        <time>2026-05-12T13:06:38.000Z</time>
      </trkpt>
      <trkpt lat="43.64934" lon="3.34755">
        <ele>155</ele>
        <time>2026-05-12T13:06:55.000Z</time>
      </trkpt>
      <trkpt lat="43.64916" lon="3.34777">
        <ele>152</ele>
        <time>2026-05-12T13:07:15.000Z</time>
      </trkpt>
      <trkpt lat="43.649" lon="3.34796">
        <ele>150</ele>
        <time>2026-05-12T13:07:32.000Z</time>
      </trkpt>
      <trkpt lat="43.64888" lon="3.34819">
        <ele>147</ele>
        <time>2026-05-12T13:07:49.000Z</time>
      </trkpt>
      <trkpt lat="43.64878" lon="3.34839">
        <ele>145</ele>
        <time>2026-05-12T13:08:04.000Z</time>
      </trkpt>
      <trkpt lat="43.64862" lon="3.34865">
        <ele>142</ele>
        <time>2026-05-12T13:08:24.000Z</time>
      </trkpt>
      <trkpt lat="43.64849" lon="3.34882">
        <ele>139</ele>
        <time>2026-05-12T13:08:39.000Z</time>
      </trkpt>
      <trkpt lat="43.64842" lon="3.3489">
        <ele>138</ele>
        <time>2026-05-12T13:08:47.000Z</time>
      </trkpt>
      <trkpt lat="43.64841" lon="3.34893">
        <ele>139</ele>
        <time>2026-05-12T13:08:50.000Z</time>
      </trkpt>
      <trkpt lat="43.6483" lon="3.34905">
        <ele>138</ele>
        <time>2026-05-12T13:09:03.000Z</time>
      </trkpt>
      <trkpt lat="43.6483" lon="3.3491">
        <ele>138</ele>
        <time>2026-05-12T13:09:07.000Z</time>
      </trkpt>
      <trkpt lat="43.64826" lon="3.34931">
        <ele>139</ele>
        <time>2026-05-12T13:09:20.000Z</time>
      </trkpt>
      <trkpt lat="43.64825" lon="3.34937">
        <ele>139</ele>
        <time>2026-05-12T13:09:24.000Z</time>
      </trkpt>
      <trkpt lat="43.64829" lon="3.34946">
        <ele>140</ele>
        <time>2026-05-12T13:09:32.000Z</time>
      </trkpt>
      <trkpt lat="43.64826" lon="3.34948">
        <ele>138</ele>
        <time>2026-05-12T13:09:35.000Z</time>
      </trkpt>
      <trkpt lat="43.64813" lon="3.3497">
        <ele>138</ele>
        <time>2026-05-12T13:09:51.000Z</time>
      </trkpt>
      <trkpt lat="43.64813" lon="3.34979">
        <ele>138</ele>
        <time>2026-05-12T13:09:56.000Z</time>
      </trkpt>
      <trkpt lat="43.64818" lon="3.34985">
        <ele>138</ele>
        <time>2026-05-12T13:10:02.000Z</time>
      </trkpt>
      <trkpt lat="43.64827" lon="3.34998">
        <ele>138</ele>
        <time>2026-05-12T13:10:12.000Z</time>
      </trkpt>
      <trkpt lat="43.64831" lon="3.35005">
        <ele>140</ele>
        <time>2026-05-12T13:10:18.000Z</time>
      </trkpt>
      <trkpt lat="43.64834" lon="3.35019">
        <ele>140</ele>
        <time>2026-05-12T13:10:28.000Z</time>
      </trkpt>
      <trkpt lat="43.64837" lon="3.35029">
        <ele>140</ele>
        <time>2026-05-12T13:10:34.000Z</time>
      </trkpt>
      <trkpt lat="43.64838" lon="3.3505">
        <ele>139</ele>
        <time>2026-05-12T13:10:46.000Z</time>
      </trkpt>
      <trkpt lat="43.64842" lon="3.35062">
        <ele>139</ele>
        <time>2026-05-12T13:10:54.000Z</time>
      </trkpt>
      <trkpt lat="43.64846" lon="3.35078">
        <ele>139</ele>
        <time>2026-05-12T13:11:03.000Z</time>
      </trkpt>
      <trkpt lat="43.64861" lon="3.35096">
        <ele>138</ele>
        <time>2026-05-12T13:11:20.000Z</time>
      </trkpt>
      <trkpt lat="43.64865" lon="3.35101">
        <ele>138</ele>
        <time>2026-05-12T13:11:24.000Z</time>
      </trkpt>
      <trkpt lat="43.64866" lon="3.35127">
        <ele>138</ele>
        <time>2026-05-12T13:11:41.000Z</time>
      </trkpt>
      <trkpt lat="43.64866" lon="3.3513">
        <ele>138</ele>
        <time>2026-05-12T13:11:43.000Z</time>
      </trkpt>
      <trkpt lat="43.64869" lon="3.35134">
        <ele>139</ele>
        <time>2026-05-12T13:11:47.000Z</time>
      </trkpt>
      <trkpt lat="43.64869" lon="3.35135">
        <ele>139</ele>
        <time>2026-05-12T13:11:48.000Z</time>
      </trkpt>
      <trkpt lat="43.64875" lon="3.35159">
        <ele>139</ele>
        <time>2026-05-12T13:12:04.000Z</time>
      </trkpt>
      <trkpt lat="43.64884" lon="3.35172">
        <ele>138</ele>
        <time>2026-05-12T13:12:14.000Z</time>
      </trkpt>
      <trkpt lat="43.64902" lon="3.35183">
        <ele>138</ele>
        <time>2026-05-12T13:12:29.000Z</time>
      </trkpt>
      <trkpt lat="43.64907" lon="3.35188">
        <ele>138</ele>
        <time>2026-05-12T13:12:34.000Z</time>
      </trkpt>
      <trkpt lat="43.64914" lon="3.35192">
        <ele>138</ele>
        <time>2026-05-12T13:12:40.000Z</time>
      </trkpt>
      <trkpt lat="43.64919" lon="3.35199">
        <ele>138</ele>
        <time>2026-05-12T13:12:46.000Z</time>
      </trkpt>
      <trkpt lat="43.64922" lon="3.3523">
        <ele>139</ele>
        <time>2026-05-12T13:13:05.000Z</time>
      </trkpt>
      <trkpt lat="43.64916" lon="3.35257">
        <ele>139</ele>
        <time>2026-05-12T13:13:21.000Z</time>
      </trkpt>
      <trkpt lat="43.64914" lon="3.35281">
        <ele>140</ele>
        <time>2026-05-12T13:13:36.000Z</time>
      </trkpt>
      <trkpt lat="43.64925" lon="3.3531">
        <ele>138</ele>
        <time>2026-05-12T13:13:55.000Z</time>
      </trkpt>
      <trkpt lat="43.64939" lon="3.35328">
        <ele>138</ele>
        <time>2026-05-12T13:14:10.000Z</time>
      </trkpt>
      <trkpt lat="43.64943" lon="3.35355">
        <ele>138</ele>
        <time>2026-05-12T13:14:26.000Z</time>
      </trkpt>
      <trkpt lat="43.64942" lon="3.3536">
        <ele>140</ele>
        <time>2026-05-12T13:14:29.000Z</time>
      </trkpt>
      <trkpt lat="43.64942" lon="3.35361">
        <ele>140</ele>
        <time>2026-05-12T13:14:30.000Z</time>
      </trkpt>
      <trkpt lat="43.64929" lon="3.35395">
        <ele>140</ele>
        <time>2026-05-12T13:14:49.000Z</time>
      </trkpt>
      <trkpt lat="43.64915" lon="3.35409">
        <ele>140</ele>
        <time>2026-05-12T13:15:05.000Z</time>
      </trkpt>
      <trkpt lat="43.6491" lon="3.35419">
        <ele>140</ele>
        <time>2026-05-12T13:15:12.000Z</time>
      </trkpt>
      <trkpt lat="43.64913" lon="3.35434">
        <ele>140</ele>
        <time>2026-05-12T13:15:21.000Z</time>
      </trkpt>
      <trkpt lat="43.64919" lon="3.35446">
        <ele>141</ele>
        <time>2026-05-12T13:15:30.000Z</time>
      </trkpt>
      <trkpt lat="43.64926" lon="3.35459">
        <ele>141</ele>
        <time>2026-05-12T13:15:39.000Z</time>
      </trkpt>
      <trkpt lat="43.64928" lon="3.35464">
        <ele>141</ele>
        <time>2026-05-12T13:15:42.000Z</time>
      </trkpt>
      <trkpt lat="43.64947" lon="3.35481">
        <ele>141</ele>
        <time>2026-05-12T13:15:58.000Z</time>
      </trkpt>
      <trkpt lat="43.64968" lon="3.35492">
        <ele>141</ele>
        <time>2026-05-12T13:16:15.000Z</time>
      </trkpt>
      <trkpt lat="43.64978" lon="3.35497">
        <ele>141</ele>
        <time>2026-05-12T13:16:23.000Z</time>
      </trkpt>
      <trkpt lat="43.64984" lon="3.35502">
        <ele>141</ele>
        <time>2026-05-12T13:16:29.000Z</time>
      </trkpt>
      <trkpt lat="43.64994" lon="3.35529">
        <ele>141</ele>
        <time>2026-05-12T13:16:47.000Z</time>
      </trkpt>
      <trkpt lat="43.64988" lon="3.3556">
        <ele>140</ele>
        <time>2026-05-12T13:17:04.000Z</time>
      </trkpt>
      <trkpt lat="43.64982" lon="3.35588">
        <ele>140</ele>
        <time>2026-05-12T13:17:21.000Z</time>
      </trkpt>
      <trkpt lat="43.64975" lon="3.35619">
        <ele>140</ele>
        <time>2026-05-12T13:17:39.000Z</time>
      </trkpt>
      <trkpt lat="43.64967" lon="3.3565">
        <ele>139</ele>
        <time>2026-05-12T13:17:57.000Z</time>
      </trkpt>
      <trkpt lat="43.6496" lon="3.35668">
        <ele>138</ele>
        <time>2026-05-12T13:18:09.000Z</time>
      </trkpt>
      <trkpt lat="43.64955" lon="3.35671">
        <ele>138</ele>
        <time>2026-05-12T13:18:13.000Z</time>
      </trkpt>
      <trkpt lat="43.64931" lon="3.3568">
        <ele>138</ele>
        <time>2026-05-12T13:18:31.000Z</time>
      </trkpt>
      <trkpt lat="43.64916" lon="3.35694">
        <ele>139</ele>
        <time>2026-05-12T13:18:45.000Z</time>
      </trkpt>
      <trkpt lat="43.64903" lon="3.35715">
        <ele>140</ele>
        <time>2026-05-12T13:19:01.000Z</time>
      </trkpt>
      <trkpt lat="43.6489" lon="3.35732">
        <ele>140</ele>
        <time>2026-05-12T13:19:17.000Z</time>
      </trkpt>
      <trkpt lat="43.64885" lon="3.35736">
        <ele>138</ele>
        <time>2026-05-12T13:19:21.000Z</time>
      </trkpt>
      <trkpt lat="43.64864" lon="3.35751">
        <ele>138</ele>
        <time>2026-05-12T13:19:38.000Z</time>
      </trkpt>
      <trkpt lat="43.6486" lon="3.35753">
        <ele>140</ele>
        <time>2026-05-12T13:19:41.000Z</time>
      </trkpt>
      <trkpt lat="43.64856" lon="3.35756">
        <ele>140</ele>
        <time>2026-05-12T13:19:48.000Z</time>
      </trkpt>
      <trkpt lat="43.64861" lon="3.35763">
        <ele>140</ele>
        <time>2026-05-12T13:19:56.000Z</time>
      </trkpt>
      <trkpt lat="43.64859" lon="3.35772">
        <ele>140</ele>
        <time>2026-05-12T13:20:01.000Z</time>
      </trkpt>
      <trkpt lat="43.6486" lon="3.35777">
        <ele>140</ele>
        <time>2026-05-12T13:20:04.000Z</time>
      </trkpt>
      <trkpt lat="43.6486" lon="3.3578">
        <ele>140</ele>
        <time>2026-05-12T13:20:10.000Z</time>
      </trkpt>
      <trkpt lat="43.6486" lon="3.35764">
        <ele>139</ele>
        <time>2026-05-12T13:20:21.000Z</time>
      </trkpt>
      <trkpt lat="43.64872" lon="3.35767">
        <ele>139</ele>
        <time>2026-05-12T13:20:33.000Z</time>
      </trkpt>
      <trkpt lat="43.64879" lon="3.35766">
        <ele>139</ele>
        <time>2026-05-12T13:20:38.000Z</time>
      </trkpt>
      <trkpt lat="43.64876" lon="3.35784">
        <ele>138</ele>
        <time>2026-05-12T13:20:51.000Z</time>
      </trkpt>
      <trkpt lat="43.64868" lon="3.35795">
        <ele>138</ele>
        <time>2026-05-12T13:21:01.000Z</time>
      </trkpt>
      <trkpt lat="43.64865" lon="3.3581">
        <ele>137</ele>
        <time>2026-05-12T13:21:15.000Z</time>
      </trkpt>
      <trkpt lat="43.64863" lon="3.35816">
        <ele>139</ele>
        <time>2026-05-12T13:21:19.000Z</time>
      </trkpt>
      <trkpt lat="43.64863" lon="3.35817">
        <ele>139</ele>
        <time>2026-05-12T13:21:20.000Z</time>
      </trkpt>
      <trkpt lat="43.64861" lon="3.3582">
        <ele>139</ele>
        <time>2026-05-12T13:21:22.000Z</time>
      </trkpt>
      <trkpt lat="43.64853" lon="3.35842">
        <ele>139</ele>
        <time>2026-05-12T13:21:36.000Z</time>
      </trkpt>
      <trkpt lat="43.64845" lon="3.35865">
        <ele>139</ele>
        <time>2026-05-12T13:21:52.000Z</time>
      </trkpt>
      <trkpt lat="43.64846" lon="3.3588">
        <ele>138</ele>
        <time>2026-05-12T13:22:02.000Z</time>
      </trkpt>
      <trkpt lat="43.6484" lon="3.35904">
        <ele>139</ele>
        <time>2026-05-12T13:22:18.000Z</time>
      </trkpt>
      <trkpt lat="43.64837" lon="3.3591">
        <ele>139</ele>
        <time>2026-05-12T13:22:37.000Z</time>
      </trkpt>
      <trkpt lat="43.64824" lon="3.35935">
        <ele>139</ele>
        <time>2026-05-12T13:22:53.000Z</time>
      </trkpt>
      <trkpt lat="43.64816" lon="3.3595">
        <ele>139</ele>
        <time>2026-05-12T13:23:07.000Z</time>
      </trkpt>
      <trkpt lat="43.64805" lon="3.35962">
        <ele>138</ele>
        <time>2026-05-12T13:23:21.000Z</time>
      </trkpt>
      <trkpt lat="43.64799" lon="3.35977">
        <ele>138</ele>
        <time>2026-05-12T13:23:35.000Z</time>
      </trkpt>
      <trkpt lat="43.64796" lon="3.35982">
        <ele>138</ele>
        <time>2026-05-12T13:23:39.000Z</time>
      </trkpt>
      <trkpt lat="43.64792" lon="3.35991">
        <ele>138</ele>
        <time>2026-05-12T13:23:46.000Z</time>
      </trkpt>
      <trkpt lat="43.64786" lon="3.36001">
        <ele>138</ele>
        <time>2026-05-12T13:23:59.000Z</time>
      </trkpt>
      <trkpt lat="43.64778" lon="3.36018">
        <ele>139</ele>
        <time>2026-05-12T13:24:13.000Z</time>
      </trkpt>
      <trkpt lat="43.64774" lon="3.36033">
        <ele>137</ele>
        <time>2026-05-12T13:24:24.000Z</time>
      </trkpt>
      <trkpt lat="43.64771" lon="3.36043">
        <ele>137</ele>
        <time>2026-05-12T13:24:37.000Z</time>
      </trkpt>
      <trkpt lat="43.64757" lon="3.36059">
        <ele>137</ele>
        <time>2026-05-12T13:24:52.000Z</time>
      </trkpt>
      <trkpt lat="43.64742" lon="3.3608">
        <ele>137</ele>
        <time>2026-05-12T13:25:08.000Z</time>
      </trkpt>
      <trkpt lat="43.64734" lon="3.36094">
        <ele>137</ele>
        <time>2026-05-12T13:25:18.000Z</time>
      </trkpt>
      <trkpt lat="43.64732" lon="3.36097">
        <ele>137</ele>
        <time>2026-05-12T13:25:20.000Z</time>
      </trkpt>
      <trkpt lat="43.64727" lon="3.36097">
        <ele>139</ele>
        <time>2026-05-12T13:25:28.000Z</time>
      </trkpt>
      <trkpt lat="43.64712" lon="3.36082">
        <ele>139</ele>
        <time>2026-05-12T13:25:43.000Z</time>
      </trkpt>
      <trkpt lat="43.64696" lon="3.36062">
        <ele>140</ele>
        <time>2026-05-12T13:26:00.000Z</time>
      </trkpt>
      <trkpt lat="43.64688" lon="3.36045">
        <ele>141</ele>
        <time>2026-05-12T13:26:12.000Z</time>
      </trkpt>
      <trkpt lat="43.64688" lon="3.36044">
        <ele>141</ele>
        <time>2026-05-12T13:26:13.000Z</time>
      </trkpt>
      <trkpt lat="43.64678" lon="3.3603">
        <ele>142</ele>
        <time>2026-05-12T13:26:23.000Z</time>
      </trkpt>
      <trkpt lat="43.64663" lon="3.36013">
        <ele>143</ele>
        <time>2026-05-12T13:26:39.000Z</time>
      </trkpt>
      <trkpt lat="43.64659" lon="3.35987">
        <ele>144</ele>
        <time>2026-05-12T13:26:54.000Z</time>
      </trkpt>
      <trkpt lat="43.64638" lon="3.35975">
        <ele>143</ele>
        <time>2026-05-12T13:27:12.000Z</time>
      </trkpt>
      <trkpt lat="43.64619" lon="3.35973">
        <ele>142</ele>
        <time>2026-05-12T13:27:28.000Z</time>
      </trkpt>
      <trkpt lat="43.64599" lon="3.35973">
        <ele>143</ele>
        <time>2026-05-12T13:27:44.000Z</time>
      </trkpt>
      <trkpt lat="43.6459" lon="3.35988">
        <ele>143</ele>
        <time>2026-05-12T13:27:59.000Z</time>
      </trkpt>
      <trkpt lat="43.64572" lon="3.36007">
        <ele>145</ele>
        <time>2026-05-12T13:28:16.000Z</time>
      </trkpt>
      <trkpt lat="43.64549" lon="3.36016">
        <ele>146</ele>
        <time>2026-05-12T13:28:34.000Z</time>
      </trkpt>
      <trkpt lat="43.64525" lon="3.36017">
        <ele>146</ele>
        <time>2026-05-12T13:28:51.000Z</time>
      </trkpt>
      <trkpt lat="43.64514" lon="3.36023">
        <ele>147</ele>
        <time>2026-05-12T13:29:00.000Z</time>
      </trkpt>
      <trkpt lat="43.64507" lon="3.3604">
        <ele>148</ele>
        <time>2026-05-12T13:29:11.000Z</time>
      </trkpt>
      <trkpt lat="43.6449" lon="3.36047">
        <ele>149</ele>
        <time>2026-05-12T13:29:28.000Z</time>
      </trkpt>
      <trkpt lat="43.64473" lon="3.3606">
        <ele>151</ele>
        <time>2026-05-12T13:29:45.000Z</time>
      </trkpt>
      <trkpt lat="43.64454" lon="3.36071">
        <ele>151</ele>
        <time>2026-05-12T13:30:01.000Z</time>
      </trkpt>
      <trkpt lat="43.64434" lon="3.3608">
        <ele>150</ele>
        <time>2026-05-12T13:30:17.000Z</time>
      </trkpt>
      <trkpt lat="43.64419" lon="3.36098">
        <ele>151</ele>
        <time>2026-05-12T13:30:33.000Z</time>
      </trkpt>
      <trkpt lat="43.644" lon="3.36111">
        <ele>152</ele>
        <time>2026-05-12T13:30:49.000Z</time>
      </trkpt>
      <trkpt lat="43.64383" lon="3.36125">
        <ele>153</ele>
        <time>2026-05-12T13:31:04.000Z</time>
      </trkpt>
      <trkpt lat="43.64362" lon="3.36141">
        <ele>153</ele>
        <time>2026-05-12T13:31:21.000Z</time>
      </trkpt>
      <trkpt lat="43.6434" lon="3.36157">
        <ele>154</ele>
        <time>2026-05-12T13:31:39.000Z</time>
      </trkpt>
      <trkpt lat="43.64326" lon="3.36161">
        <ele>154</ele>
        <time>2026-05-12T13:31:56.000Z</time>
      </trkpt>
      <trkpt lat="43.64327" lon="3.36163">
        <ele>154</ele>
        <time>2026-05-12T13:32:21.000Z</time>
      </trkpt>
      <trkpt lat="43.64329" lon="3.36163">
        <ele>154</ele>
        <time>2026-05-12T13:32:44.000Z</time>
      </trkpt>
      <trkpt lat="43.6433" lon="3.36164">
        <ele>154</ele>
        <time>2026-05-12T13:33:05.000Z</time>
      </trkpt>
      <trkpt lat="43.64331" lon="3.36166">
        <ele>154</ele>
        <time>2026-05-12T13:33:36.000Z</time>
      </trkpt>
      <trkpt lat="43.6433" lon="3.36165">
        <ele>154</ele>
        <time>2026-05-12T13:34:06.000Z</time>
      </trkpt>
      <trkpt lat="43.6433" lon="3.36164">
        <ele>154</ele>
        <time>2026-05-12T13:34:31.000Z</time>
      </trkpt>
      <trkpt lat="43.6433" lon="3.36162">
        <ele>154</ele>
        <time>2026-05-12T13:34:57.000Z</time>
      </trkpt>
      <trkpt lat="43.64332" lon="3.36162">
        <ele>155</ele>
        <time>2026-05-12T13:35:19.000Z</time>
      </trkpt>
      <trkpt lat="43.64332" lon="3.36162">
        <ele>153</ele>
        <time>2026-05-12T13:35:22.000Z</time>
      </trkpt>
      <trkpt lat="43.64332" lon="3.36161">
        <ele>155</ele>
        <time>2026-05-12T13:35:36.000Z</time>
      </trkpt>
      <trkpt lat="43.64332" lon="3.36162">
        <ele>154</ele>
        <time>2026-05-12T13:35:38.000Z</time>
      </trkpt>
      <trkpt lat="43.6433" lon="3.36161">
        <ele>154</ele>
        <time>2026-05-12T13:36:11.000Z</time>
      </trkpt>
      <trkpt lat="43.6432" lon="3.36167">
        <ele>154</ele>
        <time>2026-05-12T13:36:27.000Z</time>
      </trkpt>
      <trkpt lat="43.64307" lon="3.36181">
        <ele>154</ele>
        <time>2026-05-12T13:36:41.000Z</time>
      </trkpt>
      <trkpt lat="43.64294" lon="3.36198">
        <ele>153</ele>
        <time>2026-05-12T13:36:56.000Z</time>
      </trkpt>
      <trkpt lat="43.64294" lon="3.36211">
        <ele>153</ele>
        <time>2026-05-12T13:37:03.000Z</time>
      </trkpt>
      <trkpt lat="43.64292" lon="3.36239">
        <ele>153</ele>
        <time>2026-05-12T13:37:19.000Z</time>
      </trkpt>
      <trkpt lat="43.64291" lon="3.36265">
        <ele>152</ele>
        <time>2026-05-12T13:37:33.000Z</time>
      </trkpt>
      <trkpt lat="43.64293" lon="3.36292">
        <ele>149</ele>
        <time>2026-05-12T13:37:48.000Z</time>
      </trkpt>
      <trkpt lat="43.64292" lon="3.363">
        <ele>148</ele>
        <time>2026-05-12T13:37:53.000Z</time>
      </trkpt>
      <trkpt lat="43.64291" lon="3.36314">
        <ele>148</ele>
        <time>2026-05-12T13:38:01.000Z</time>
      </trkpt>
      <trkpt lat="43.64282" lon="3.36333">
        <ele>148</ele>
        <time>2026-05-12T13:38:16.000Z</time>
      </trkpt>
      <trkpt lat="43.64273" lon="3.36352">
        <ele>147</ele>
        <time>2026-05-12T13:38:31.000Z</time>
      </trkpt>
      <trkpt lat="43.64285" lon="3.36361">
        <ele>146</ele>
        <time>2026-05-12T13:38:45.000Z</time>
      </trkpt>
      <trkpt lat="43.64287" lon="3.36365">
        <ele>145</ele>
        <time>2026-05-12T13:38:49.000Z</time>
      </trkpt>
      <trkpt lat="43.64296" lon="3.36361">
        <ele>145</ele>
        <time>2026-05-12T13:38:56.000Z</time>
      </trkpt>
      <trkpt lat="43.64298" lon="3.36355">
        <ele>144</ele>
        <time>2026-05-12T13:39:00.000Z</time>
      </trkpt>
      <trkpt lat="43.64306" lon="3.36375">
        <ele>141</ele>
        <time>2026-05-12T13:39:14.000Z</time>
      </trkpt>
      <trkpt lat="43.64307" lon="3.36383">
        <ele>141</ele>
        <time>2026-05-12T13:39:24.000Z</time>
      </trkpt>
      <trkpt lat="43.64302" lon="3.36382">
        <ele>140</ele>
        <time>2026-05-12T13:39:38.000Z</time>
      </trkpt>
      <trkpt lat="43.64306" lon="3.36385">
        <ele>140</ele>
        <time>2026-05-12T13:39:57.000Z</time>
      </trkpt>
      <trkpt lat="43.64305" lon="3.36389">
        <ele>141</ele>
        <time>2026-05-12T13:40:00.000Z</time>
      </trkpt>
      <trkpt lat="43.643" lon="3.36403">
        <ele>141</ele>
        <time>2026-05-12T13:40:08.000Z</time>
      </trkpt>
      <trkpt lat="43.64291" lon="3.36436">
        <ele>139</ele>
        <time>2026-05-12T13:40:29.000Z</time>
      </trkpt>
      <trkpt lat="43.64286" lon="3.36454">
        <ele>139</ele>
        <time>2026-05-12T13:40:40.000Z</time>
      </trkpt>
      <trkpt lat="43.64281" lon="3.36485">
        <ele>139</ele>
        <time>2026-05-12T13:40:58.000Z</time>
      </trkpt>
      <trkpt lat="43.6428" lon="3.36511">
        <ele>139</ele>
        <time>2026-05-12T13:41:13.000Z</time>
      </trkpt>
      <trkpt lat="43.6428" lon="3.36537">
        <ele>139</ele>
        <time>2026-05-12T13:41:28.000Z</time>
      </trkpt>
      <trkpt lat="43.6428" lon="3.36549">
        <ele>140</ele>
        <time>2026-05-12T13:41:34.000Z</time>
      </trkpt>
      <trkpt lat="43.64282" lon="3.36584">
        <ele>140</ele>
        <time>2026-05-12T13:41:51.000Z</time>
      </trkpt>
      <trkpt lat="43.64283" lon="3.36604">
        <ele>139</ele>
        <time>2026-05-12T13:42:01.000Z</time>
      </trkpt>
      <trkpt lat="43.64283" lon="3.36621">
        <ele>139</ele>
        <time>2026-05-12T13:42:09.000Z</time>
      </trkpt>
      <trkpt lat="43.64284" lon="3.3663">
        <ele>139</ele>
        <time>2026-05-12T13:42:14.000Z</time>
      </trkpt>
      <trkpt lat="43.64285" lon="3.36645">
        <ele>139</ele>
        <time>2026-05-12T13:42:24.000Z</time>
      </trkpt>
      <trkpt lat="43.64289" lon="3.36651">
        <ele>139</ele>
        <time>2026-05-12T13:42:29.000Z</time>
      </trkpt>
      <trkpt lat="43.64291" lon="3.36653">
        <ele>138</ele>
        <time>2026-05-12T13:42:31.000Z</time>
      </trkpt>
      <trkpt lat="43.64294" lon="3.36654">
        <ele>138</ele>
        <time>2026-05-12T13:42:34.000Z</time>
      </trkpt>
      <trkpt lat="43.64308" lon="3.36668">
        <ele>138</ele>
        <time>2026-05-12T13:42:48.000Z</time>
      </trkpt>
      <trkpt lat="43.64305" lon="3.36699">
        <ele>138</ele>
        <time>2026-05-12T13:43:04.000Z</time>
      </trkpt>
      <trkpt lat="43.64298" lon="3.36724">
        <ele>139</ele>
        <time>2026-05-12T13:43:19.000Z</time>
      </trkpt>
      <trkpt lat="43.64294" lon="3.36747">
        <ele>140</ele>
        <time>2026-05-12T13:43:31.000Z</time>
      </trkpt>
      <trkpt lat="43.64291" lon="3.36756">
        <ele>140</ele>
        <time>2026-05-12T13:43:37.000Z</time>
      </trkpt>
      <trkpt lat="43.64292" lon="3.36768">
        <ele>138</ele>
        <time>2026-05-12T13:43:44.000Z</time>
      </trkpt>
      <trkpt lat="43.64297" lon="3.36777">
        <ele>138</ele>
        <time>2026-05-12T13:43:52.000Z</time>
      </trkpt>
      <trkpt lat="43.64301" lon="3.36792">
        <ele>140</ele>
        <time>2026-05-12T13:44:01.000Z</time>
      </trkpt>
      <trkpt lat="43.64309" lon="3.36816">
        <ele>140</ele>
        <time>2026-05-12T13:44:16.000Z</time>
      </trkpt>
      <trkpt lat="43.64312" lon="3.36842">
        <ele>142</ele>
        <time>2026-05-12T13:44:30.000Z</time>
      </trkpt>
      <trkpt lat="43.64307" lon="3.3687">
        <ele>140</ele>
        <time>2026-05-12T13:44:45.000Z</time>
      </trkpt>
      <trkpt lat="43.64307" lon="3.36871">
        <ele>140</ele>
        <time>2026-05-12T13:44:46.000Z</time>
      </trkpt>
      <trkpt lat="43.64306" lon="3.36904">
        <ele>140</ele>
        <time>2026-05-12T13:45:04.000Z</time>
      </trkpt>
      <trkpt lat="43.64307" lon="3.36935">
        <ele>140</ele>
        <time>2026-05-12T13:45:20.000Z</time>
      </trkpt>
      <trkpt lat="43.64305" lon="3.36965">
        <ele>140</ele>
        <time>2026-05-12T13:45:36.000Z</time>
      </trkpt>
      <trkpt lat="43.64301" lon="3.36997">
        <ele>140</ele>
        <time>2026-05-12T13:45:52.000Z</time>
      </trkpt>
      <trkpt lat="43.64302" lon="3.37007">
        <ele>140</ele>
        <time>2026-05-12T13:45:57.000Z</time>
      </trkpt>
      <trkpt lat="43.64307" lon="3.37021">
        <ele>139</ele>
        <time>2026-05-12T13:46:06.000Z</time>
      </trkpt>
      <trkpt lat="43.64301" lon="3.37049">
        <ele>140</ele>
        <time>2026-05-12T13:46:22.000Z</time>
      </trkpt>
      <trkpt lat="43.64301" lon="3.3707">
        <ele>140</ele>
        <time>2026-05-12T13:46:36.000Z</time>
      </trkpt>
      <trkpt lat="43.64305" lon="3.37093">
        <ele>141</ele>
        <time>2026-05-12T13:46:50.000Z</time>
      </trkpt>
      <trkpt lat="43.64311" lon="3.37114">
        <ele>141</ele>
        <time>2026-05-12T13:47:05.000Z</time>
      </trkpt>
      <trkpt lat="43.6431" lon="3.37113">
        <ele>141</ele>
        <time>2026-05-12T13:47:16.000Z</time>
      </trkpt>
      <trkpt lat="43.64289" lon="3.37109">
        <ele>142</ele>
        <time>2026-05-12T13:47:34.000Z</time>
      </trkpt>
      <trkpt lat="43.64284" lon="3.37107">
        <ele>143</ele>
        <time>2026-05-12T13:47:48.000Z</time>
      </trkpt>
      <trkpt lat="43.64274" lon="3.37106">
        <ele>143</ele>
        <time>2026-05-12T13:48:07.000Z</time>
      </trkpt>
      <trkpt lat="43.64258" lon="3.37104">
        <ele>144</ele>
        <time>2026-05-12T13:48:21.000Z</time>
      </trkpt>
      <trkpt lat="43.64237" lon="3.37108">
        <ele>145</ele>
        <time>2026-05-12T13:48:38.000Z</time>
      </trkpt>
      <trkpt lat="43.64216" lon="3.37114">
        <ele>146</ele>
        <time>2026-05-12T13:48:55.000Z</time>
      </trkpt>
      <trkpt lat="43.642" lon="3.37119">
        <ele>147</ele>
        <time>2026-05-12T13:49:08.000Z</time>
      </trkpt>
      <trkpt lat="43.64198" lon="3.3712">
        <ele>147</ele>
        <time>2026-05-12T13:49:10.000Z</time>
      </trkpt>
      <trkpt lat="43.64181" lon="3.37123">
        <ele>149</ele>
        <time>2026-05-12T13:49:27.000Z</time>
      </trkpt>
      <trkpt lat="43.64167" lon="3.37122">
        <ele>153</ele>
        <time>2026-05-12T13:49:41.000Z</time>
      </trkpt>
      <trkpt lat="43.64152" lon="3.37121">
        <ele>154</ele>
        <time>2026-05-12T13:49:55.000Z</time>
      </trkpt>
      <trkpt lat="43.64138" lon="3.37114">
        <ele>157</ele>
        <time>2026-05-12T13:50:10.000Z</time>
      </trkpt>
      <trkpt lat="43.64138" lon="3.37112">
        <ele>155</ele>
        <time>2026-05-12T13:50:12.000Z</time>
      </trkpt>
      <trkpt lat="43.64138" lon="3.37107">
        <ele>157</ele>
        <time>2026-05-12T13:50:15.000Z</time>
      </trkpt>
      <trkpt lat="43.64134" lon="3.37084">
        <ele>158</ele>
        <time>2026-05-12T13:50:30.000Z</time>
      </trkpt>
      <trkpt lat="43.64124" lon="3.37066">
        <ele>161</ele>
        <time>2026-05-12T13:50:44.000Z</time>
      </trkpt>
      <trkpt lat="43.64114" lon="3.37049">
        <ele>164</ele>
        <time>2026-05-12T13:50:58.000Z</time>
      </trkpt>
      <trkpt lat="43.64097" lon="3.37028">
        <ele>165</ele>
        <time>2026-05-12T13:51:16.000Z</time>
      </trkpt>
      <trkpt lat="43.6408" lon="3.3701">
        <ele>167</ele>
        <time>2026-05-12T13:51:33.000Z</time>
      </trkpt>
      <trkpt lat="43.64062" lon="3.36996">
        <ele>168</ele>
        <time>2026-05-12T13:51:50.000Z</time>
      </trkpt>
      <trkpt lat="43.64047" lon="3.36969">
        <ele>168</ele>
        <time>2026-05-12T13:52:08.000Z</time>
      </trkpt>
      <trkpt lat="43.64034" lon="3.36952">
        <ele>171</ele>
        <time>2026-05-12T13:52:24.000Z</time>
      </trkpt>
      <trkpt lat="43.64033" lon="3.36951">
        <ele>171</ele>
        <time>2026-05-12T13:52:45.000Z</time>
      </trkpt>
      <trkpt lat="43.6403" lon="3.3695">
        <ele>170</ele>
        <time>2026-05-12T13:53:10.000Z</time>
      </trkpt>
      <trkpt lat="43.6402" lon="3.36944">
        <ele>172</ele>
        <time>2026-05-12T13:53:23.000Z</time>
      </trkpt>
      <trkpt lat="43.64001" lon="3.36931">
        <ele>173</ele>
        <time>2026-05-12T13:53:41.000Z</time>
      </trkpt>
      <trkpt lat="43.63981" lon="3.36937">
        <ele>176</ele>
        <time>2026-05-12T13:53:58.000Z</time>
      </trkpt>
      <trkpt lat="43.63961" lon="3.36944">
        <ele>177</ele>
        <time>2026-05-12T13:54:14.000Z</time>
      </trkpt>
      <trkpt lat="43.63943" lon="3.36943">
        <ele>178</ele>
        <time>2026-05-12T13:54:29.000Z</time>
      </trkpt>
      <trkpt lat="43.63925" lon="3.36939">
        <ele>178</ele>
        <time>2026-05-12T13:54:43.000Z</time>
      </trkpt>
      <trkpt lat="43.63903" lon="3.36934">
        <ele>179</ele>
        <time>2026-05-12T13:55:00.000Z</time>
      </trkpt>
      <trkpt lat="43.63877" lon="3.36923">
        <ele>180</ele>
        <time>2026-05-12T13:55:21.000Z</time>
      </trkpt>
      <trkpt lat="43.63856" lon="3.36913">
        <ele>183</ele>
        <time>2026-05-12T13:55:38.000Z</time>
      </trkpt>
      <trkpt lat="43.63845" lon="3.36907">
        <ele>184</ele>
        <time>2026-05-12T13:55:49.000Z</time>
      </trkpt>
      <trkpt lat="43.63841" lon="3.36904">
        <ele>185</ele>
        <time>2026-05-12T13:55:53.000Z</time>
      </trkpt>
      <trkpt lat="43.63837" lon="3.36903">
        <ele>185</ele>
        <time>2026-05-12T13:55:57.000Z</time>
      </trkpt>
      <trkpt lat="43.63818" lon="3.36894">
        <ele>186</ele>
        <time>2026-05-12T13:56:14.000Z</time>
      </trkpt>
      <trkpt lat="43.63807" lon="3.36888">
        <ele>188</ele>
        <time>2026-05-12T13:56:25.000Z</time>
      </trkpt>
      <trkpt lat="43.63795" lon="3.36884">
        <ele>189</ele>
        <time>2026-05-12T13:56:39.000Z</time>
      </trkpt>
      <trkpt lat="43.63776" lon="3.36877">
        <ele>191</ele>
        <time>2026-05-12T13:56:57.000Z</time>
      </trkpt>
      <trkpt lat="43.63759" lon="3.36869">
        <ele>193</ele>
        <time>2026-05-12T13:57:13.000Z</time>
      </trkpt>
      <trkpt lat="43.63758" lon="3.36869">
        <ele>193</ele>
        <time>2026-05-12T13:57:14.000Z</time>
      </trkpt>
      <trkpt lat="43.63739" lon="3.36868">
        <ele>196</ele>
        <time>2026-05-12T13:57:32.000Z</time>
      </trkpt>
      <trkpt lat="43.6372" lon="3.36869">
        <ele>199</ele>
        <time>2026-05-12T13:57:48.000Z</time>
      </trkpt>
      <trkpt lat="43.63703" lon="3.36869">
        <ele>201</ele>
        <time>2026-05-12T13:58:04.000Z</time>
      </trkpt>
      <trkpt lat="43.6369" lon="3.36867">
        <ele>204</ele>
        <time>2026-05-12T13:58:16.000Z</time>
      </trkpt>
      <trkpt lat="43.63686" lon="3.36865">
        <ele>204</ele>
        <time>2026-05-12T13:58:20.000Z</time>
      </trkpt>
      <trkpt lat="43.63666" lon="3.36861">
        <ele>207</ele>
        <time>2026-05-12T13:58:37.000Z</time>
      </trkpt>
      <trkpt lat="43.63654" lon="3.36857">
        <ele>210</ele>
        <time>2026-05-12T13:58:50.000Z</time>
      </trkpt>
      <trkpt lat="43.6364" lon="3.36837">
        <ele>212</ele>
        <time>2026-05-12T13:59:07.000Z</time>
      </trkpt>
      <trkpt lat="43.63627" lon="3.3682">
        <ele>214</ele>
        <time>2026-05-12T13:59:23.000Z</time>
      </trkpt>
      <trkpt lat="43.63622" lon="3.36817">
        <ele>215</ele>
        <time>2026-05-12T13:59:28.000Z</time>
      </trkpt>
      <trkpt lat="43.63605" lon="3.36809">
        <ele>216</ele>
        <time>2026-05-12T13:59:43.000Z</time>
      </trkpt>
      <trkpt lat="43.63594" lon="3.36827">
        <ele>218</ele>
        <time>2026-05-12T14:00:00.000Z</time>
      </trkpt>
      <trkpt lat="43.63591" lon="3.36851">
        <ele>219</ele>
        <time>2026-05-12T14:00:15.000Z</time>
      </trkpt>
      <trkpt lat="43.63588" lon="3.36877">
        <ele>221</ele>
        <time>2026-05-12T14:00:31.000Z</time>
      </trkpt>
      <trkpt lat="43.63583" lon="3.369">
        <ele>223</ele>
        <time>2026-05-12T14:00:46.000Z</time>
      </trkpt>
      <trkpt lat="43.6358" lon="3.36914">
        <ele>224</ele>
        <time>2026-05-12T14:01:01.000Z</time>
      </trkpt>
      <trkpt lat="43.63578" lon="3.36924">
        <ele>224</ele>
        <time>2026-05-12T14:01:13.000Z</time>
      </trkpt>
      <trkpt lat="43.63573" lon="3.36928">
        <ele>223</ele>
        <time>2026-05-12T14:01:21.000Z</time>
      </trkpt>
      <trkpt lat="43.63572" lon="3.36927">
        <ele>227</ele>
        <time>2026-05-12T14:01:22.000Z</time>
      </trkpt>
      <trkpt lat="43.63571" lon="3.36926">
        <ele>225</ele>
        <time>2026-05-12T14:01:23.000Z</time>
      </trkpt>
      <trkpt lat="43.6357" lon="3.36926">
        <ele>219</ele>
        <time>2026-05-12T14:01:24.000Z</time>
      </trkpt>
      <trkpt lat="43.63569" lon="3.36925">
        <ele>225</ele>
        <time>2026-05-12T14:01:25.000Z</time>
      </trkpt>
      <trkpt lat="43.63569" lon="3.36925">
        <ele>228</ele>
        <time>2026-05-12T14:01:26.000Z</time>
      </trkpt>
      <trkpt lat="43.63568" lon="3.36925">
        <ele>214</ele>
        <time>2026-05-12T14:01:27.000Z</time>
      </trkpt>
      <trkpt lat="43.63567" lon="3.36925">
        <ele>235</ele>
        <time>2026-05-12T14:01:28.000Z</time>
      </trkpt>
      <trkpt lat="43.63566" lon="3.36925">
        <ele>228</ele>
        <time>2026-05-12T14:01:29.000Z</time>
      </trkpt>
      <trkpt lat="43.63563" lon="3.36925">
        <ele>225</ele>
        <time>2026-05-12T14:01:32.000Z</time>
      </trkpt>
      <trkpt lat="43.63562" lon="3.36924">
        <ele>225</ele>
        <time>2026-05-12T14:01:33.000Z</time>
      </trkpt>
      <trkpt lat="43.63562" lon="3.36917">
        <ele>224</ele>
        <time>2026-05-12T14:01:45.000Z</time>
      </trkpt>
      <trkpt lat="43.63563" lon="3.36917">
        <ele>227</ele>
        <time>2026-05-12T14:01:46.000Z</time>
      </trkpt>
      <trkpt lat="43.63563" lon="3.36917">
        <ele>227</ele>
        <time>2026-05-12T14:01:47.000Z</time>
      </trkpt>
      <trkpt lat="43.63563" lon="3.36916">
        <ele>226</ele>
        <time>2026-05-12T14:01:50.000Z</time>
      </trkpt>
    </trkseg>
  </trk>
</gpx>